D85052 / EI-FJB 7700 Squawk Report (14th of December, 2018)

Aircraft B738 Reg No. EI-FJB Age 3 years old
Model 737 Jet engines 2 First flight 10-12-15
Registered 21-12-15 Rollout N/A Delivered 21-10-15
Construction No. 42081 Line No. 5714 Series 8JP
ADSHEX 4CA554 Airline name Norwegian Air International Owner N/A
Airfield based Copenhagen-Kastrup~Copenhagen~OY First tracked 2017-07-13 09:33:00

Flight history for EI-FJB

Time Lat Lon Altitude Heading Speed Vertical Rate
2018-12-14 18:20:28 GMT 59.625038 17.950239 -375 9 133 -576
2018-12-14 18:20:25 GMT 59.623829 17.949862 -375 9 133 -576
2018-12-14 18:20:17 GMT 59.618317 17.947815 -250 11 128 -640
2018-12-14 18:20:06 GMT 59.611542 17.945251 -125 10 131 -704
2018-12-14 18:19:55 GMT 59.604584 17.942780 0 10 132 -576
2018-12-14 18:19:47 GMT 59.600739 17.941406 75 10 135 -832
2018-12-14 18:19:43 GMT 59.598408 17.940578 125 10 136 -896
2018-12-14 18:19:37 GMT 59.594925 17.939301 225 10 138 -896
2018-12-14 18:19:33 GMT 59.591492 17.938019 300 10 140 -768
2018-12-14 18:19:28 GMT 59.588242 17.936829 375 10 144 -768
2018-12-14 18:19:22 GMT 59.585281 17.935749 450 10 148 -832
2018-12-14 18:19:19 GMT 59.582722 17.934801 500 9 151 -832
2018-12-14 18:19:16 GMT 59.581375 17.934357 525 9 153 -832
2018-12-14 18:19:12 GMT 59.578262 17.933258 600 9 156 -832
2018-12-14 18:19:07 GMT 59.570663 17.930603 725 10 164 -896
2018-12-14 18:19:01 GMT 59.570663 17.930603 750 10 165 -832
2018-12-14 18:18:57 GMT 59.567451 17.929403 850 10 167 -896
2018-12-14 18:18:54 GMT 59.564938 17.928455 875 10 170 -896
2018-12-14 18:18:50 GMT 59.562145 17.927509 925 10 172 -832
2018-12-14 18:18:46 GMT 59.558578 17.926208 1,000 10 175 -896
2018-12-14 18:18:43 GMT 59.557442 17.925804 1,025 10 176 -896
2018-12-14 18:18:40 GMT 59.550659 17.923279 1,125 10 180 -960
2018-12-14 18:18:36 GMT 59.550659 17.923279 1,175 10 183 -960
2018-12-14 18:18:32 GMT 59.546551 17.921827 1,200 10 180 -960
2018-12-14 18:18:29 GMT 59.545059 17.921352 1,300 10 185 -832
2018-12-14 18:18:26 GMT 59.541988 17.920218 1,350 10 187 -960
2018-12-14 18:18:22 GMT 59.538822 17.919081 1,375 10 187 -1024
2018-12-14 18:18:18 GMT 59.535873 17.917969 1,450 10 187 -1024
2018-12-14 18:18:14 GMT 59.532120 17.916618 1,525 10 187 -1024
2018-12-14 18:18:11 GMT 59.529980 17.915766 1,600 10 188 -1024
2018-12-14 18:18:08 GMT 59.526855 17.914581 1,675 10 188 -1024
2018-12-14 18:18:04 GMT 59.521637 17.912659 1,975 10 185 -1088
2018-12-14 18:17:58 GMT 59.515827 17.910557 1,925 10 186 -1088
2018-12-14 18:17:55 GMT 59.512527 17.909363 1,950 10 185 -1088
2018-12-14 18:17:51 GMT 59.512527 17.909363 2,000 10 185 -1024
2018-12-14 18:17:48 GMT 59.510006 17.908472 2,050 10 185 -1088
2018-12-14 18:17:45 GMT 59.507401 17.907524 2,100 10 184 -1088
2018-12-14 18:17:41 GMT 59.503769 17.906294 2,200 10 183 -960
2018-12-14 18:17:37 GMT 59.501358 17.905426 2,250 9 183 -896
2018-12-14 18:17:34 GMT 59.497532 17.904116 2,300 9 183 -896
2018-12-14 18:17:31 GMT 59.495361 17.903412 2,350 9 183 -896
2018-12-14 18:17:27 GMT 59.492924 17.902601 2,400 10 183 -960
2018-12-14 18:17:24 GMT 59.489338 17.901369 2,550 10 185 -896
2018-12-14 18:17:21 GMT 59.487148 17.900517 2,500 10 185 -960
2018-12-14 18:17:18 GMT 59.485054 17.899759 2,550 11 185 -896
2018-12-14 18:17:14 GMT 59.477829 17.897003 2,650 10 186 -960
2018-12-14 18:17:11 GMT 59.477829 17.897003 2,700 10 187 -960
2018-12-14 18:17:07 GMT 59.475281 17.896067 2,750 10 186 -1088
2018-12-14 18:17:03 GMT 59.471878 17.894806 2,850 9 186 -1088
2018-12-14 18:17:00 GMT 59.469589 17.894073 2,875 9 186 -1152
2018-12-14 18:16:57 GMT 59.467026 17.893158 2,925 10 186 -1088
2018-12-14 18:16:53 GMT 59.463547 17.891968 3,075 9 186 -1152
2018-12-14 18:16:50 GMT 59.460663 17.890951 3,075 9 186 -1152
2018-12-14 18:16:46 GMT 59.457401 17.889910 3,150 9 185 -1024
2018-12-14 18:16:43 GMT 59.455902 17.889404 3,225 9 185 -896
2018-12-14 18:16:40 GMT 59.452934 17.888489 3,250 9 184 -768
2018-12-14 18:16:37 GMT 59.449722 17.887390 3,300 9 184 -448
2018-12-14 18:16:32 GMT 59.443623 17.885553 3,350 9 183 -320
2018-12-14 18:16:29 GMT 59.443623 17.885553 3,375 9 183 -256
2018-12-14 18:16:26 GMT 59.441200 17.884794 3,375 9 183 -128
2018-12-14 18:16:22 GMT 59.437363 17.883545 3,400 9 182 0
2018-12-14 18:16:19 GMT 59.435383 17.882900 3,400 10 182 0
2018-12-14 18:16:15 GMT 59.432358 17.881763 3,400 11 183 0
2018-12-14 18:16:12 GMT 59.426834 17.879608 3,400 13 183 0
2018-12-14 18:16:09 GMT 59.424118 17.878355 3,400 13 183 0
2018-12-14 18:16:06 GMT 59.424118 17.878355 3,400 14 183 0
2018-12-14 18:16:01 GMT 59.420059 17.876129 3,400 17 183 64
2018-12-14 18:15:58 GMT 59.415298 17.873199 3,400 17 183 0
2018-12-14 18:15:55 GMT 59.412853 17.871725 3,400 17 183 -64
2018-12-14 18:15:48 GMT 59.409733 17.869736 3,400 18 184 -512
2018-12-14 18:15:44 GMT 59.407104 17.868073 3,425 19 184 -896
2018-12-14 18:15:40 GMT 59.403450 17.865475 3,500 21 184 -896
2018-12-14 18:15:37 GMT 59.399536 17.862349 3,575 27 182 -832
2018-12-14 18:15:30 GMT 59.396046 17.858276 3,625 38 182 -384
2018-12-14 18:15:24 GMT 59.391953 17.851135 3,650 45 183 -384
2018-12-14 18:15:21 GMT 59.390030 17.847290 3,675 45 184 -384
2018-12-14 18:15:18 GMT 59.388786 17.844828 3,700 45 185 -384
2018-12-14 18:15:14 GMT 59.386086 17.839619 3,725 44 187 -384
2018-12-14 18:15:11 GMT 59.384628 17.836761 3,750 44 187 -448
2018-12-14 18:15:08 GMT 59.382454 17.832609 3,775 45 189 -448
2018-12-14 18:15:03 GMT 59.379272 17.826233 3,800 46 190 -448
2018-12-14 18:15:00 GMT 59.377007 17.821150 3,850 53 192 -512
2018-12-14 18:14:55 GMT 59.374584 17.814236 3,875 64 195 -448
2018-12-14 18:14:52 GMT 59.372589 17.804626 3,925 74 199 -704
2018-12-14 18:14:48 GMT 59.372589 17.804626 3,925 74 199 -704
2018-12-14 18:14:43 GMT 59.371262 17.794647 3,975 76 203 -576
2018-12-14 18:14:40 GMT 59.370491 17.788570 4,000 75 204 -512
2018-12-14 18:14:36 GMT 59.369789 17.782982 4,050 75 204 -448
2018-12-14 18:14:33 GMT 59.369019 17.777252 4,075 77 206 -384
2018-12-14 18:14:28 GMT 59.368103 17.768829 4,100 80 207 -512
2018-12-14 18:14:23 GMT 59.367599 17.758850 4,150 95 210 -832
2018-12-14 18:14:20 GMT 59.367874 17.751068 4,175 104 212 -832
2018-12-14 18:14:16 GMT 59.368767 17.743204 4,225 110 212 -896
2018-12-14 18:14:13 GMT 59.369476 17.739349 4,250 119 213 -832
2018-12-14 18:14:10 GMT 59.370628 17.734776 4,275 123 214 -768
2018-12-14 18:14:02 GMT 59.376030 17.721231 4,350 141 216 -512
2018-12-14 18:13:59 GMT 59.377052 17.719433 4,350 145 217 -448
2018-12-14 18:13:55 GMT 59.381756 17.713560 4,375 155 217 -320
2018-12-14 18:13:52 GMT 59.386318 17.709961 4,400 163 219 -128
2018-12-14 18:13:49 GMT 59.386318 17.709961 4,400 165 218 -64
2018-12-14 18:13:43 GMT 59.392788 17.706741 4,400 167 219 0
2018-12-14 18:13:40 GMT 59.395844 17.705475 4,400 167 219 0
2018-12-14 18:13:36 GMT 59.399963 17.703644 4,400 167 218 0
2018-12-14 18:13:31 GMT 59.404129 17.701904 4,400 167 218 0
2018-12-14 18:13:28 GMT 59.406662 17.700773 4,400 167 218 0
2018-12-14 18:13:25 GMT 59.410709 17.699068 4,400 167 218 0
2018-12-14 18:13:21 GMT 59.414574 17.697458 4,400 167 218 0
2018-12-14 18:13:18 GMT 59.416901 17.696411 4,400 167 218 0
2018-12-14 18:13:14 GMT 59.420860 17.694807 4,400 167 218 0
2018-12-14 18:13:08 GMT 59.427006 17.692156 4,400 167 218 0
2018-12-14 18:13:05 GMT 59.435165 17.688721 4,400 185 221 -320
2018-12-14 18:13:00 GMT 59.435165 17.688721 4,400 167 219 64
2018-12-14 18:12:56 GMT 59.439621 17.686852 4,400 167 219 0
2018-12-14 18:12:51 GMT 59.443668 17.685053 4,400 185 221 -320
2018-12-14 18:12:47 GMT 59.447441 17.683441 4,400 167 220 -512
2018-12-14 18:12:44 GMT 59.451118 17.681831 4,400 168 220 -896
2018-12-14 18:12:37 GMT 59.457687 17.679108 4,575 184 222 -448
2018-12-14 18:12:34 GMT 59.461029 17.678375 4,550 178 222 -704
2018-12-14 18:12:29 GMT 59.466713 17.678516 4,600 187 222 -320
2018-12-14 18:12:26 GMT 59.468155 17.678707 4,625 188 221 -320
2018-12-14 18:12:23 GMT 59.471695 17.679565 4,625 188 221 -320
2018-12-14 18:12:19 GMT 59.476913 17.680939 4,650 188 221 -320
2018-12-14 18:12:16 GMT 59.478928 17.681396 4,675 188 221 -320
2018-12-14 18:12:13 GMT 59.481583 17.682129 4,675 188 221 -320
2018-12-14 18:12:06 GMT 59.489292 17.684105 4,725 188 222 -320
2018-12-14 18:11:56 GMT 59.500122 17.686798 4,775 187 222 -320
2018-12-14 18:11:53 GMT 59.503372 17.687531 4,775 187 222 -320
2018-12-14 18:11:46 GMT 59.510742 17.688354 4,825 179 221 -192
2018-12-14 18:11:43 GMT 59.513809 17.687714 4,850 171 219 -128
2018-12-14 18:11:40 GMT 59.516895 17.686378 4,875 159 218 -128
2018-12-14 18:11:35 GMT 59.520573 17.683916 4,900 146 217 -64
2018-12-14 18:11:32 GMT 59.523331 17.681030 4,900 146 217 -64
2018-12-14 18:11:26 GMT 59.527954 17.673981 4,925 133 213 960
2018-12-14 18:11:23 GMT 59.530746 17.668030 4,950 124 215 -64
2018-12-14 18:11:16 GMT 59.533676 17.658051 4,975 110 215 0
2018-12-14 18:11:12 GMT 59.535141 17.650543 5,000 104 214 0
2018-12-14 18:11:06 GMT 59.535934 17.630405 5,025 87 215 -192
2018-12-14 18:11:02 GMT 59.535934 17.630405 5,050 86 214 -256
2018-12-14 18:10:55 GMT 59.535599 17.617584 5,075 86 214 -256
2018-12-14 18:10:51 GMT 59.535324 17.609344 5,100 86 214 -256
2018-12-14 18:10:47 GMT 59.535099 17.601423 5,125 86 214 -320
2018-12-14 18:10:41 GMT 59.534771 17.590721 5,150 86 214 -320
2018-12-14 18:10:35 GMT 59.534454 17.579590 5,175 86 215 -320
2018-12-14 18:10:30 GMT 59.534168 17.570074 5,225 86 215 -256
2018-12-14 18:10:25 GMT 59.533840 17.560320 5,225 86 215 -256
2018-12-14 18:10:20 GMT 59.533516 17.550186 5,250 86 215 -256
2018-12-14 18:10:17 GMT 59.533329 17.543081 5,275 86 215 -256
2018-12-14 18:10:14 GMT 59.533173 17.537842 5,275 86 215 -320
2018-12-14 18:10:10 GMT 59.532864 17.528214 5,300 86 215 -256
2018-12-14 18:10:07 GMT 59.532715 17.523743 5,325 86 215 -256
2018-12-14 18:10:04 GMT 59.532539 17.518080 5,325 86 215 -256
2018-12-14 18:10:00 GMT 59.532303 17.508911 5,350 86 215 -320
2018-12-14 18:09:56 GMT 59.532120 17.503784 5,375 86 215 -320
2018-12-14 18:09:49 GMT 59.531662 17.488220 5,425 86 215 -320
2018-12-14 18:09:43 GMT 59.531235 17.475460 5,450 86 216 -320
2018-12-14 18:09:38 GMT 59.530930 17.465881 5,475 86 217 -320
2018-12-14 18:09:34 GMT 59.530678 17.458128 5,475 86 217 -384
2018-12-14 18:09:28 GMT 59.530350 17.448278 5,525 86 218 -448
2018-12-14 18:09:25 GMT 59.530106 17.440979 5,550 86 219 -448
2018-12-14 18:09:22 GMT 59.529930 17.435966 5,575 86 219 -448
2018-12-14 18:09:18 GMT 59.529606 17.426588 5,625 85 220 -448
2018-12-14 18:09:13 GMT 59.529282 17.418365 5,650 85 221 -512
2018-12-14 18:09:10 GMT 59.529045 17.410299 5,700 90 222 -704
2018-12-14 18:09:04 GMT 59.529140 17.397608 5,750 98 223 -704
2018-12-14 18:08:59 GMT 59.529739 17.390350 5,800 109 225 -832
2018-12-14 18:08:54 GMT 59.531799 17.378906 5,850 119 229 -768
2018-12-14 18:08:49 GMT 59.534225 17.370850 5,975 129 233 -832
2018-12-14 18:08:43 GMT 59.538448 17.361050 5,925 136 236 -704
2018-12-14 18:08:38 GMT 59.543198 17.354136 6,000 150 240 -896
2018-12-14 18:08:34 GMT 59.546722 17.350433 6,050 155 242 -896
2018-12-14 18:08:31 GMT 59.549194 17.348419 6,100 160 243 -768
2018-12-14 18:08:28 GMT 59.552261 17.346130 6,125 160 243 -768
2018-12-14 18:08:22 GMT 59.560005 17.340782 6,200 160 243 -768
2018-12-14 18:08:19 GMT 59.562744 17.338898 6,275 160 243 -768
2018-12-14 18:08:13 GMT 59.569336 17.334320 6,350 160 243 -768
2018-12-14 18:08:08 GMT 59.574108 17.331026 6,400 160 243 -768
2018-12-14 18:08:02 GMT 59.580997 17.326197 6,475 160 243 -768
2018-12-14 18:07:57 GMT 59.585403 17.323059 6,550 159 242 -768
2018-12-14 18:07:51 GMT 59.591518 17.318714 6,625 160 242 -768
2018-12-14 18:07:47 GMT 59.596268 17.315306 6,675 160 242 -768
2018-12-14 18:07:43 GMT 59.600784 17.312164 6,750 160 241 -768
2018-12-14 18:07:40 GMT 59.603020 17.310570 6,775 160 241 -768
2018-12-14 18:07:37 GMT 59.606094 17.308502 6,800 160 241 -768
2018-12-14 18:07:31 GMT 59.613144 17.303558 6,925 160 243 -832
2018-12-14 18:07:28 GMT 59.617126 17.300720 6,950 160 243 -832
2018-12-14 18:07:19 GMT 59.625271 17.294943 7,075 160 244 -768
2018-12-14 18:07:16 GMT 59.628571 17.292664 7,100 160 244 -768
2018-12-14 18:07:11 GMT 59.634201 17.288635 7,175 160 245 -832
2018-12-14 18:07:07 GMT 59.638771 17.285473 7,250 160 245 -768
2018-12-14 18:06:59 GMT 59.647198 17.279505 7,325 160 246 -768
2018-12-14 18:06:56 GMT 59.650223 17.277422 7,475 160 248 -768
2018-12-14 18:06:50 GMT 59.656788 17.272781 7,475 160 248 -768
2018-12-14 18:06:47 GMT 59.660980 17.269867 7,525 160 249 -768
2018-12-14 18:06:40 GMT 59.667801 17.265106 7,600 160 250 -768
2018-12-14 18:06:35 GMT 59.673683 17.260942 7,675 160 251 -768
2018-12-14 18:06:30 GMT 59.679794 17.256683 7,750 160 252 -768
2018-12-14 18:06:27 GMT 59.681553 17.255449 7,775 160 252 -832
2018-12-14 18:06:23 GMT 59.685608 17.252655 7,825 160 253 -832
2018-12-14 18:06:19 GMT 59.690910 17.248915 7,850 160 254 -1280
2018-12-14 18:06:15 GMT 59.695377 17.245789 7,925 160 254 -1280
2018-12-14 18:06:09 GMT 59.701897 17.241148 8,125 160 255 -1280
2018-12-14 18:06:05 GMT 59.707668 17.236980 8,225 159 254 -1280
2018-12-14 18:06:00 GMT 59.715256 17.231487 8,375 159 253 -1344
2018-12-14 18:05:57 GMT 59.715256 17.231487 8,400 159 253 -1344
2018-12-14 18:05:54 GMT 59.718658 17.229034 8,450 159 253 -1344
2018-12-14 18:05:50 GMT 59.722610 17.226089 8,550 159 253 -1280
2018-12-14 18:05:46 GMT 59.726334 17.223436 8,625 159 252 -1216
2018-12-14 18:05:43 GMT 59.729733 17.220976 8,700 159 252 -1152
2018-12-14 18:05:39 GMT 59.734108 17.217754 8,775 159 252 -1088
2018-12-14 18:05:34 GMT 59.741364 17.212372 8,900 159 254 -1216
2018-12-14 18:05:29 GMT 59.745838 17.209042 8,975 159 254 -1216
2018-12-14 18:05:26 GMT 59.749378 17.206484 9,050 159 255 -1216
2018-12-14 18:05:19 GMT 59.756973 17.200836 9,200 159 255 -1280
2018-12-14 18:05:15 GMT 59.760876 17.198055 9,300 160 256 -1344
2018-12-14 18:05:12 GMT 59.763977 17.195801 9,350 160 256 -1408
2018-12-14 18:05:09 GMT 59.768005 17.193054 9,425 160 255 -1536
2018-12-14 18:05:04 GMT 59.773445 17.189152 9,575 154 252 -1664
2018-12-14 18:05:01 GMT 59.776985 17.185932 9,675 140 252 -896
2018-12-14 18:04:57 GMT 59.781219 17.181103 9,800 143 251 -1088
2018-12-14 18:04:54 GMT 59.783131 17.178450 9,875 139 252 -768
2018-12-14 18:04:51 GMT 59.785782 17.174189 9,900 132 251 640
2018-12-14 18:04:46 GMT 59.791042 17.163296 9,975 123 256 -256
2018-12-14 18:04:43 GMT 59.792587 17.159363 10,000 121 257 -256
2018-12-14 18:04:38 GMT 59.795746 17.147919 10,075 109 267 -384
2018-12-14 18:04:35 GMT 59.797001 17.142176 10,075 109 267 -384
2018-12-14 18:04:31 GMT 59.798492 17.134003 10,075 109 268 -256
2018-12-14 18:04:28 GMT 59.799911 17.126129 10,100 109 269 -192
2018-12-14 18:04:24 GMT 59.801697 17.115875 10,125 109 272 -448
2018-12-14 18:04:21 GMT 59.802887 17.108734 10,125 108 273 -448
2018-12-14 18:04:18 GMT 59.804077 17.102325 10,175 108 277 -448
2018-12-14 18:04:13 GMT 59.806091 17.090515 10,225 109 282 -512
2018-12-14 18:04:10 GMT 59.807056 17.084877 10,225 109 282 -512
2018-12-14 18:04:03 GMT 59.810486 17.065430 10,325 106 290 -576
2018-12-14 18:04:00 GMT 59.811806 17.057980 10,350 104 292 -512
2018-12-14 18:03:55 GMT 59.813873 17.042725 10,400 98 297 -320
2018-12-14 18:03:51 GMT 59.814507 17.035250 10,450 93 301 -256
2018-12-14 18:03:48 GMT 59.814972 17.026428 10,475 90 305 -320
2018-12-14 18:03:39 GMT 59.814598 17.002100 10,550 76 314 -1280
2018-12-14 18:03:29 GMT 59.811172 16.975159 10,775 64 318 -1728
2018-12-14 18:03:18 GMT 59.802540 16.945747 11,100 51 322 -1664
2018-12-14 18:03:09 GMT 59.782616 16.903980 12,025 45 329 -1856
2018-12-14 18:02:58 GMT 59.771713 16.881500 12,025 45 329 -1856
2018-12-14 18:02:48 GMT 59.771713 16.881500 12,050 45 329 -1856
2018-12-14 18:02:45 GMT 59.768326 16.874620 12,200 45 330 -1856
2018-12-14 18:02:41 GMT 59.764275 16.866381 12,425 45 330 -1856
2018-12-14 18:02:38 GMT 59.760681 16.858978 12,425 45 330 -1856
2018-12-14 18:02:28 GMT 59.750015 16.837189 12,725 45 334 -1856
2018-12-14 18:02:25 GMT 59.746262 16.829498 12,850 45 334 -1856
2018-12-14 18:02:17 GMT 59.738716 16.814102 13,050 45 335 -1920
2018-12-14 18:02:14 GMT 59.735600 16.807756 13,175 45 335 -1920
2018-12-14 18:02:06 GMT 59.726486 16.789215 13,400 45 337 -1856
2018-12-14 18:02:02 GMT 59.721176 16.778412 13,600 45 338 -1856
2018-12-14 18:01:57 GMT 59.714172 16.764221 13,775 45 339 -1856
2018-12-14 18:01:54 GMT 59.714172 16.764221 13,800 45 340 -1920
2018-12-14 18:01:48 GMT 59.703644 16.742798 14,075 45 341 -1920
2018-12-14 18:01:34 GMT 59.691193 16.717438 14,475 45 343 -1920
2018-12-14 18:01:27 GMT 59.680248 16.695051 14,775 45 345 -2048
2018-12-14 18:01:15 GMT 59.670567 16.675352 15,125 45 347 -2048
2018-12-14 18:01:04 GMT 59.657822 16.649506 15,550 45 347 -2048
2018-12-14 18:00:53 GMT 59.645828 16.625153 15,925 45 349 -2048
2018-12-14 18:00:43 GMT 59.633976 16.601194 16,300 45 350 -2048
2018-12-14 18:00:35 GMT 59.625130 16.583389 16,625 45 352 -2112
2018-12-14 18:00:32 GMT 59.622429 16.577896 16,700 45 352 -2112
2018-12-14 18:00:29 GMT 59.618893 16.570791 16,775 45 352 -2112
2018-12-14 18:00:24 GMT 59.613464 16.559784 16,975 45 352 -2112
2018-12-14 18:00:21 GMT 59.609390 16.551453 17,100 45 352 -2112
2018-12-14 18:00:18 GMT 59.606743 16.546167 17,175 45 352 -2112
2018-12-14 18:00:11 GMT 59.597851 16.528269 17,450 45 354 -2112
2018-12-14 18:00:08 GMT 59.595013 16.522585 17,625 45 357 -2112
2018-12-14 18:00:03 GMT 59.588562 16.509613 17,700 45 355 -2112
2018-12-14 18:00:00 GMT 59.585838 16.504116 17,850 45 355 -2112
2018-12-14 17:59:53 GMT 59.578125 16.488647 18,075 45 356 -2112
2018-12-14 17:59:50 GMT 59.573410 16.479113 18,250 45 357 -2112
2018-12-14 17:59:44 GMT 59.566475 16.465191 18,450 45 358 -2112
2018-12-14 17:59:38 GMT 59.561142 16.454590 18,550 45 358 -2112
2018-12-14 17:59:32 GMT 59.553253 16.438766 18,850 45 359 -2112
2018-12-14 17:59:29 GMT 59.548969 16.430147 19,025 45 359 -2112
2018-12-14 17:59:23 GMT 59.542786 16.417694 19,175 45 361 -2176
2018-12-14 17:59:20 GMT 59.532761 16.397552 19,400 45 362 -2112
2018-12-14 17:59:15 GMT 59.532761 16.397552 19,525 45 362 -2112
2018-12-14 17:59:11 GMT 59.527496 16.386932 19,575 45 362 -2112
2018-12-14 17:59:08 GMT 59.524300 16.380615 19,800 45 364 -2176
2018-12-14 17:59:02 GMT 59.518066 16.368073 20,075 45 364 -2176
2018-12-14 17:58:59 GMT 59.510193 16.352201 20,175 45 365 -2112
2018-12-14 17:58:55 GMT 59.510193 16.352201 20,250 45 365 -2112
2018-12-14 17:58:51 GMT 59.504791 16.341248 20,350 45 366 -2176
2018-12-14 17:58:47 GMT 59.499580 16.330797 20,775 45 367 -2304
2018-12-14 17:58:44 GMT 59.496971 16.325588 20,675 45 367 -2304
2018-12-14 17:58:41 GMT 59.492935 16.317444 20,800 45 368 -2304
2018-12-14 17:58:38 GMT 59.488953 16.309662 20,925 45 368 -2240
2018-12-14 17:58:35 GMT 59.481564 16.294903 21,075 45 369 -2240
2018-12-14 17:58:31 GMT 59.481564 16.294903 21,175 45 369 -2240
2018-12-14 17:58:25 GMT 59.473984 16.279907 21,400 45 371 -2240
2018-12-14 17:58:20 GMT 59.467392 16.266724 21,525 45 371 -2240
2018-12-14 17:58:15 GMT 59.462429 16.256924 22,600 45 372 -2240
2018-12-14 17:58:10 GMT 59.455536 16.243195 21,925 45 373 -2240
2018-12-14 17:58:05 GMT 59.449356 16.231018 22,200 45 374 -2240
2018-12-14 17:57:59 GMT 59.442535 16.217468 22,325 45 375 -2240
2018-12-14 17:57:54 GMT 59.436905 16.206299 22,600 45 376 -2304
2018-12-14 17:57:49 GMT 59.431286 16.195173 22,750 45 377 -2304
2018-12-14 17:57:44 GMT 59.423466 16.179642 23,025 45 378 -2304
2018-12-14 17:57:38 GMT 59.417542 16.167938 23,150 45 379 -2304
2018-12-14 17:57:34 GMT 59.412758 16.158426 23,375 45 380 -2304
2018-12-14 17:57:31 GMT 59.408291 16.149618 23,525 45 381 -2304
2018-12-14 17:57:24 GMT 59.399918 16.132965 23,850 45 382 -2240
2018-12-14 17:57:21 GMT 59.394928 16.123077 23,950 45 383 -2240
2018-12-14 17:57:14 GMT 59.386318 16.106146 24,200 45 384 -2240
2018-12-14 17:57:10 GMT 59.382202 16.097992 24,325 45 386 -2240
2018-12-14 17:57:01 GMT 59.371281 16.076408 24,675 45 388 -2240
2018-12-14 17:56:58 GMT 59.368011 16.069885 24,775 45 388 -2304
2018-12-14 17:56:50 GMT 59.353592 16.041412 25,225 45 389 -2048
2018-12-14 17:56:41 GMT 59.345631 16.025642 25,425 45 391 -1152
2018-12-14 17:56:38 GMT 59.342468 16.019348 25,475 45 391 -960
2018-12-14 17:56:33 GMT 59.335484 16.005566 25,600 45 389 -960
2018-12-14 17:56:29 GMT 59.329292 15.993347 25,675 45 389 -960
2018-12-14 17:56:22 GMT 59.322586 15.980088 25,775 45 389 -896
2018-12-14 17:56:19 GMT 59.307320 15.949307 25,950 48 391 -1536
2018-12-14 17:56:11 GMT 59.307320 15.949307 25,975 49 392 -1664
2018-12-14 17:56:08 GMT 59.305252 15.944824 26,200 51 393 -2176
2018-12-14 17:56:02 GMT 59.297516 15.926605 26,225 51 393 -2176
2018-12-14 17:55:59 GMT 59.291023 15.910381 26,450 51 394 -2176
2018-12-14 17:55:53 GMT 59.286621 15.899506 26,600 51 395 -2176
2018-12-14 17:55:48 GMT 59.281769 15.887512 26,950 51 400 -2176
2018-12-14 17:55:42 GMT 59.275085 15.870850 26,975 51 398 -2176
2018-12-14 17:55:38 GMT 59.270554 15.859589 27,075 51 400 -2176
2018-12-14 17:55:32 GMT 59.262863 15.840637 27,375 51 402 -2112
2018-12-14 17:55:27 GMT 59.256958 15.826172 27,575 51 404 -2176
2018-12-14 17:55:21 GMT 59.250942 15.811410 27,750 51 405 -2176
2018-12-14 17:55:17 GMT 59.246246 15.799988 27,925 51 407 -2240
2018-12-14 17:55:11 GMT 59.238968 15.782227 28,150 51 409 -2240
2018-12-14 17:55:07 GMT 59.233795 15.769592 28,325 51 410 -2304
2018-12-14 17:55:02 GMT 59.226425 15.751740 28,575 51 411 -2240
2018-12-14 17:54:55 GMT 59.221195 15.739052 28,750 51 412 -2240
2018-12-14 17:54:51 GMT 59.215622 15.725464 28,900 51 413 -2304
2018-12-14 17:54:45 GMT 59.208256 15.707324 29,175 51 416 -2304
2018-12-14 17:54:41 GMT 59.202896 15.694153 29,350 51 417 -2368
2018-12-14 17:54:34 GMT 59.195709 15.676575 29,600 51 419 -2368
2018-12-14 17:54:30 GMT 59.190380 15.663568 29,775 51 420 -2432
2018-12-14 17:54:27 GMT 59.185909 15.652582 29,925 51 421 -2496
2018-12-14 17:54:24 GMT 59.183491 15.646710 30,025 51 421 -2496
2018-12-14 17:54:20 GMT 59.178043 15.633356 30,125 51 423 -2560
2018-12-14 17:54:14 GMT 59.169991 15.613656 30,500 51 426 -2240
2018-12-14 17:54:10 GMT 59.165955 15.603882 30,625 51 427 -1984
2018-12-14 17:54:05 GMT 59.158585 15.585846 30,850 51 429 -2816
2018-12-14 17:54:02 GMT 59.156204 15.580078 30,925 51 429 -3072
2018-12-14 17:53:59 GMT 59.153000 15.572268 31,225 51 429 -3456
2018-12-14 17:53:54 GMT 59.141190 15.543915 31,525 50 427 -3840
2018-12-14 17:53:50 GMT 59.141190 15.543915 31,700 50 426 -3904
2018-12-14 17:53:43 GMT 59.132675 15.523407 32,300 51 423 -3904
2018-12-14 17:53:40 GMT 59.128510 15.513358 32,400 51 421 -3776
2018-12-14 17:53:35 GMT 59.122696 15.499237 32,700 51 420 -3520
2018-12-14 17:53:32 GMT 59.119061 15.490344 32,900 51 419 -3392
2018-12-14 17:53:29 GMT 59.115570 15.481820 33,025 51 427 -1664
2018-12-14 17:53:25 GMT 59.110336 15.469208 33,375 51 420 -2560
2018-12-14 17:53:22 GMT 59.103333 15.452179 33,550 51 420 -2496
2018-12-14 17:53:14 GMT 59.097599 15.438348 34,400 51 422 -2560
2018-12-14 17:53:11 GMT 59.093948 15.429474 33,875 51 422 -2688
2018-12-14 17:53:08 GMT 59.090652 15.421509 35,800 51 425 -2688
2018-12-14 17:53:01 GMT 59.081215 15.398854 34,425 51 419 -3520
2018-12-14 17:52:58 GMT 59.073208 15.379533 34,675 51 421 -2240
2018-12-14 17:52:54 GMT 59.073208 15.379533 34,800 51 422 -1152
2018-12-14 17:52:49 GMT 59.066757 15.363922 34,875 51 424 -768
2018-12-14 17:52:44 GMT 59.060360 15.348469 35,000 51 428 -2624
2018-12-14 17:52:38 GMT 59.053516 15.332084 35,175 50 427 -3264
2018-12-14 17:52:34 GMT 59.047928 15.318730 35,500 50 426 -3264
2018-12-14 17:52:28 GMT 59.040619 15.301300 35,750 50 425 -3008
2018-12-14 17:52:23 GMT 59.034943 15.287659 36,050 51 425 -2560
2018-12-14 17:52:18 GMT 59.027802 15.270447 36,425 51 426 -1920
2018-12-14 17:52:11 GMT 59.019997 15.251391 36,550 51 426 -2176
2018-12-14 17:52:07 GMT 59.008778 15.224304 36,875 51 428 -832
2018-12-14 17:52:03 GMT 59.008778 15.224304 36,850 51 427 -1152
2018-12-14 17:51:56 GMT 59.001205 15.206177 36,950 51 428 -64
2018-12-14 17:51:52 GMT 58.996162 15.193997 36,975 51 428 0
2018-12-14 17:51:47 GMT 58.988949 15.176665 37,000 51 428 0
2018-12-14 17:51:41 GMT 58.983353 15.163239 37,000 51 429 0
2018-12-14 17:51:36 GMT 58.976395 15.146484 37,000 51 429 0
2018-12-14 17:51:31 GMT 58.970947 15.133392 37,000 51 429 0
2018-12-14 17:51:26 GMT 58.965088 15.119385 37,000 51 429 0
2018-12-14 17:51:21 GMT 58.957989 15.102413 37,000 51 429 0
2018-12-14 17:51:15 GMT 58.951538 15.086884 36,975 51 429 0
2018-12-14 17:51:05 GMT 58.938583 15.055939 37,000 51 429 0
2018-12-14 17:51:00 GMT 58.932339 15.041041 37,000 50 429 0
2018-12-14 17:50:54 GMT 58.925125 15.023804 37,000 50 429 0
2018-12-14 17:50:50 GMT 58.919495 15.010437 37,000 50 429 0
2018-12-14 17:50:44 GMT 58.912136 14.992928 37,000 50 429 0
2018-12-14 17:50:39 GMT 58.906223 14.979006 37,000 50 429 0
2018-12-14 17:50:36 GMT 58.901962 14.968872 37,000 50 429 0
2018-12-14 17:50:33 GMT 58.898960 14.961769 37,000 50 429 0
2018-12-14 17:50:29 GMT 58.893814 14.949646 37,000 50 429 0
2018-12-14 17:50:23 GMT 58.885803 14.930695 37,000 50 429 0
2018-12-14 17:50:19 GMT 58.881042 14.919434 37,000 50 429 0
2018-12-14 17:50:16 GMT 58.876236 14.908173 37,000 50 429 0
2018-12-14 17:50:13 GMT 58.872753 14.899923 37,000 50 429 0
2018-12-14 17:50:09 GMT 58.868454 14.889862 37,000 50 429 0
2018-12-14 17:50:06 GMT 58.862698 14.876246 37,000 50 429 0
2018-12-14 17:50:03 GMT 58.859344 14.868347 37,000 50 429 0
2018-12-14 17:49:59 GMT 58.855591 14.859467 37,000 50 427 0
2018-12-14 17:49:54 GMT 58.849293 14.844708 37,000 50 427 0
2018-12-14 17:49:51 GMT 58.846436 14.837922 37,000 50 427 0
2018-12-14 17:49:48 GMT 58.841171 14.825607 37,000 50 427 0
2018-12-14 17:49:45 GMT 58.837421 14.816711 37,000 50 427 0
2018-12-14 17:49:42 GMT 58.833710 14.807887 37,000 50 427 0
2018-12-14 17:49:38 GMT 58.828854 14.796478 37,000 50 427 0
2018-12-14 17:49:35 GMT 58.825222 14.787964 36,975 50 426 0
2018-12-14 17:49:30 GMT 58.820114 14.775903 37,000 50 426 0
2018-12-14 17:49:23 GMT 58.810886 14.754272 36,975 50 425 0
2018-12-14 17:49:19 GMT 58.799423 14.727350 37,000 50 425 0
2018-12-14 17:49:15 GMT 58.799423 14.727350 37,000 50 424 0
2018-12-14 17:49:11 GMT 58.790451 14.706352 37,000 50 425 0
2018-12-14 17:49:07 GMT 58.790451 14.706352 37,000 50 424 0
2018-12-14 17:49:03 GMT 58.785374 14.694397 37,000 50 424 0
2018-12-14 17:49:00 GMT 58.781616 14.685620 37,000 50 424 0
2018-12-14 17:48:57 GMT 58.778160 14.677460 37,000 50 424 0
2018-12-14 17:48:54 GMT 58.774296 14.668488 37,000 50 424 0
2018-12-14 17:48:51 GMT 58.770153 14.658875 37,000 50 424 0
2018-12-14 17:48:47 GMT 58.765450 14.647797 37,000 50 424 0
2018-12-14 17:48:44 GMT 58.761200 14.637953 36,975 50 424 0
2018-12-14 17:48:40 GMT 58.757488 14.629211 37,000 50 424 0
2018-12-14 17:48:37 GMT 58.753254 14.619324 37,000 50 424 0
2018-12-14 17:48:32 GMT 58.747250 14.605316 36,975 50 425 0
2018-12-14 17:48:29 GMT 58.742500 14.594238 37,000 50 425 0
2018-12-14 17:48:21 GMT 58.734165 14.574829 36,975 50 425 0
2018-12-14 17:48:18 GMT 58.729523 14.564061 36,975 50 425 0
2018-12-14 17:48:13 GMT 58.723042 14.548920 37,000 50 425 0
2018-12-14 17:48:09 GMT 58.718060 14.537292 37,000 50 425 0
2018-12-14 17:48:06 GMT 58.714554 14.529153 37,000 50 425 0
2018-12-14 17:48:00 GMT 58.707306 14.512299 37,000 50 426 0
2018-12-14 17:47:57 GMT 58.704300 14.505320 37,000 50 426 0
2018-12-14 17:47:54 GMT 58.699265 14.493713 37,000 50 426 0
2018-12-14 17:47:51 GMT 58.695530 14.485016 37,000 50 426 0
2018-12-14 17:47:47 GMT 58.690502 14.473389 37,000 50 426 0
2018-12-14 17:47:42 GMT 58.685074 14.460932 36,975 50 426 0
2018-12-14 17:47:39 GMT 58.681564 14.452789 36,975 50 426 0
2018-12-14 17:47:36 GMT 58.677422 14.443176 36,975 50 426 0
2018-12-14 17:47:32 GMT 58.672157 14.431000 36,975 50 426 0
2018-12-14 17:47:29 GMT 58.668365 14.422302 36,975 50 426 0
2018-12-14 17:47:25 GMT 58.659592 14.401978 36,975 50 426 0
2018-12-14 17:47:22 GMT 58.659592 14.401978 36,975 50 426 0
2018-12-14 17:47:19 GMT 58.655540 14.392639 36,975 50 427 0
2018-12-14 17:47:15 GMT 58.650234 14.380463 36,975 50 427 -64
2018-12-14 17:47:12 GMT 58.646439 14.371801 36,975 50 427 0
2018-12-14 17:47:08 GMT 58.641174 14.359574 37,000 50 428 0
2018-12-14 17:47:04 GMT 58.637619 14.351440 37,000 50 428 0
2018-12-14 17:47:01 GMT 58.632824 14.340454 36,975 50 428 0
2018-12-14 17:46:58 GMT 58.629684 14.333171 36,975 50 428 0
2018-12-14 17:46:55 GMT 58.624210 14.320679 36,975 50 428 0
2018-12-14 17:46:52 GMT 58.619797 14.310490 37,000 50 428 0
2018-12-14 17:46:48 GMT 58.616623 14.303192 37,000 50 428 0
2018-12-14 17:46:44 GMT 58.611465 14.291264 37,000 50 428 0
2018-12-14 17:46:38 GMT 58.603729 14.273544 36,975 50 428 64
2018-12-14 17:46:35 GMT 58.599792 14.264507 36,975 50 429 0
2018-12-14 17:46:31 GMT 58.594837 14.253204 37,000 50 429 0
2018-12-14 17:46:26 GMT 58.584686 14.229858 37,000 50 429 0
2018-12-14 17:46:23 GMT 58.584686 14.229858 37,000 50 429 0
2018-12-14 17:46:20 GMT 58.575935 14.209808 37,000 50 430 0
2018-12-14 17:46:16 GMT 58.575935 14.209808 37,000 50 430 0
2018-12-14 17:46:12 GMT 58.571514 14.199554 36,975 50 430 0
2018-12-14 17:46:08 GMT 58.565643 14.186185 37,000 50 430 0
2018-12-14 17:46:04 GMT 58.561203 14.175907 37,000 50 430 0
2018-12-14 17:46:01 GMT 58.555733 14.163391 37,000 50 430 0
2018-12-14 17:45:58 GMT 58.551403 14.153503 37,000 50 430 0
2018-12-14 17:45:54 GMT 58.544888 14.138580 37,000 50 431 0
2018-12-14 17:45:51 GMT 58.544888 14.138580 37,000 50 431 0
2018-12-14 17:45:48 GMT 58.535854 14.117798 36,975 50 432 0
2018-12-14 17:45:45 GMT 58.535854 14.117798 37,000 50 432 0
2018-12-14 17:45:42 GMT 58.531387 14.107544 36,975 50 432 0
2018-12-14 17:45:39 GMT 58.525890 14.095001 36,975 50 432 0
2018-12-14 17:45:33 GMT 58.521194 14.084118 37,000 50 433 0
2018-12-14 17:45:29 GMT 58.511353 14.061525 37,000 50 433 0
2018-12-14 17:45:26 GMT 58.511353 14.061525 37,000 50 433 0
2018-12-14 17:45:23 GMT 58.508434 14.054810 37,000 50 433 0
2018-12-14 17:45:19 GMT 58.500000 14.035477 37,000 50 433 0
2018-12-14 17:45:16 GMT 58.494747 14.023407 37,000 50 433 0
2018-12-14 17:45:12 GMT 58.494747 14.023407 37,000 50 433 0
2018-12-14 17:45:09 GMT 58.490524 14.013770 37,000 50 433 0
2018-12-14 17:45:05 GMT 58.485905 14.003174 36,975 50 434 0
2018-12-14 17:45:02 GMT 58.481899 13.994110 36,975 50 434 0
2018-12-14 17:44:59 GMT 58.476883 13.982672 37,000 50 434 0
2018-12-14 17:44:55 GMT 58.473007 13.973877 36,975 50 434 0
2018-12-14 17:44:52 GMT 58.469147 13.965129 37,000 50 434 0
2018-12-14 17:44:49 GMT 58.464294 13.953966 37,000 50 435 0
2018-12-14 17:44:45 GMT 58.459511 13.943115 37,000 50 435 0
2018-12-14 17:44:42 GMT 58.456158 13.935516 37,000 50 435 0
2018-12-14 17:44:38 GMT 58.450470 13.922602 37,000 50 435 0
2018-12-14 17:44:35 GMT 58.445450 13.911163 37,000 50 435 0
2018-12-14 17:44:32 GMT 58.442890 13.905212 37,000 50 435 0
2018-12-14 17:44:28 GMT 58.438202 13.894693 37,000 49 436 0
2018-12-14 17:44:25 GMT 58.433807 13.884681 37,000 49 436 0
2018-12-14 17:44:22 GMT 58.428505 13.872711 37,000 49 436 0
2018-12-14 17:44:18 GMT 58.424873 13.864471 37,000 49 436 0
2018-12-14 17:44:14 GMT 58.418495 13.850189 37,000 49 436 0
2018-12-14 17:44:10 GMT 58.414959 13.842224 37,000 49 437 0
2018-12-14 17:44:07 GMT 58.410675 13.832611 37,000 49 436 0
2018-12-14 17:44:03 GMT 58.405334 13.820624 37,000 49 436 0
2018-12-14 17:44:00 GMT 58.401306 13.811498 37,000 50 437 64
2018-12-14 17:43:57 GMT 58.397408 13.802765 37,000 49 436 64
2018-12-14 17:43:53 GMT 58.391075 13.788391 37,000 50 437 64
2018-12-14 17:43:50 GMT 58.388470 13.782440 37,000 50 437 0
2018-12-14 17:43:44 GMT 58.380695 13.764862 36,975 49 437 -64
2018-12-14 17:43:40 GMT 58.375759 13.753693 36,975 49 437 -64
2018-12-14 17:43:37 GMT 58.370827 13.742523 37,000 49 437 -64
2018-12-14 17:43:32 GMT 58.362446 13.723846 37,000 49 437 0
2018-12-14 17:43:29 GMT 58.359840 13.717987 37,000 49 437 64
2018-12-14 17:43:25 GMT 58.355896 13.709254 37,000 49 437 64
2018-12-14 17:43:22 GMT 58.352142 13.700749 37,000 49 437 64
2018-12-14 17:43:19 GMT 58.348343 13.692332 37,000 49 437 0
2018-12-14 17:43:16 GMT 58.344543 13.683826 37,000 49 437 0
2018-12-14 17:43:10 GMT 58.335251 13.663094 36,975 49 437 0
2018-12-14 17:43:06 GMT 58.330421 13.652252 36,975 49 437 0
2018-12-14 17:43:00 GMT 58.322433 13.634476 36,975 49 437 0
2018-12-14 17:42:56 GMT 58.317337 13.623047 37,000 49 437 0
2018-12-14 17:42:52 GMT 58.313290 13.613983 37,000 49 437 0
2018-12-14 17:42:49 GMT 58.308308 13.602814 37,000 49 438 0
2018-12-14 17:42:45 GMT 58.302582 13.589905 37,000 49 438 0
2018-12-14 17:42:42 GMT 58.298813 13.581482 37,000 49 437 0
2018-12-14 17:42:39 GMT 58.295792 13.574672 37,000 49 437 0
2018-12-14 17:42:36 GMT 58.290482 13.562711 37,000 49 437 0
2018-12-14 17:42:31 GMT 58.285126 13.550629 37,000 49 438 0
2018-12-14 17:42:28 GMT 58.281727 13.543030 37,000 49 438 0
2018-12-14 17:42:24 GMT 58.276138 13.530396 37,000 49 438 0
2018-12-14 17:42:21 GMT 58.272091 13.521332 37,000 49 438 0
2018-12-14 17:42:18 GMT 58.268555 13.513449 37,000 49 438 0
2018-12-14 17:42:15 GMT 58.263988 13.503204 37,000 49 438 0
2018-12-14 17:42:12 GMT 58.258850 13.491831 37,000 49 438 0
2018-12-14 17:42:07 GMT 58.254547 13.482174 37,000 49 438 0
2018-12-14 17:42:04 GMT 58.250748 13.473757 37,000 49 438 0
2018-12-14 17:42:01 GMT 58.241135 13.452493 37,000 49 438 0
2018-12-14 17:41:58 GMT 58.241135 13.452493 37,000 49 438 0
2018-12-14 17:41:54 GMT 58.237175 13.443787 37,000 49 438 64
2018-12-14 17:41:50 GMT 58.230938 13.430145 37,000 49 438 64
2018-12-14 17:41:47 GMT 58.227818 13.423187 37,000 49 438 64
2018-12-14 17:41:43 GMT 58.222916 13.412446 36,975 49 438 0
2018-12-14 17:41:40 GMT 58.217812 13.401123 36,975 49 438 0
2018-12-14 17:41:37 GMT 58.214363 13.393524 36,975 49 438 0
2018-12-14 17:41:34 GMT 58.210052 13.383917 37,000 49 438 0
2018-12-14 17:41:29 GMT 58.200817 13.363586 36,975 49 438 -64
2018-12-14 17:41:23 GMT 58.195953 13.352819 36,975 49 438 -64
2018-12-14 17:41:20 GMT 58.191879 13.343870 37,000 49 438 0
2018-12-14 17:41:17 GMT 58.187256 13.333770 37,000 48 438 0
2018-12-14 17:41:14 GMT 58.184059 13.326782 37,000 48 438 0
2018-12-14 17:41:08 GMT 58.176086 13.309494 37,000 48 438 0
2018-12-14 17:41:04 GMT 58.170776 13.297976 37,000 48 438 64
2018-12-14 17:41:00 GMT 58.164230 13.283800 36,975 48 438 0
2018-12-14 17:40:54 GMT 58.150494 13.253815 36,975 49 438 0
2018-12-14 17:40:49 GMT 58.146118 13.244202 37,000 49 438 0
2018-12-14 17:40:46 GMT 58.146118 13.244202 37,000 49 438 0
2018-12-14 17:40:39 GMT 58.132713 13.214630 37,000 49 438 0
2018-12-14 17:40:35 GMT 58.132713 13.214630 37,000 49 438 0
2018-12-14 17:40:27 GMT 58.121933 13.190948 37,000 49 437 0
2018-12-14 17:40:23 GMT 58.117310 13.180759 37,000 49 438 0
2018-12-14 17:40:17 GMT 58.107330 13.158786 37,000 49 438 0
2018-12-14 17:40:13 GMT 58.104034 13.151550 37,000 49 438 0
2018-12-14 17:40:06 GMT 58.094604 13.130611 36,975 49 437 0
2018-12-14 17:40:03 GMT 58.090397 13.121338 36,975 49 437 0
2018-12-14 17:39:57 GMT 58.082577 13.103943 37,000 49 437 0
2018-12-14 17:39:53 GMT 58.076942 13.091492 37,000 49 438 0
2018-12-14 17:39:46 GMT 58.067680 13.070892 36,975 49 437 0
2018-12-14 17:39:42 GMT 58.063202 13.060972 36,975 49 437 0
2018-12-14 17:39:35 GMT 58.053909 13.040417 37,000 49 438 0
2018-12-14 17:39:32 GMT 58.048645 13.028899 37,000 49 437 0
2018-12-14 17:39:24 GMT 58.040085 13.010116 37,000 49 438 0
2018-12-14 17:39:21 GMT 58.034672 12.998291 37,000 49 438 -64
2018-12-14 17:39:15 GMT 58.026077 12.979638 37,000 48 438 0
2018-12-14 17:39:12 GMT 58.019310 12.964966 37,000 48 438 0
2018-12-14 17:39:09 GMT 58.019310 12.964966 37,000 48 438 64
2018-12-14 17:39:06 GMT 58.016006 12.957842 36,975 49 438 64
2018-12-14 17:39:03 GMT 58.010971 12.946945 36,975 49 438 64
2018-12-14 17:38:59 GMT 58.006088 12.936310 36,975 49 438 0
2018-12-14 17:38:54 GMT 57.999340 12.921570 36,975 48 438 0
2018-12-14 17:38:51 GMT 57.995243 12.912689 36,975 48 438 0
2018-12-14 17:38:48 GMT 57.991798 12.905182 36,975 48 438 0
2018-12-14 17:38:42 GMT 57.976856 12.873230 37,000 48 438 0
2018-12-14 17:38:38 GMT 57.976856 12.873230 37,000 48 437 -64
2018-12-14 17:38:33 GMT 57.971920 12.862610 37,000 48 437 0
2018-12-14 17:38:30 GMT 57.967636 12.853546 37,000 48 438 0
2018-12-14 17:38:27 GMT 57.963638 12.844967 37,000 48 438 64
2018-12-14 17:38:22 GMT 57.956234 12.828918 37,000 49 438 64
2018-12-14 17:38:19 GMT 57.953705 12.823437 37,000 48 438 0
2018-12-14 17:38:15 GMT 57.947109 12.809052 37,000 49 438 0
2018-12-14 17:38:09 GMT 57.940639 12.794952 37,000 49 438 0
2018-12-14 17:38:05 GMT 57.933002 12.778198 37,000 49 438 0
2018-12-14 17:38:02 GMT 57.926743 12.764784 37,000 48 438 0
2018-12-14 17:37:59 GMT 57.926743 12.764784 37,000 48 438 0
2018-12-14 17:37:53 GMT 57.918777 12.747596 37,000 48 438 0
2018-12-14 17:37:49 GMT 57.912937 12.734985 36,975 48 438 0
2018-12-14 17:37:44 GMT 57.905628 12.719330 37,000 48 437 0
2018-12-14 17:37:40 GMT 57.901768 12.711090 37,000 48 437 0
2018-12-14 17:37:37 GMT 57.897766 12.702499 37,000 48 437 0
2018-12-14 17:37:33 GMT 57.891895 12.689941 36,975 48 437 0
2018-12-14 17:37:28 GMT 57.885380 12.676025 36,975 48 437 0
2018-12-14 17:37:23 GMT 57.878448 12.661212 37,000 48 437 0
2018-12-14 17:37:18 GMT 57.871738 12.647003 37,000 48 437 0
2018-12-14 17:37:11 GMT 57.862572 12.627411 37,000 48 437 0
2018-12-14 17:37:08 GMT 57.858078 12.617709 37,000 48 437 0
2018-12-14 17:37:00 GMT 57.848232 12.596558 37,000 48 437 64
2018-12-14 17:36:57 GMT 57.844414 12.588318 37,000 48 437 0
2018-12-14 17:36:52 GMT 57.837524 12.573486 37,000 48 437 0
2018-12-14 17:36:49 GMT 57.833679 12.565258 37,000 48 436 0
2018-12-14 17:36:42 GMT 57.824158 12.544703 37,000 48 436 0
2018-12-14 17:36:39 GMT 57.820312 12.536464 37,000 48 436 0
2018-12-14 17:36:36 GMT 57.816341 12.527985 37,000 48 436 0
2018-12-14 17:36:29 GMT 57.806149 12.506104 37,000 48 436 0
2018-12-14 17:36:26 GMT 57.802841 12.499054 37,000 48 436 64
2018-12-14 17:36:21 GMT 57.796600 12.485696 37,000 48 436 0
2018-12-14 17:36:16 GMT 57.788635 12.468685 36,975 48 435 0
2018-12-14 17:36:11 GMT 57.783199 12.457031 37,000 48 435 0
2018-12-14 17:36:05 GMT 57.774994 12.439447 37,000 48 436 0
2018-12-14 17:35:58 GMT 57.764786 12.417652 36,975 48 436 0
2018-12-14 17:35:55 GMT 57.760941 12.409501 36,975 48 435 0
2018-12-14 17:35:50 GMT 57.755630 12.398248 36,975 48 436 0
2018-12-14 17:35:47 GMT 57.750706 12.387817 36,975 48 435 0
2018-12-14 17:35:44 GMT 57.747120 12.380219 36,975 48 435 0
2018-12-14 17:35:40 GMT 57.742584 12.370605 36,975 48 435 0
2018-12-14 17:35:36 GMT 57.735352 12.355455 37,000 48 435 0
2018-12-14 17:35:29 GMT 57.728027 12.340039 36,975 48 435 0
2018-12-14 17:35:26 GMT 57.723907 12.331381 37,000 48 435 0
2018-12-14 17:35:23 GMT 57.719330 12.321768 37,000 48 435 0
2018-12-14 17:35:19 GMT 57.714432 12.311382 37,000 48 435 0
2018-12-14 17:35:16 GMT 57.709740 12.301587 37,000 48 435 0
2018-12-14 17:35:13 GMT 57.705505 12.292585 37,000 48 434 0
2018-12-14 17:35:09 GMT 57.700939 12.283069 37,000 48 435 0
2018-12-14 17:35:06 GMT 57.695866 12.272437 37,000 48 434 0
2018-12-14 17:35:03 GMT 57.690903 12.262115 37,000 48 434 0
2018-12-14 17:34:59 GMT 57.687424 12.254906 36,975 48 435 0
2018-12-14 17:34:55 GMT 57.682224 12.243997 36,975 48 434 0
2018-12-14 17:34:52 GMT 57.678082 12.235314 36,975 48 434 0
2018-12-14 17:34:48 GMT 57.673286 12.225214 36,975 48 435 0
2018-12-14 17:34:45 GMT 57.668610 12.215424 36,975 48 435 0
2018-12-14 17:34:42 GMT 57.664490 12.206755 36,975 48 434 64
2018-12-14 17:34:39 GMT 57.659546 12.196369 36,975 48 434 64
2018-12-14 17:34:32 GMT 57.650246 12.176750 36,975 48 435 0
2018-12-14 17:34:27 GMT 57.645355 12.166328 36,975 48 435 0
2018-12-14 17:34:24 GMT 57.639771 12.154570 36,975 48 435 0
2018-12-14 17:34:20 GMT 57.634602 12.143614 36,975 48 435 0
2018-12-14 17:34:17 GMT 57.632126 12.138262 37,000 48 435 0
2018-12-14 17:34:11 GMT 57.623520 12.120066 37,000 48 435 0
2018-12-14 17:34:07 GMT 57.618851 12.110195 37,000 48 435 0
2018-12-14 17:34:01 GMT 57.609325 12.090011 37,000 48 434 0
2018-12-14 17:33:57 GMT 57.604809 12.080531 37,000 48 434 0
2018-12-14 17:33:53 GMT 57.599224 12.068747 37,000 48 434 0
2018-12-14 17:33:50 GMT 57.595406 12.060685 37,000 48 434 0
2018-12-14 17:33:47 GMT 57.591797 12.053118 37,000 48 434 0
2018-12-14 17:33:43 GMT 57.587166 12.043319 37,000 48 434 0
2018-12-14 17:33:40 GMT 57.581680 12.031918 37,000 47 434 0
2018-12-14 17:33:34 GMT 57.574738 12.017448 37,000 48 434 0
2018-12-14 17:33:30 GMT 57.569275 12.006083 37,000 47 434 0
2018-12-14 17:33:27 GMT 57.563751 11.994767 37,000 47 434 0
2018-12-14 17:33:22 GMT 57.554070 11.974920 37,000 47 434 0
2018-12-14 17:33:14 GMT 57.547028 11.960506 36,975 47 434 0
2018-12-14 17:33:11 GMT 57.543549 11.953382 36,975 47 434 0
2018-12-14 17:33:08 GMT 57.539612 11.945400 36,975 47 434 0
2018-12-14 17:33:04 GMT 57.532887 11.931595 36,975 47 434 0
2018-12-14 17:33:01 GMT 57.530045 11.925831 36,975 47 434 0
2018-12-14 17:32:58 GMT 57.525742 11.916990 36,975 47 434 0
2018-12-14 17:32:54 GMT 57.521156 11.907673 36,975 47 434 0
2018-12-14 17:32:51 GMT 57.516129 11.897421 36,975 47 434 0
2018-12-14 17:32:48 GMT 57.511139 11.887293 36,975 47 434 0
2018-12-14 17:32:44 GMT 57.507095 11.879056 36,975 47 434 0
2018-12-14 17:32:40 GMT 57.501801 11.868324 37,000 47 434 0
2018-12-14 17:32:37 GMT 57.497742 11.860096 37,000 47 433 0
2018-12-14 17:32:33 GMT 57.492508 11.849356 37,000 47 434 0
2018-12-14 17:32:30 GMT 57.488342 11.840858 37,000 47 433 0
2018-12-14 17:32:27 GMT 57.483765 11.831503 37,000 47 433 0
2018-12-14 17:32:23 GMT 57.479324 11.822405 37,000 47 434 0
2018-12-14 17:32:20 GMT 57.474426 11.812534 37,000 47 434 0
2018-12-14 17:32:17 GMT 57.470135 11.803746 37,000 47 434 0
2018-12-14 17:32:13 GMT 57.465546 11.794424 37,000 47 433 0
2018-12-14 17:32:10 GMT 57.460033 11.783191 37,000 47 434 0
2018-12-14 17:32:04 GMT 57.451630 11.766186 37,000 47 433 0
2018-12-14 17:31:59 GMT 57.446365 11.755457 37,000 47 433 0
2018-12-14 17:31:53 GMT 57.438309 11.739063 36,975 47 433 0
2018-12-14 17:31:49 GMT 57.431717 11.725674 37,000 47 433 0
2018-12-14 17:31:46 GMT 57.427780 11.717691 37,000 47 433 0
2018-12-14 17:31:42 GMT 57.423721 11.709477 37,000 47 433 0
2018-12-14 17:31:38 GMT 57.417252 11.696405 37,000 47 433 0
2018-12-14 17:31:35 GMT 57.413479 11.688833 37,000 47 433 0
2018-12-14 17:31:31 GMT 57.408463 11.678724 37,000 47 433 0
2018-12-14 17:31:28 GMT 57.404251 11.670313 37,000 47 433 0
2018-12-14 17:31:25 GMT 57.399654 11.661013 37,000 47 433 0
2018-12-14 17:31:21 GMT 57.392487 11.646660 37,000 47 433 0
2018-12-14 17:31:17 GMT 57.390343 11.642318 37,000 47 433 0
2018-12-14 17:31:14 GMT 57.385178 11.631952 37,000 47 433 0
2018-12-14 17:31:08 GMT 57.376099 11.613789 37,000 47 432 0
2018-12-14 17:31:03 GMT 57.371384 11.604309 37,000 47 432 0
2018-12-14 17:31:00 GMT 57.366623 11.594868 37,000 47 433 0
2018-12-14 17:30:57 GMT 57.362179 11.585880 37,000 47 432 0
2018-12-14 17:30:53 GMT 57.356777 11.575071 37,000 47 432 0
2018-12-14 17:30:50 GMT 57.352032 11.565591 37,000 47 432 0
2018-12-14 17:30:46 GMT 57.348221 11.558046 37,000 47 432 0
2018-12-14 17:30:43 GMT 57.343094 11.547747 37,000 47 432 0
2018-12-14 17:30:36 GMT 57.333984 11.529722 37,000 47 431 0
2018-12-14 17:30:33 GMT 57.329918 11.521557 37,000 47 431 0
2018-12-14 17:30:30 GMT 57.324509 11.510839 37,000 47 431 0
2018-12-14 17:30:25 GMT 57.319611 11.501141 37,000 47 431 0
2018-12-14 17:30:22 GMT 57.315533 11.493028 37,000 47 431 0
2018-12-14 17:30:19 GMT 57.310822 11.483631 37,000 47 431 0
2018-12-14 17:30:15 GMT 57.305374 11.472816 37,000 47 431 0
2018-12-14 17:30:12 GMT 57.301437 11.465006 37,000 47 431 0
2018-12-14 17:30:09 GMT 57.296173 11.454535 37,000 47 431 0
2018-12-14 17:30:05 GMT 57.291420 11.445096 37,000 47 431 0
2018-12-14 17:30:01 GMT 57.286671 11.435704 37,000 47 430 0
2018-12-14 17:29:58 GMT 57.282482 11.427376 37,000 47 430 0
2018-12-14 17:29:54 GMT 57.277084 11.416597 37,000 47 431 0
2018-12-14 17:29:51 GMT 57.272095 11.406641 36,975 47 431 0
2018-12-14 17:29:47 GMT 57.268158 11.398830 37,000 47 431 0
2018-12-14 17:29:44 GMT 57.263580 11.389647 37,000 47 430 0
2018-12-14 17:29:40 GMT 57.254272 11.371027 37,000 47 430 0
2018-12-14 17:29:32 GMT 57.247147 11.356773 37,000 47 430 64
2018-12-14 17:29:28 GMT 57.240120 11.342852 37,000 47 430 0
2018-12-14 17:29:24 GMT 57.236210 11.335055 37,000 47 430 0
2018-12-14 17:29:21 GMT 57.227737 11.318150 37,000 47 430 0
2018-12-14 17:29:18 GMT 57.227737 11.318150 37,000 47 430 0
2018-12-14 17:29:12 GMT 57.220551 11.303902 37,000 47 430 0
2018-12-14 17:29:09 GMT 57.211395 11.285706 37,000 46 430 0
2018-12-14 17:29:06 GMT 57.211395 11.285706 37,000 46 430 0
2018-12-14 17:29:02 GMT 57.206085 11.275320 37,000 46 430 0
2018-12-14 17:28:57 GMT 57.200958 11.265192 37,000 46 430 0
2018-12-14 17:28:54 GMT 57.195786 11.255064 36,975 46 429 0
2018-12-14 17:28:51 GMT 57.191753 11.247076 37,000 46 429 0
2018-12-14 17:28:48 GMT 57.187515 11.238836 37,000 46 429 0
2018-12-14 17:28:43 GMT 57.180626 11.225281 37,000 46 429 0
2018-12-14 17:28:40 GMT 57.177925 11.219876 37,000 46 429 0
2018-12-14 17:28:37 GMT 57.171432 11.207170 37,000 46 429 0
2018-12-14 17:28:34 GMT 57.168056 11.200473 37,000 46 429 0
2018-12-14 17:28:31 GMT 57.163971 11.192493 37,000 46 429 0
2018-12-14 17:28:28 GMT 57.159260 11.183196 37,000 46 429 0
2018-12-14 17:28:22 GMT 57.153442 11.171722 37,000 46 429 0
2018-12-14 17:28:19 GMT 57.149826 11.164598 37,000 46 429 0
2018-12-14 17:28:16 GMT 57.145615 11.156359 37,000 47 428 0
2018-12-14 17:28:12 GMT 57.138588 11.142529 36,975 46 428 0
2018-12-14 17:28:07 GMT 57.131195 11.127863 37,000 46 428 0
2018-12-14 17:27:59 GMT 57.121784 11.109304 37,000 46 428 0
2018-12-14 17:27:56 GMT 57.116638 11.099195 37,000 46 428 0
2018-12-14 17:27:52 GMT 57.111404 11.088838 37,000 47 428 0
2018-12-14 17:27:48 GMT 57.106838 11.079801 37,000 47 428 0
2018-12-14 17:27:44 GMT 57.101860 11.069966 37,000 47 427 0
2018-12-14 17:27:41 GMT 57.097824 11.062031 37,000 46 428 0
2018-12-14 17:27:38 GMT 57.093933 11.054306 37,000 46 428 0
2018-12-14 17:27:34 GMT 57.088806 11.044264 37,000 46 427 0
2018-12-14 17:27:31 GMT 57.083843 11.034438 37,000 46 428 0
2018-12-14 17:27:28 GMT 57.079933 11.026818 37,000 46 428 0
2018-12-14 17:27:24 GMT 57.074661 11.016541 37,000 46 428 0
2018-12-14 17:27:20 GMT 57.066010 10.999632 37,000 46 427 0
2018-12-14 17:27:17 GMT 57.066010 10.999632 37,000 46 427 0
2018-12-14 17:27:14 GMT 57.060242 10.988277 36,975 46 427 0
2018-12-14 17:27:11 GMT 57.055939 10.979805 37,000 46 427 0
2018-12-14 17:27:06 GMT 57.051224 10.970535 37,000 46 427 0
2018-12-14 17:27:03 GMT 57.046509 10.961266 37,000 46 427 0
2018-12-14 17:27:00 GMT 57.043167 10.954657 37,000 46 427 0
2018-12-14 17:26:57 GMT 57.032135 10.933113 37,000 46 427 0
2018-12-14 17:26:53 GMT 57.032135 10.933113 37,000 46 427 0
2018-12-14 17:26:47 GMT 57.024162 10.917486 36,975 46 426 0
2018-12-14 17:26:43 GMT 57.019592 10.908566 37,000 46 426 -64
2018-12-14 17:26:40 GMT 57.015598 10.900652 37,000 46 426 0
2018-12-14 17:26:36 GMT 57.005264 10.880327 37,000 46 426 0
2018-12-14 17:26:32 GMT 57.000561 10.871060 37,000 46 426 0
2018-12-14 17:26:29 GMT 57.000561 10.871060 37,000 46 426 0
2018-12-14 17:26:25 GMT 56.995056 10.860243 37,000 46 426 0
2018-12-14 17:26:22 GMT 56.989807 10.849974 37,000 46 426 0
2018-12-14 17:26:19 GMT 56.987106 10.844746 37,000 46 426 0
2018-12-14 17:26:14 GMT 56.977287 10.825520 37,000 46 426 0
2018-12-14 17:26:07 GMT 56.970566 10.812435 37,000 46 426 0
2018-12-14 17:26:04 GMT 56.967091 10.805585 37,000 46 426 0
2018-12-14 17:26:01 GMT 56.963833 10.799295 37,000 46 426 0
2018-12-14 17:25:57 GMT 56.957382 10.786686 36,975 46 427 0
2018-12-14 17:25:54 GMT 56.953079 10.778297 36,975 46 426 0
2018-12-14 17:25:49 GMT 56.947632 10.767842 36,975 46 427 0
2018-12-14 17:25:46 GMT 56.943054 10.758963 36,975 46 427 0
2018-12-14 17:25:43 GMT 56.938972 10.751097 37,000 46 426 0
2018-12-14 17:25:39 GMT 56.933395 10.740423 37,000 46 426 0
2018-12-14 17:25:36 GMT 56.928543 10.731068 36,975 46 427 0
2018-12-14 17:25:33 GMT 56.925247 10.724802 36,975 46 427 0
2018-12-14 17:25:30 GMT 56.921585 10.717764 36,975 46 427 0
2018-12-14 17:25:27 GMT 56.916687 10.708408 36,975 46 427 0
2018-12-14 17:25:23 GMT 56.910854 10.697140 36,975 46 427 0
2018-12-14 17:25:20 GMT 56.908386 10.692532 37,000 46 427 0
2018-12-14 17:25:13 GMT 56.897915 10.672509 37,000 46 427 0
2018-12-14 17:25:10 GMT 56.893799 10.664635 36,975 46 427 0
2018-12-14 17:25:07 GMT 56.890141 10.657624 37,000 46 427 0
2018-12-14 17:25:03 GMT 56.883728 10.645409 37,000 46 427 0
2018-12-14 17:25:00 GMT 56.879944 10.638132 37,000 46 427 0
2018-12-14 17:24:56 GMT 56.875580 10.629702 37,000 46 427 0
2018-12-14 17:24:53 GMT 56.870178 10.619316 37,000 46 427 0
2018-12-14 17:24:47 GMT 56.862305 10.604210 37,000 46 427 0
2018-12-14 17:24:44 GMT 56.858482 10.596845 37,000 46 427 0
2018-12-14 17:24:41 GMT 56.854294 10.588783 37,000 46 427 0
2018-12-14 17:24:38 GMT 56.849121 10.578890 37,000 46 427 0
2018-12-14 17:24:34 GMT 56.844772 10.570478 37,000 46 427 0
2018-12-14 17:24:29 GMT 56.830833 10.543597 36,975 46 427 0
2018-12-14 17:24:23 GMT 56.830833 10.543597 36,975 46 427 0
2018-12-14 17:24:19 GMT 56.823074 10.528679 37,000 46 427 0
2018-12-14 17:24:15 GMT 56.819824 10.522413 37,000 46 427 0
2018-12-14 17:24:12 GMT 56.814957 10.513030 37,000 46 427 0
2018-12-14 17:24:08 GMT 56.810074 10.503616 37,000 46 427 0
2018-12-14 17:24:05 GMT 56.805973 10.495753 37,000 46 427 0
2018-12-14 17:24:02 GMT 56.800854 10.485830 37,000 46 427 0
2018-12-14 17:23:58 GMT 56.795963 10.476438 37,000 46 427 0
2018-12-14 17:23:53 GMT 56.789108 10.463448 37,000 46 428 0
2018-12-14 17:23:48 GMT 56.780685 10.447311 37,000 46 427 0
2018-12-14 17:23:43 GMT 56.774410 10.435328 37,000 46 427 0
2018-12-14 17:23:39 GMT 56.770203 10.427227 37,000 46 428 0
2018-12-14 17:23:36 GMT 56.766777 10.420709 37,000 46 428 0
2018-12-14 17:23:32 GMT 56.760956 10.409460 37,000 46 428 0
2018-12-14 17:23:28 GMT 56.747086 10.382877 37,000 46 427 0
2018-12-14 17:23:22 GMT 56.747086 10.382877 37,000 46 428 0
2018-12-14 17:23:16 GMT 56.738892 10.367373 37,000 46 427 0
2018-12-14 17:23:12 GMT 56.733032 10.356159 37,000 46 428 0
2018-12-14 17:23:07 GMT 56.726601 10.343982 37,000 46 428 0
2018-12-14 17:23:04 GMT 56.721817 10.334959 37,000 46 428 0
2018-12-14 17:23:00 GMT 56.717663 10.327148 37,000 46 428 0
2018-12-14 17:22:57 GMT 56.706985 10.306978 37,000 45 428 0
2018-12-14 17:22:53 GMT 56.706985 10.306978 37,000 45 428 0
2018-12-14 17:22:48 GMT 56.698746 10.291529 37,000 45 428 0
2018-12-14 17:22:45 GMT 56.696823 10.287838 37,000 45 428 0
2018-12-14 17:22:39 GMT 56.688034 10.271358 37,000 45 428 0
2018-12-14 17:22:35 GMT 56.681763 10.259514 37,000 46 427 0
2018-12-14 17:22:31 GMT 56.677780 10.251961 37,000 46 428 0
2018-12-14 17:22:28 GMT 56.673660 10.244236 37,000 46 428 0
2018-12-14 17:22:24 GMT 56.666271 10.230221 37,000 46 428 0
2018-12-14 17:22:19 GMT 56.661522 10.221184 37,000 46 428 0
2018-12-14 17:22:14 GMT 56.654121 10.207185 37,000 46 428 64
2018-12-14 17:22:10 GMT 56.648811 10.197084 36,975 46 428 0
2018-12-14 17:22:06 GMT 56.641525 10.183382 36,975 46 428 0
2018-12-14 17:21:59 GMT 56.633450 10.168112 37,000 46 427 0
2018-12-14 17:21:56 GMT 56.629353 10.160316 37,000 46 427 0
2018-12-14 17:21:49 GMT 56.620285 10.143299 37,000 45 428 0
2018-12-14 17:21:45 GMT 56.610580 10.125017 37,000 45 428 0
2018-12-14 17:21:39 GMT 56.604950 10.114460 37,000 45 428 0
2018-12-14 17:21:35 GMT 56.599838 10.104941 37,000 45 428 0
2018-12-14 17:21:29 GMT 56.592041 10.090277 37,000 45 428 0
2018-12-14 17:21:23 GMT 56.583408 10.074034 37,000 45 428 0
2018-12-14 17:21:18 GMT 56.577759 10.063477 36,975 45 428 0
2018-12-14 17:21:14 GMT 56.571991 10.052740 37,000 44 427 -64
2018-12-14 17:21:08 GMT 56.563110 10.036011 37,000 46 428 0
2018-12-14 17:21:05 GMT 56.560226 10.030518 37,000 45 427 -64
2018-12-14 17:21:02 GMT 56.554459 10.019781 37,000 45 427 -64
2018-12-14 17:20:58 GMT 56.549377 10.010792 37,000 42 427 -64
2018-12-14 17:20:52 GMT 56.541744 9.997902 37,000 41 427 -64
2018-12-14 17:20:48 GMT 56.533688 9.985199 37,000 39 427 -64
2018-12-14 17:20:41 GMT 56.522781 9.969344 37,000 37 428 0
2018-12-14 17:20:35 GMT 56.515869 9.959856 37,000 37 428 0
2018-12-14 17:20:30 GMT 56.507061 9.947777 37,000 37 427 0
2018-12-14 17:20:26 GMT 56.500626 9.938882 36,975 37 428 0
2018-12-14 17:20:23 GMT 56.496185 9.932889 36,975 36 429 0
2018-12-14 17:20:20 GMT 56.490025 9.924517 37,000 37 428 0
2018-12-14 17:20:15 GMT 56.484203 9.916620 37,000 37 428 0
2018-12-14 17:20:11 GMT 56.476959 9.906672 37,000 37 428 0
2018-12-14 17:20:08 GMT 56.469543 9.896601 36,975 37 428 0
2018-12-14 17:20:05 GMT 56.467819 9.894218 37,000 37 428 0
2018-12-14 17:20:01 GMT 56.461208 9.885120 37,000 37 428 0
2018-12-14 17:19:57 GMT 56.454597 9.876108 37,000 37 428 0
2018-12-14 17:19:54 GMT 56.451153 9.871302 37,000 37 428 0
2018-12-14 17:19:50 GMT 56.444870 9.862643 37,000 37 428 0
2018-12-14 17:19:47 GMT 56.439186 9.854908 37,000 37 428 0
2018-12-14 17:19:44 GMT 56.434162 9.848042 37,000 37 428 0
2018-12-14 17:19:40 GMT 56.428299 9.840088 37,000 37 428 0
2018-12-14 17:19:37 GMT 56.423767 9.833846 37,000 37 428 0
2018-12-14 17:19:34 GMT 56.417770 9.825689 37,000 37 429 0
2018-12-14 17:19:31 GMT 56.413956 9.820490 37,000 37 429 0
2018-12-14 17:19:28 GMT 56.409859 9.814911 37,000 37 429 0
2018-12-14 17:19:25 GMT 56.403713 9.806499 37,000 36 430 0
2018-12-14 17:19:22 GMT 56.400085 9.801521 37,000 36 429 0
2018-12-14 17:19:19 GMT 56.393753 9.792938 37,000 36 429 0
2018-12-14 17:19:12 GMT 56.384262 9.780079 37,000 36 429 0
2018-12-14 17:19:09 GMT 56.379501 9.773671 37,000 36 429 0
2018-12-14 17:19:06 GMT 56.373363 9.765301 37,000 36 429 0
2018-12-14 17:18:58 GMT 56.362747 9.750949 37,000 36 430 0
2018-12-14 17:18:55 GMT 56.357346 9.743625 37,000 36 430 0
2018-12-14 17:18:52 GMT 56.350983 9.735052 37,000 36 429 0
2018-12-14 17:18:48 GMT 56.344826 9.726763 37,000 36 430 0
2018-12-14 17:18:44 GMT 56.338623 9.718156 37,000 36 430 0
2018-12-14 17:18:41 GMT 56.335934 9.714746 36,975 36 430 0
2018-12-14 17:18:38 GMT 56.329884 9.706678 36,975 36 430 0
2018-12-14 17:18:34 GMT 56.324295 9.699180 37,000 36 430 0
2018-12-14 17:18:30 GMT 56.318432 9.691315 37,000 36 430 0
2018-12-14 17:18:26 GMT 56.311729 9.682302 37,000 36 430 0
2018-12-14 17:18:23 GMT 56.306980 9.675951 37,000 36 430 0
2018-12-14 17:18:20 GMT 56.294552 9.659300 37,000 36 430 0
2018-12-14 17:18:15 GMT 56.294552 9.659300 37,000 36 430 0
2018-12-14 17:18:12 GMT 56.288826 9.651575 37,000 36 430 0
2018-12-14 17:18:09 GMT 56.284241 9.645413 37,000 36 430 0
2018-12-14 17:18:05 GMT 56.277885 9.636812 37,000 36 430 0
2018-12-14 17:18:02 GMT 56.266106 9.621019 37,000 36 430 0
2018-12-14 17:17:59 GMT 56.266106 9.621019 36,975 36 431 0
2018-12-14 17:17:54 GMT 56.261353 9.614618 36,975 36 431 0
2018-12-14 17:17:51 GMT 56.255772 9.607115 36,975 36 431 0
2018-12-14 17:17:47 GMT 56.248306 9.597057 36,975 36 431 0
2018-12-14 17:17:44 GMT 56.244972 9.592524 36,975 36 431 0
2018-12-14 17:17:41 GMT 56.240341 9.586320 36,975 36 431 0
2018-12-14 17:17:37 GMT 56.233658 9.577332 36,975 36 431 0
2018-12-14 17:17:34 GMT 56.228210 9.570091 36,975 36 431 0
2018-12-14 17:17:31 GMT 56.223450 9.563682 36,975 36 431 0
2018-12-14 17:17:26 GMT 56.214157 9.551364 36,975 36 431 0
2018-12-14 17:17:23 GMT 56.210312 9.546204 36,975 36 432 0
2018-12-14 17:17:20 GMT 56.205357 9.539652 37,000 36 432 0
2018-12-14 17:17:14 GMT 56.190086 9.519482 37,000 36 432 0
2018-12-14 17:17:10 GMT 56.182407 9.509268 37,000 36 432 0
2018-12-14 17:17:06 GMT 56.178867 9.504547 37,000 36 432 0
2018-12-14 17:17:03 GMT 56.173748 9.497766 37,000 36 432 0
2018-12-14 17:16:55 GMT 56.164158 9.484978 37,000 36 433 0
2018-12-14 17:16:49 GMT 56.156288 9.474506 37,000 36 433 0
2018-12-14 17:16:43 GMT 56.146225 9.461060 37,000 36 433 0
2018-12-14 17:16:40 GMT 56.142185 9.455709 37,000 36 433 0
2018-12-14 17:16:37 GMT 56.132084 9.442234 37,000 36 433 0
2018-12-14 17:16:34 GMT 56.132084 9.442234 37,000 36 433 0
2018-12-14 17:16:28 GMT 56.115921 9.420693 37,000 36 433 0
2018-12-14 17:16:24 GMT 56.115921 9.420693 37,000 36 433 0
2018-12-14 17:16:21 GMT 56.112213 9.415783 37,000 36 433 0
2018-12-14 17:16:18 GMT 56.094933 9.392624 37,000 36 433 0
2018-12-14 17:16:11 GMT 56.094933 9.392624 37,000 36 433 0
2018-12-14 17:16:07 GMT 56.079014 9.371510 37,000 36 433 0
2018-12-14 17:16:02 GMT 56.079014 9.371510 37,000 36 433 0
2018-12-14 17:15:59 GMT 56.076141 9.367676 37,000 36 433 0
2018-12-14 17:15:55 GMT 56.064423 9.352029 37,000 36 434 0
2018-12-14 17:15:52 GMT 56.064423 9.352029 37,000 36 433 0
2018-12-14 17:15:49 GMT 56.059464 9.345417 36,975 36 433 0
2018-12-14 17:15:43 GMT 56.049500 9.332220 37,000 36 433 0
2018-12-14 17:15:39 GMT 56.042267 9.322648 36,975 36 434 0
2018-12-14 17:15:36 GMT 56.032276 9.309454 37,000 36 434 0
2018-12-14 17:15:32 GMT 56.032276 9.309454 37,000 36 434 0
2018-12-14 17:15:29 GMT 56.021011 9.294519 37,000 36 434 0
2018-12-14 17:15:26 GMT 56.021011 9.294519 37,000 36 434 0
2018-12-14 17:15:20 GMT 56.013290 9.284363 37,000 36 434 0
2018-12-14 17:15:17 GMT 56.007648 9.276924 37,000 36 434 0
2018-12-14 17:15:14 GMT 56.004272 9.272461 37,000 36 434 0
2018-12-14 17:15:10 GMT 55.996708 9.262505 37,000 36 433 0
2018-12-14 17:15:07 GMT 55.991409 9.255399 37,000 36 433 0
2018-12-14 17:15:04 GMT 55.987885 9.250738 37,000 36 434 0
2018-12-14 17:14:59 GMT 55.978867 9.238836 37,000 36 434 0
2018-12-14 17:14:55 GMT 55.971989 9.229631 36,975 36 434 0
2018-12-14 17:14:52 GMT 55.968311 9.224653 37,000 36 434 0
2018-12-14 17:14:49 GMT 55.964451 9.219589 37,000 36 433 0
2018-12-14 17:14:46 GMT 55.957375 9.210148 37,000 36 433 0
2018-12-14 17:14:43 GMT 55.954330 9.206127 37,000 36 433 0
2018-12-14 17:14:39 GMT 55.947418 9.196972 37,000 36 434 0
2018-12-14 17:14:35 GMT 55.941010 9.188482 37,000 36 434 0
2018-12-14 17:14:32 GMT 55.936981 9.183197 37,000 36 434 0
2018-12-14 17:14:29 GMT 55.929722 9.173670 37,000 36 434 0
2018-12-14 17:14:26 GMT 55.920086 9.160967 37,000 36 434 0
2018-12-14 17:14:23 GMT 55.920086 9.160967 37,000 36 434 0
2018-12-14 17:14:17 GMT 55.910912 9.148865 37,000 36 434 0
2018-12-14 17:14:14 GMT 55.907516 9.144402 37,000 36 434 0
2018-12-14 17:14:11 GMT 55.903511 9.139166 37,000 36 434 0
2018-12-14 17:14:06 GMT 55.895462 9.128557 37,000 36 434 0
2018-12-14 17:14:03 GMT 55.889034 9.119854 37,000 36 434 0
2018-12-14 17:14:00 GMT 55.885803 9.115656 37,000 36 433 0
2018-12-14 17:13:57 GMT 55.880981 9.109554 37,000 36 433 0
2018-12-14 17:13:54 GMT 55.869415 9.094266 37,000 36 434 0
2018-12-14 17:13:50 GMT 55.869415 9.094266 37,000 36 434 0
2018-12-14 17:13:46 GMT 55.855591 9.076122 37,000 36 433 0
2018-12-14 17:13:43 GMT 55.855591 9.076122 37,000 36 433 0
2018-12-14 17:13:40 GMT 55.853188 9.072990 37,000 36 433 0
2018-12-14 17:13:36 GMT 55.845787 9.063292 37,000 36 433 0
2018-12-14 17:13:32 GMT 55.839828 9.055481 37,000 36 432 0
2018-12-14 17:13:28 GMT 55.832565 9.046076 36,975 36 432 0
2018-12-14 17:13:25 GMT 55.828564 9.040804 36,975 36 432 0
2018-12-14 17:13:22 GMT 55.819065 9.028444 36,975 36 432 0
2018-12-14 17:13:19 GMT 55.819065 9.028444 36,975 36 432 0
2018-12-14 17:13:16 GMT 55.815033 9.023188 36,975 36 432 0
2018-12-14 17:13:13 GMT 55.807941 9.014025 36,975 36 432 0
2018-12-14 17:13:09 GMT 55.802448 9.006901 37,000 36 432 0
2018-12-14 17:13:06 GMT 55.796673 8.999348 37,000 36 432 0
2018-12-14 17:13:02 GMT 55.783447 8.982239 37,000 36 432 0
2018-12-14 17:12:58 GMT 55.778275 8.975580 37,000 36 432 0
2018-12-14 17:12:54 GMT 55.778275 8.975580 37,000 36 432 0
2018-12-14 17:12:51 GMT 55.773956 8.969908 37,000 36 432 0
2018-12-14 17:12:47 GMT 55.760410 8.952398 37,000 36 432 0
2018-12-14 17:12:43 GMT 55.760410 8.952398 37,000 36 431 0
2018-12-14 17:12:40 GMT 55.755756 8.946390 37,000 36 431 0
2018-12-14 17:12:37 GMT 55.751724 8.941206 37,000 36 431 0
2018-12-14 17:12:33 GMT 55.742535 8.929310 37,000 35 432 0
2018-12-14 17:12:30 GMT 55.737350 8.922480 37,000 35 432 0
2018-12-14 17:12:24 GMT 55.730759 8.914240 37,000 36 431 0
2018-12-14 17:12:19 GMT 55.720936 8.901501 37,000 36 431 0
2018-12-14 17:12:14 GMT 55.714043 8.892574 37,000 36 431 0
2018-12-14 17:12:11 GMT 55.709198 8.886358 37,000 36 431 0
2018-12-14 17:12:08 GMT 55.702789 8.878035 37,000 36 430 0
2018-12-14 17:12:05 GMT 55.694771 8.867683 37,000 36 430 0
2018-12-14 17:11:59 GMT 55.690907 8.862705 37,000 36 430 0
2018-12-14 17:11:52 GMT 55.677887 8.845825 37,000 36 430 0
2018-12-14 17:11:49 GMT 55.661041 8.824102 37,000 36 430 0
2018-12-14 17:11:41 GMT 55.661041 8.824102 37,000 36 430 0
2018-12-14 17:11:38 GMT 55.657063 8.818932 37,000 36 430 0
2018-12-14 17:11:31 GMT 55.645332 8.803825 37,000 36 430 0
2018-12-14 17:11:28 GMT 55.640396 8.797388 36,975 36 430 0
2018-12-14 17:11:21 GMT 55.629501 8.783236 37,000 36 430 0
2018-12-14 17:11:18 GMT 55.624054 8.776245 36,975 36 430 0
2018-12-14 17:11:11 GMT 55.613304 8.762369 37,000 36 430 0
2018-12-14 17:11:08 GMT 55.607906 8.755331 36,975 36 430 0
2018-12-14 17:11:00 GMT 55.594128 8.737564 37,000 36 429 0
2018-12-14 17:10:57 GMT 55.590729 8.733215 37,000 36 429 0
2018-12-14 17:10:49 GMT 55.577774 8.716486 37,000 36 430 0
2018-12-14 17:10:45 GMT 55.572144 8.709328 37,000 36 430 0
2018-12-14 17:10:42 GMT 55.564796 8.699799 37,000 35 429 0
2018-12-14 17:10:39 GMT 55.561432 8.695512 37,000 35 429 0
2018-12-14 17:10:36 GMT 55.557907 8.691018 37,000 36 429 0
2018-12-14 17:10:33 GMT 55.550507 8.681602 37,000 36 430 0
2018-12-14 17:10:29 GMT 55.545364 8.674955 36,975 36 429 0
2018-12-14 17:10:25 GMT 55.539146 8.667011 36,975 36 429 0
2018-12-14 17:10:21 GMT 55.531586 8.657310 37,000 36 429 0
2018-12-14 17:10:17 GMT 55.527462 8.651905 37,000 36 430 0
2018-12-14 17:10:14 GMT 55.522808 8.645983 36,975 36 430 0
2018-12-14 17:10:08 GMT 55.510162 8.629678 36,975 36 429 0
2018-12-14 17:10:05 GMT 55.507782 8.626598 36,975 36 429 0
2018-12-14 17:09:58 GMT 55.497204 8.613024 37,000 36 429 0
2018-12-14 17:09:55 GMT 55.491104 8.605213 37,000 36 429 0
2018-12-14 17:09:47 GMT 55.478622 8.589145 37,000 35 429 0
2018-12-14 17:09:44 GMT 55.474442 8.583841 37,000 35 429 0
2018-12-14 17:09:38 GMT 55.464523 8.571138 37,000 35 429 0
2018-12-14 17:09:35 GMT 55.458427 8.563414 37,000 35 429 0
2018-12-14 17:09:27 GMT 55.444611 8.545865 37,000 35 429 0
2018-12-14 17:09:24 GMT 55.441574 8.541953 37,000 35 429 0
2018-12-14 17:09:21 GMT 55.436592 8.535628 37,000 35 429 0
2018-12-14 17:09:18 GMT 55.432076 8.529885 36,975 35 429 0
2018-12-14 17:09:15 GMT 55.425652 8.521812 37,000 35 429 0
2018-12-14 17:09:12 GMT 55.422134 8.517312 37,000 35 429 0
2018-12-14 17:09:07 GMT 55.414261 8.507295 37,000 35 429 0
2018-12-14 17:09:04 GMT 55.408630 8.500187 37,000 35 429 0
2018-12-14 17:08:58 GMT 55.399612 8.488796 37,000 35 429 0
2018-12-14 17:08:55 GMT 55.389999 8.476598 37,000 35 429 0
2018-12-14 17:08:52 GMT 55.389999 8.476598 37,000 35 429 0
2018-12-14 17:08:47 GMT 55.380497 8.464633 36,975 35 429 0
2018-12-14 17:08:41 GMT 55.373749 8.456060 37,000 35 429 0
2018-12-14 17:08:36 GMT 55.365097 8.445013 37,000 35 429 0
2018-12-14 17:08:33 GMT 55.358322 8.436450 37,000 35 429 0
2018-12-14 17:08:30 GMT 55.355438 8.432815 36,975 35 429 0
2018-12-14 17:08:25 GMT 55.346607 8.421603 37,000 35 429 0
2018-12-14 17:08:22 GMT 55.342419 8.416276 36,975 35 429 0
2018-12-14 17:08:15 GMT 55.330399 8.400987 37,000 35 429 0
2018-12-14 17:08:12 GMT 55.325729 8.395090 37,000 35 429 0
2018-12-14 17:08:09 GMT 55.321701 8.390059 36,975 35 429 0
2018-12-14 17:08:05 GMT 55.315109 8.381680 37,000 35 429 0
2018-12-14 17:08:02 GMT 55.308197 8.372955 37,000 35 429 0
2018-12-14 17:07:59 GMT 55.305641 8.369751 37,000 35 429 0
2018-12-14 17:07:55 GMT 55.293678 8.354770 37,000 35 430 0
2018-12-14 17:07:52 GMT 55.293678 8.354770 37,000 35 430 0
2018-12-14 17:07:49 GMT 55.289658 8.349771 37,000 35 430 0
2018-12-14 17:07:45 GMT 55.278687 8.336043 37,000 35 430 0
2018-12-14 17:07:39 GMT 55.266769 8.321093 37,000 35 430 0
2018-12-14 17:07:36 GMT 55.266769 8.321093 37,000 35 429 0
2018-12-14 17:07:33 GMT 55.256435 8.308078 37,000 35 430 0
2018-12-14 17:07:29 GMT 55.256435 8.308078 37,000 35 430 0
2018-12-14 17:07:24 GMT 55.246262 8.295324 37,000 35 430 0
2018-12-14 17:07:21 GMT 55.243835 8.292335 37,000 35 430 0
2018-12-14 17:07:18 GMT 55.239029 8.286276 37,000 35 430 0
2018-12-14 17:07:15 GMT 55.233532 8.279363 37,000 35 430 0
2018-12-14 17:07:12 GMT 55.228504 8.273121 37,000 35 430 0
2018-12-14 17:07:07 GMT 55.221085 8.263819 37,000 35 430 0
2018-12-14 17:07:03 GMT 55.214493 8.255477 37,000 35 430 0
2018-12-14 17:07:00 GMT 55.208534 8.247986 37,000 35 430 0
2018-12-14 17:06:55 GMT 55.201401 8.239100 36,975 35 430 0
2018-12-14 17:06:52 GMT 55.198338 8.235252 37,000 35 430 0
2018-12-14 17:06:49 GMT 55.192062 8.227306 37,000 35 430 0
2018-12-14 17:06:46 GMT 55.187027 8.221085 37,000 35 430 0
2018-12-14 17:06:42 GMT 55.175713 8.206870 37,000 35 432 0
2018-12-14 17:06:39 GMT 55.171059 8.200961 37,000 35 432 0
2018-12-14 17:06:36 GMT 55.171059 8.200961 37,000 35 432 0
2018-12-14 17:06:33 GMT 55.166031 8.194719 36,975 35 432 0
2018-12-14 17:06:29 GMT 55.158737 8.185541 36,975 35 432 0
2018-12-14 17:06:25 GMT 55.153557 8.179072 36,975 35 432 0
2018-12-14 17:06:22 GMT 55.147888 8.171970 37,000 35 432 0
2018-12-14 17:06:19 GMT 55.143997 8.167123 37,000 35 432 0
2018-12-14 17:06:15 GMT 55.137215 8.158597 36,975 35 432 0
2018-12-14 17:06:12 GMT 55.132370 8.152502 36,975 35 432 0
2018-12-14 17:06:08 GMT 55.126183 8.144781 37,000 35 432 0
2018-12-14 17:06:05 GMT 55.120361 8.137457 36,975 35 432 0
2018-12-14 17:06:02 GMT 55.115986 8.132047 37,000 35 432 0
2018-12-14 17:05:59 GMT 55.110443 8.125117 37,000 35 432 0
2018-12-14 17:05:56 GMT 55.104767 8.118008 37,000 35 432 0
2018-12-14 17:05:51 GMT 55.096622 8.107910 37,000 35 433 0
2018-12-14 17:05:45 GMT 55.088524 8.097756 37,000 35 433 0
2018-12-14 17:05:42 GMT 55.084442 8.092723 37,000 35 433 0
2018-12-14 17:05:39 GMT 55.077621 8.084160 37,000 35 433 0
2018-12-14 17:05:36 GMT 55.073719 8.079279 37,000 35 433 0
2018-12-14 17:05:31 GMT 55.065582 8.069216 37,000 35 433 0
2018-12-14 17:05:24 GMT 55.053040 8.053544 37,000 35 433 0
2018-12-14 17:05:21 GMT 55.048325 8.047728 37,000 35 433 0
2018-12-14 17:05:16 GMT 55.041000 8.038599 37,000 35 436 0
2018-12-14 17:05:12 GMT 55.034958 8.031087 37,000 35 434 0
2018-12-14 17:05:09 GMT 55.030052 8.025013 37,000 35 434 0
2018-12-14 17:05:05 GMT 55.022873 8.016142 37,000 35 434 0
2018-12-14 17:05:02 GMT 55.017017 8.008867 37,000 35 434 0
2018-12-14 17:04:58 GMT 55.012920 8.003790 37,000 35 434 0
2018-12-14 17:04:55 GMT 55.002319 7.990696 37,000 35 434 0
2018-12-14 17:04:52 GMT 55.002319 7.990696 37,000 35 434 0
2018-12-14 17:04:49 GMT 54.997417 7.984647 37,000 35 434 0
2018-12-14 17:04:46 GMT 54.992844 7.978982 37,000 35 434 0
2018-12-14 17:04:43 GMT 54.987305 7.972116 37,000 35 434 0
2018-12-14 17:04:40 GMT 54.982895 7.966586 37,000 35 434 0
2018-12-14 17:04:36 GMT 54.976868 7.959110 37,000 35 435 0
2018-12-14 17:04:33 GMT 54.971630 7.952687 37,000 35 435 0
2018-12-14 17:04:30 GMT 54.965240 7.944812 37,000 35 435 0
2018-12-14 17:04:24 GMT 54.956406 7.933877 37,000 35 435 0
2018-12-14 17:04:21 GMT 54.951324 7.927605 37,000 35 435 0
2018-12-14 17:04:18 GMT 54.946911 7.922141 36,975 35 435 0
2018-12-14 17:04:13 GMT 54.937740 7.910822 37,000 35 435 0
2018-12-14 17:04:08 GMT 54.930199 7.901500 37,000 35 435 0
2018-12-14 17:04:04 GMT 54.922989 7.892627 37,000 35 435 0
2018-12-14 17:04:00 GMT 54.915298 7.883175 37,000 35 435 0
2018-12-14 17:03:57 GMT 54.912048 7.879136 37,000 35 435 0
2018-12-14 17:03:52 GMT 54.904816 7.870250 37,000 35 435 0
2018-12-14 17:03:49 GMT 54.897285 7.860967 37,000 35 436 0
2018-12-14 17:03:41 GMT 54.886963 7.848197 37,000 35 436 0
2018-12-14 17:03:38 GMT 54.881882 7.841976 37,000 35 436 -64
2018-12-14 17:03:32 GMT 54.872040 7.829859 37,000 35 436 0
2018-12-14 17:03:29 GMT 54.865303 7.821600 37,000 35 436 0
2018-12-14 17:03:25 GMT 54.859066 7.813943 37,000 35 436 0
2018-12-14 17:03:21 GMT 54.853294 7.806868 37,000 35 436 0
2018-12-14 17:03:18 GMT 54.848034 7.800459 37,000 35 436 0
2018-12-14 17:03:15 GMT 54.843933 7.795365 37,000 35 436 0
2018-12-14 17:03:12 GMT 54.838852 7.789145 37,000 35 436 0
2018-12-14 17:03:08 GMT 54.830296 7.778736 37,000 35 436 -64
2018-12-14 17:03:05 GMT 54.825348 7.772666 37,000 35 436 -64
2018-12-14 17:03:02 GMT 54.822052 7.768626 37,000 35 436 -64
2018-12-14 17:02:59 GMT 54.815632 7.760842 37,000 35 436 0
2018-12-14 17:02:55 GMT 54.805389 7.748350 37,000 35 436 0
2018-12-14 17:02:52 GMT 54.805389 7.748350 37,000 35 436 0
2018-12-14 17:02:48 GMT 54.798477 7.739949 37,000 35 436 0
2018-12-14 17:02:45 GMT 54.787125 7.726054 37,000 35 436 0
2018-12-14 17:02:41 GMT 54.787125 7.726054 37,000 35 436 0
2018-12-14 17:02:37 GMT 54.780720 7.718228 37,000 35 436 0
2018-12-14 17:02:33 GMT 54.774445 7.710625 37,000 35 436 0
2018-12-14 17:02:29 GMT 54.767544 7.702165 37,000 35 437 0
2018-12-14 17:02:23 GMT 54.757507 7.689864 37,000 35 437 0
2018-12-14 17:02:17 GMT 54.746780 7.676780 37,000 35 437 0
2018-12-14 17:02:14 GMT 54.736912 7.664712 37,000 35 437 0
2018-12-14 17:02:10 GMT 54.736912 7.664712 37,000 35 437 0
2018-12-14 17:02:06 GMT 54.728348 7.654159 37,000 35 437 0
2018-12-14 17:02:02 GMT 54.716335 7.639493 37,000 35 437 0
2018-12-14 17:01:59 GMT 54.716335 7.639493 37,000 35 437 0
2018-12-14 17:01:55 GMT 54.711411 7.633479 37,000 35 436 0
2018-12-14 17:01:51 GMT 54.703491 7.623785 37,000 35 436 0
2018-12-14 17:01:48 GMT 54.700562 7.620230 37,000 35 436 0
2018-12-14 17:01:45 GMT 54.694931 7.613364 37,000 35 436 0
2018-12-14 17:01:41 GMT 54.689011 7.606201 37,000 35 436 0
2018-12-14 17:01:38 GMT 54.683426 7.599376 37,000 35 436 0
2018-12-14 17:01:35 GMT 54.676815 7.591386 37,000 35 436 0
2018-12-14 17:01:32 GMT 54.673370 7.587191 37,000 35 436 0
2018-12-14 17:01:27 GMT 54.659500 7.570388 37,000 35 436 0
2018-12-14 17:01:24 GMT 54.659500 7.570388 37,000 35 436 0
2018-12-14 17:01:21 GMT 54.650299 7.559159 37,000 35 436 0
2018-12-14 17:01:18 GMT 54.650299 7.559159 37,000 35 436 0
2018-12-14 17:01:12 GMT 54.634777 7.540283 37,000 35 436 0
2018-12-14 17:01:09 GMT 54.634777 7.540283 37,000 34 436 0
2018-12-14 17:01:06 GMT 54.628864 7.533125 37,000 35 436 0
2018-12-14 17:01:03 GMT 54.626221 7.529916 37,000 35 436 0
2018-12-14 17:01:00 GMT 54.621277 7.523887 37,000 35 436 0
2018-12-14 17:00:57 GMT 54.616016 7.517478 37,000 35 436 0
2018-12-14 17:00:54 GMT 54.609787 7.509882 37,000 35 436 0
2018-12-14 17:00:50 GMT 54.604469 7.503496 37,000 35 436 0
2018-12-14 17:00:47 GMT 54.599533 7.497523 37,000 34 436 0
2018-12-14 17:00:44 GMT 54.594418 7.491344 37,000 34 436 0
2018-12-14 17:00:41 GMT 54.581707 7.476113 37,000 34 436 0
2018-12-14 17:00:37 GMT 54.576736 7.470138 37,000 34 436 0
2018-12-14 17:00:34 GMT 54.572769 7.465460 37,000 34 436 0
2018-12-14 17:00:28 GMT 54.564297 7.455389 37,000 34 437 0
2018-12-14 17:00:25 GMT 54.557686 7.447482 37,000 34 437 0
2018-12-14 17:00:22 GMT 54.557686 7.447482 37,000 34 436 0
2018-12-14 17:00:19 GMT 54.553528 7.442591 37,000 34 436 0
2018-12-14 17:00:16 GMT 54.540619 7.427162 36,975 34 437 0
2018-12-14 17:00:12 GMT 54.540619 7.427162 36,975 34 437 0
2018-12-14 17:00:08 GMT 54.534782 7.420266 36,975 34 437 0
2018-12-14 17:00:05 GMT 54.529987 7.414606 36,975 34 436 0
2018-12-14 17:00:01 GMT 54.522858 7.406158 36,975 34 436 0
2018-12-14 16:59:58 GMT 54.518723 7.401206 36,975 34 436 0
2018-12-14 16:59:54 GMT 54.511917 7.393072 37,000 34 438 0
2018-12-14 16:59:50 GMT 54.505455 7.385309 36,975 34 438 0
2018-12-14 16:59:47 GMT 54.499496 7.378152 36,975 34 438 0
2018-12-14 16:59:44 GMT 54.495209 7.373038 37,000 34 438 0
2018-12-14 16:59:41 GMT 54.488419 7.364835 37,000 34 438 0
2018-12-14 16:59:38 GMT 54.485111 7.360923 37,000 35 437 0
2018-12-14 16:59:35 GMT 54.480503 7.355347 37,000 35 437 0
2018-12-14 16:59:32 GMT 54.473381 7.346774 37,000 35 437 0
2018-12-14 16:59:26 GMT 54.465637 7.337413 37,000 34 438 0
2018-12-14 16:59:23 GMT 54.460510 7.331193 37,000 35 437 0
2018-12-14 16:59:20 GMT 54.456528 7.326466 37,000 35 437 0
2018-12-14 16:59:17 GMT 54.451584 7.320449 37,000 35 437 0
2018-12-14 16:59:14 GMT 54.439865 7.306312 37,000 35 437 0
2018-12-14 16:59:11 GMT 54.439865 7.306312 37,000 34 437 0
2018-12-14 16:59:07 GMT 54.434231 7.299583 37,000 35 437 0
2018-12-14 16:59:04 GMT 54.422359 7.285267 37,000 34 437 0
2018-12-14 16:59:00 GMT 54.422359 7.285267 37,000 34 437 0
2018-12-14 16:58:56 GMT 54.414047 7.275373 37,000 34 436 0
2018-12-14 16:58:53 GMT 54.411255 7.272061 37,000 34 437 0
2018-12-14 16:58:49 GMT 54.397156 7.255258 37,000 34 437 0
2018-12-14 16:58:45 GMT 54.397156 7.255258 37,000 34 438 0
2018-12-14 16:58:42 GMT 54.393684 7.251143 37,000 34 437 0
2018-12-14 16:58:39 GMT 54.386745 7.242820 37,000 34 438 0
2018-12-14 16:58:34 GMT 54.379765 7.234497 37,000 34 438 0
2018-12-14 16:58:30 GMT 54.372829 7.226174 37,000 34 438 0
2018-12-14 16:58:27 GMT 54.369522 7.222179 37,000 34 438 0
2018-12-14 16:58:23 GMT 54.361423 7.212524 37,000 34 437 0
2018-12-14 16:58:19 GMT 54.354301 7.204035 37,000 34 437 0
2018-12-14 16:58:14 GMT 54.346340 7.194547 37,000 34 437 0
2018-12-14 16:58:11 GMT 54.342361 7.189825 37,000 34 438 0
2018-12-14 16:58:08 GMT 54.337189 7.183685 37,000 34 437 0
2018-12-14 16:58:04 GMT 54.329720 7.174821 37,000 34 437 0
2018-12-14 16:58:01 GMT 54.324600 7.168741 37,000 34 438 0
2018-12-14 16:57:58 GMT 54.314804 7.157108 37,000 34 438 0
2018-12-14 16:57:55 GMT 54.314804 7.157108 37,000 34 438 0
2018-12-14 16:57:51 GMT 54.308807 7.149999 37,000 34 438 0
2018-12-14 16:57:48 GMT 54.303680 7.143941 37,000 34 438 0
2018-12-14 16:57:45 GMT 54.297363 7.136428 37,000 34 438 0
2018-12-14 16:57:41 GMT 54.291412 7.129319 37,000 34 438 0
2018-12-14 16:57:38 GMT 54.286743 7.123826 37,000 34 437 0
2018-12-14 16:57:34 GMT 54.280106 7.115990 37,000 34 437 0
2018-12-14 16:57:31 GMT 54.274601 7.109528 37,000 34 438 0
2018-12-14 16:57:28 GMT 54.267944 7.101611 37,000 34 438 0
2018-12-14 16:57:25 GMT 54.264641 7.097733 37,000 34 438 64
2018-12-14 16:57:22 GMT 54.260513 7.092773 36,975 34 438 0
2018-12-14 16:57:19 GMT 54.255840 7.087232 37,000 34 438 0
2018-12-14 16:57:15 GMT 54.248749 7.078727 37,000 34 438 0
2018-12-14 16:57:12 GMT 54.243576 7.072606 36,975 34 438 0
2018-12-14 16:57:09 GMT 54.237946 7.065857 37,000 34 438 0
2018-12-14 16:57:05 GMT 54.231674 7.058402 36,975 34 438 0
2018-12-14 16:57:02 GMT 54.226700 7.052415 36,975 34 438 0
2018-12-14 16:56:58 GMT 54.218227 7.042398 37,000 34 438 0
2018-12-14 16:56:54 GMT 54.213226 7.036429 36,975 34 438 0
2018-12-14 16:56:51 GMT 54.206917 7.028988 37,000 34 438 0
2018-12-14 16:56:48 GMT 54.203098 7.024464 36,975 34 438 0
2018-12-14 16:56:45 GMT 54.198441 7.018930 36,975 34 438 0
2018-12-14 16:56:42 GMT 54.193314 7.012809 37,000 34 438 0
2018-12-14 16:56:39 GMT 54.182522 7.000068 37,000 34 438 0
2018-12-14 16:56:36 GMT 54.182522 7.000068 36,975 34 439 0
2018-12-14 16:56:32 GMT 54.176842 6.993363 37,000 34 438 -64
2018-12-14 16:56:29 GMT 54.171204 6.986677 37,000 34 438 0
2018-12-14 16:56:24 GMT 54.162876 6.976884 37,000 34 438 0
2018-12-14 16:56:16 GMT 54.150375 6.962193 37,000 34 438 0
2018-12-14 16:56:12 GMT 54.143738 6.954346 37,000 34 438 0
2018-12-14 16:56:09 GMT 54.138905 6.948691 37,000 34 438 0
2018-12-14 16:56:06 GMT 54.131882 6.940456 37,000 34 438 0
2018-12-14 16:56:03 GMT 54.129089 6.937081 37,000 34 438 0
2018-12-14 16:56:00 GMT 54.123589 6.930677 37,000 34 438 0
2018-12-14 16:55:57 GMT 54.119110 6.925389 37,000 34 438 0
2018-12-14 16:55:53 GMT 54.111111 6.915974 36,975 34 438 0
2018-12-14 16:55:50 GMT 54.106922 6.911127 37,000 34 438 0
2018-12-14 16:55:47 GMT 54.102081 6.905457 37,000 34 438 0
2018-12-14 16:55:44 GMT 54.097092 6.899571 37,000 34 438 0
2018-12-14 16:55:41 GMT 54.091278 6.892744 37,000 34 438 0
2018-12-14 16:55:35 GMT 54.081409 6.881238 37,000 34 438 0
2018-12-14 16:55:32 GMT 54.075081 6.873887 37,000 34 438 0
2018-12-14 16:55:29 GMT 54.072418 6.870693 37,000 34 439 0
2018-12-14 16:55:26 GMT 54.066933 6.864274 36,975 34 439 0
2018-12-14 16:55:21 GMT 54.057762 6.853530 36,975 34 438 0
2018-12-14 16:55:18 GMT 54.054245 6.849505 36,975 34 438 0
2018-12-14 16:55:15 GMT 54.048248 6.842442 36,975 34 438 0
2018-12-14 16:55:10 GMT 54.040726 6.833658 36,975 34 438 0
2018-12-14 16:55:07 GMT 54.030533 6.821804 36,975 34 439 -64
2018-12-14 16:55:01 GMT 54.023849 6.814035 37,000 34 439 0
2018-12-14 16:54:58 GMT 54.020382 6.809908 36,975 34 438 -64
2018-12-14 16:54:54 GMT 54.014877 6.803519 37,000 34 439 0
2018-12-14 16:54:51 GMT 54.008835 6.796498 37,000 34 439 0
2018-12-14 16:54:48 GMT 54.003994 6.790843 37,000 34 439 0
2018-12-14 16:54:44 GMT 53.997990 6.783815 37,000 34 439 0
2018-12-14 16:54:40 GMT 53.985168 6.768834 36,975 34 439 0
2018-12-14 16:54:33 GMT 53.979134 6.761843 36,975 34 439 0
2018-12-14 16:54:30 GMT 53.967590 6.748433 36,975 34 439 0
2018-12-14 16:54:22 GMT 53.960266 6.739877 37,000 34 439 -64
2018-12-14 16:54:19 GMT 53.954929 6.733650 37,000 34 439 0
2018-12-14 16:54:16 GMT 53.948364 6.726065 37,000 34 439 0
2018-12-14 16:54:13 GMT 53.943382 6.720240 37,000 34 439 0
2018-12-14 16:54:10 GMT 53.939850 6.716178 37,000 34 439 0
2018-12-14 16:54:07 GMT 53.933167 6.708409 37,000 34 439 0
2018-12-14 16:54:02 GMT 53.925972 6.700125 37,000 34 439 0
2018-12-14 16:53:58 GMT 53.920944 6.694284 37,000 34 439 64
2018-12-14 16:53:55 GMT 53.915726 6.688320 37,000 34 440 0
2018-12-14 16:53:52 GMT 53.911030 6.682919 36,975 34 439 0
2018-12-14 16:53:49 GMT 53.905655 6.676784 36,975 34 439 0
2018-12-14 16:53:46 GMT 53.898460 6.668378 36,975 34 440 0
2018-12-14 16:53:43 GMT 53.893944 6.663208 37,000 34 439 0
2018-12-14 16:53:40 GMT 53.890778 6.659441 37,000 34 439 0
2018-12-14 16:53:37 GMT 53.885750 6.653676 37,000 34 440 0
2018-12-14 16:53:34 GMT 53.877930 6.644547 37,000 34 439 0
2018-12-14 16:53:31 GMT 53.875580 6.641785 37,000 34 439 0
2018-12-14 16:53:28 GMT 53.869690 6.635015 37,000 34 439 0
2018-12-14 16:53:25 GMT 53.858185 6.621617 36,975 34 440 0
2018-12-14 16:53:18 GMT 53.852142 6.614633 36,975 34 439 0
2018-12-14 16:53:14 GMT 53.846786 6.608438 36,975 34 440 0
2018-12-14 16:53:11 GMT 53.840927 6.601606 36,975 34 440 0
2018-12-14 16:53:08 GMT 53.836395 6.596427 37,000 34 440 0
2018-12-14 16:53:05 GMT 53.829712 6.588658 37,000 34 440 -64
2018-12-14 16:53:02 GMT 53.825512 6.583799 36,975 34 440 0
2018-12-14 16:52:59 GMT 53.817123 6.574140 37,000 34 440 -64
2018-12-14 16:52:53 GMT 53.811081 6.567156 37,000 34 440 -64
2018-12-14 16:52:50 GMT 53.805862 6.561192 37,000 34 440 0
2018-12-14 16:52:47 GMT 53.799500 6.553894 37,000 34 440 0
2018-12-14 16:52:43 GMT 53.794464 6.548087 37,000 34 440 0
2018-12-14 16:52:39 GMT 53.782883 6.534825 37,000 33 440 0
2018-12-14 16:52:36 GMT 53.777657 6.528868 37,000 33 440 0
2018-12-14 16:52:29 GMT 53.770908 6.521194 37,000 33 440 0
2018-12-14 16:52:25 GMT 53.763504 6.512792 37,000 33 440 0
2018-12-14 16:52:22 GMT 53.758617 6.507218 37,000 33 440 0
2018-12-14 16:52:19 GMT 53.753586 6.501474 37,000 33 440 0
2018-12-14 16:52:16 GMT 53.748192 6.495343 37,000 33 440 0
2018-12-14 16:52:13 GMT 53.744659 6.491350 37,000 33 440 0
2018-12-14 16:52:10 GMT 53.736923 6.482499 36,975 34 439 0
2018-12-14 16:52:07 GMT 53.733398 6.478481 36,975 34 439 0
2018-12-14 16:52:04 GMT 53.728867 6.473301 37,000 34 439 0
2018-12-14 16:52:01 GMT 53.724838 6.468672 37,000 34 439 0
2018-12-14 16:51:58 GMT 53.719467 6.462546 36,975 34 439 0
2018-12-14 16:51:55 GMT 53.712570 6.454703 36,975 34 439 0
2018-12-14 16:51:52 GMT 53.708527 6.450106 36,975 34 439 0
2018-12-14 16:51:49 GMT 53.702335 6.442997 36,975 34 439 0
2018-12-14 16:51:46 GMT 53.697449 6.437423 37,000 34 439 0
2018-12-14 16:51:43 GMT 53.692749 6.432024 36,975 34 440 0
2018-12-14 16:51:40 GMT 53.689362 6.428179 36,975 34 440 0
2018-12-14 16:51:36 GMT 53.681122 6.418762 37,000 34 440 0
2018-12-14 16:51:33 GMT 53.676079 6.413027 37,000 34 440 0
2018-12-14 16:51:30 GMT 53.672031 6.408422 37,000 34 440 0
2018-12-14 16:51:26 GMT 53.664490 6.399778 37,000 34 439 0
2018-12-14 16:51:23 GMT 53.659599 6.394205 36,975 34 440 0
2018-12-14 16:51:20 GMT 53.654572 6.388471 36,975 34 440 0
2018-12-14 16:51:17 GMT 53.650177 6.383527 37,000 34 440 0
2018-12-14 16:51:14 GMT 53.643814 6.376229 36,975 34 440 0
2018-12-14 16:51:10 GMT 53.636215 6.367597 37,000 34 440 0
2018-12-14 16:51:07 GMT 53.633530 6.364558 37,000 34 440 0
2018-12-14 16:51:04 GMT 53.627975 6.358180 37,000 34 440 0
2018-12-14 16:51:01 GMT 53.622593 6.352117 36,975 34 440 0
2018-12-14 16:50:58 GMT 53.618408 6.347273 37,000 34 439 -64
2018-12-14 16:50:55 GMT 53.612686 6.340759 37,000 34 439 -64
2018-12-14 16:50:52 GMT 53.608486 6.336042 37,000 34 439 0
2018-12-14 16:50:49 GMT 53.601105 6.327576 37,000 34 439 0
2018-12-14 16:50:44 GMT 53.594513 6.320121 37,000 34 439 -64
2018-12-14 16:50:41 GMT 53.590145 6.315119 37,000 34 439 -64
2018-12-14 16:50:38 GMT 53.584442 6.308585 37,000 34 440 0
2018-12-14 16:50:35 GMT 53.578400 6.301679 37,000 34 439 0
2018-12-14 16:50:32 GMT 53.568497 6.290400 37,000 34 439 -64
2018-12-14 16:50:29 GMT 53.568497 6.290400 37,000 34 439 0
2018-12-14 16:50:26 GMT 53.563843 6.285043 37,000 34 439 0
2018-12-14 16:50:23 GMT 53.559654 6.280221 37,000 34 439 0
2018-12-14 16:50:20 GMT 53.554596 6.274449 37,000 34 439 0
2018-12-14 16:50:17 GMT 53.548920 6.267936 37,000 34 439 0
2018-12-14 16:50:14 GMT 53.543060 6.261265 37,000 34 439 -64
2018-12-14 16:50:11 GMT 53.537167 6.254614 37,000 34 437 0
2018-12-14 16:50:08 GMT 53.532513 6.249201 37,000 34 437 0
2018-12-14 16:50:05 GMT 53.529812 6.246212 37,000 34 437 0
2018-12-14 16:50:02 GMT 53.524971 6.240719 37,000 34 438 0
2018-12-14 16:49:59 GMT 53.518921 6.233853 37,000 34 438 0
2018-12-14 16:49:56 GMT 53.512730 6.226825 37,000 34 438 0
2018-12-14 16:49:53 GMT 53.503696 6.216565 37,000 34 437 0
2018-12-14 16:49:50 GMT 53.497833 6.209860 37,000 34 437 0
2018-12-14 16:49:47 GMT 53.497833 6.209860 37,000 34 437 0
2018-12-14 16:49:44 GMT 53.493484 6.204921 37,000 34 437 0
2018-12-14 16:49:41 GMT 53.489822 6.200762 37,000 34 437 0
2018-12-14 16:49:38 GMT 53.483826 6.193935 37,000 34 437 0
2018-12-14 16:49:35 GMT 53.478607 6.187971 37,000 34 437 0
2018-12-14 16:49:32 GMT 53.465424 6.173061 37,000 33 436 0
2018-12-14 16:49:28 GMT 53.465424 6.173061 37,000 33 436 0
2018-12-14 16:49:25 GMT 53.461430 6.168500 37,000 33 436 0
2018-12-14 16:49:22 GMT 53.451920 6.157758 37,000 33 436 0
2018-12-14 16:49:19 GMT 53.447044 6.152344 37,000 33 436 -64
2018-12-14 16:49:16 GMT 53.442204 6.146851 37,000 33 435 0
2018-12-14 16:49:13 GMT 53.442204 6.146851 37,000 33 436 0
2018-12-14 16:49:10 GMT 53.437035 6.141034 36,975 33 435 0
2018-12-14 16:49:04 GMT 53.426559 6.129159 37,000 34 435 0
2018-12-14 16:49:01 GMT 53.422394 6.124407 36,975 34 435 0
2018-12-14 16:48:58 GMT 53.417389 6.118739 37,000 34 435 0
2018-12-14 16:48:55 GMT 53.410686 6.111226 36,975 33 435 0
2018-12-14 16:48:52 GMT 53.402538 6.102017 36,975 33 435 0
2018-12-14 16:48:49 GMT 53.402538 6.102017 37,000 33 435 0
2018-12-14 16:48:46 GMT 53.396027 6.094744 36,975 33 435 0
2018-12-14 16:48:43 GMT 53.385361 6.082738 36,975 33 434 -64
2018-12-14 16:48:39 GMT 53.385361 6.082738 37,000 33 434 -64
2018-12-14 16:48:36 GMT 53.380554 6.077323 37,000 33 434 -64
2018-12-14 16:48:32 GMT 53.372887 6.068735 37,000 33 434 0
2018-12-14 16:48:28 GMT 53.367188 6.062413 37,000 33 434 0
2018-12-14 16:48:25 GMT 53.362701 6.057390 37,000 33 434 0
2018-12-14 16:48:22 GMT 53.356705 6.050720 37,000 33 433 0
2018-12-14 16:48:16 GMT 53.340088 6.032043 36,975 33 431 -64
2018-12-14 16:48:13 GMT 53.340088 6.032043 37,000 33 433 0
2018-12-14 16:48:10 GMT 53.336948 6.028505 37,000 33 433 0
2018-12-14 16:48:07 GMT 53.330978 6.021842 37,000 33 433 0
2018-12-14 16:48:04 GMT 53.326172 6.016427 37,000 33 433 0
2018-12-14 16:48:01 GMT 53.322006 6.011797 37,000 33 433 0
2018-12-14 16:47:58 GMT 53.316879 6.006069 37,000 33 432 0
2018-12-14 16:47:55 GMT 53.312073 6.000654 36,975 33 430 0
2018-12-14 16:47:51 GMT 53.304268 5.991992 37,000 33 432 0
2018-12-14 16:47:48 GMT 53.300961 5.988276 36,975 34 432 0
2018-12-14 16:47:45 GMT 53.295330 5.981894 36,975 33 431 0
2018-12-14 16:47:42 GMT 53.290375 5.976327 36,975 34 432 0
2018-12-14 16:47:39 GMT 53.285461 5.970746 36,975 33 431 0
2018-12-14 16:47:35 GMT 53.271698 5.955375 36,975 33 431 -64
2018-12-14 16:47:31 GMT 53.271698 5.955375 37,000 33 431 0
2018-12-14 16:47:28 GMT 53.261490 5.943917 36,975 33 430 0
2018-12-14 16:47:25 GMT 53.261490 5.943917 37,000 33 431 0
2018-12-14 16:47:22 GMT 53.257996 5.940049 37,000 33 431 0
2018-12-14 16:47:19 GMT 53.252518 5.933951 37,000 33 430 64
2018-12-14 16:47:16 GMT 53.242447 5.922762 36,975 33 430 0
2018-12-14 16:47:10 GMT 53.236347 5.915895 36,975 33 430 0
2018-12-14 16:47:06 GMT 53.230545 5.909467 37,000 33 430 0
2018-12-14 16:47:03 GMT 53.220146 5.897881 37,000 33 430 0
2018-12-14 16:47:00 GMT 53.220146 5.897881 37,000 33 430 0
2018-12-14 16:46:57 GMT 53.215027 5.892226 37,000 33 430 0
2018-12-14 16:46:53 GMT 53.210083 5.886710 36,975 33 429 0
2018-12-14 16:46:50 GMT 53.203812 5.879726 36,975 33 429 0
2018-12-14 16:46:47 GMT 53.200836 5.876430 36,975 33 429 0
2018-12-14 16:46:44 GMT 53.194729 5.869688 36,975 33 429 0
2018-12-14 16:46:41 GMT 53.190582 5.865130 36,975 33 429 0
2018-12-14 16:46:38 GMT 53.184631 5.858538 36,975 33 430 0
2018-12-14 16:46:35 GMT 53.178993 5.852320 36,975 33 430 0
2018-12-14 16:46:32 GMT 53.174900 5.847715 37,000 33 430 0
2018-12-14 16:46:28 GMT 53.167786 5.839861 36,975 33 430 -64
2018-12-14 16:46:24 GMT 53.161213 5.832529 36,975 33 430 -64
2018-12-14 16:46:21 GMT 53.155243 5.825971 36,975 33 429 0
2018-12-14 16:46:18 GMT 53.151436 5.821704 36,975 33 429 0
2018-12-14 16:46:15 GMT 53.145493 5.815142 36,975 33 430 0
2018-12-14 16:46:12 GMT 53.141567 5.810717 36,975 33 430 0
2018-12-14 16:46:09 GMT 53.131653 5.799731 36,975 33 430 0
2018-12-14 16:46:06 GMT 53.131653 5.799731 36,975 33 430 0
2018-12-14 16:46:03 GMT 53.126724 5.794268 36,975 33 429 0
2018-12-14 16:46:00 GMT 53.122063 5.789149 37,000 33 429 0
2018-12-14 16:45:57 GMT 53.116940 5.783494 36,975 33 429 0
2018-12-14 16:45:54 GMT 53.111168 5.777112 37,000 33 430 0
2018-12-14 16:45:51 GMT 53.106216 5.771667 36,975 33 429 -64
2018-12-14 16:45:48 GMT 53.096329 5.760681 37,000 33 429 -64
2018-12-14 16:45:45 GMT 53.096329 5.760681 37,000 33 429 0
2018-12-14 16:45:42 GMT 53.091522 5.755386 36,975 33 430 0
2018-12-14 16:45:39 GMT 53.087566 5.751029 37,000 33 430 0
2018-12-14 16:45:36 GMT 53.082119 5.744986 37,000 33 430 0
2018-12-14 16:45:33 GMT 53.078163 5.740592 36,975 33 430 0
2018-12-14 16:45:30 GMT 53.071552 5.733294 36,975 33 429 0
2018-12-14 16:45:27 GMT 53.065594 5.726702 36,975 33 429 0
2018-12-14 16:45:24 GMT 53.061962 5.722700 37,000 33 429 0
2018-12-14 16:45:21 GMT 53.056515 5.716657 37,000 33 429 0
2018-12-14 16:45:18 GMT 53.047577 5.706848 36,975 33 429 0
2018-12-14 16:45:15 GMT 53.047577 5.706848 37,000 33 429 0
2018-12-14 16:45:12 GMT 53.042786 5.701590 37,000 33 429 0
2018-12-14 16:45:09 GMT 53.037186 5.695343 37,000 33 429 0
2018-12-14 16:45:05 GMT 53.030773 5.688250 37,000 33 429 -64
2018-12-14 16:45:01 GMT 53.025978 5.682992 37,000 33 429 -64
2018-12-14 16:44:58 GMT 53.017731 5.673904 37,000 33 429 0
2018-12-14 16:44:55 GMT 53.012756 5.668474 37,000 33 429 0
2018-12-14 16:44:51 GMT 53.006653 5.661774 37,000 33 429 0
2018-12-14 16:44:48 GMT 53.002350 5.657120 37,000 33 429 0
2018-12-14 16:44:45 GMT 52.997223 5.651474 37,000 33 429 0
2018-12-14 16:44:42 GMT 52.993927 5.647888 37,000 33 429 0
2018-12-14 16:44:39 GMT 52.988968 5.642421 37,000 33 429 0
2018-12-14 16:44:36 GMT 52.981888 5.634613 37,000 33 428 0
2018-12-14 16:44:33 GMT 52.978546 5.631027 37,000 33 427 64
2018-12-14 16:44:30 GMT 52.972118 5.623901 37,000 33 429 0
2018-12-14 16:44:27 GMT 52.966858 5.618094 36,975 33 429 -64
2018-12-14 16:44:24 GMT 52.962109 5.612837 36,975 33 429 0
2018-12-14 16:44:21 GMT 52.958801 5.609227 37,000 33 429 0
2018-12-14 16:44:18 GMT 52.953186 5.603027 37,000 33 429 0
2018-12-14 16:44:14 GMT 52.945770 5.594866 37,000 33 427 0
2018-12-14 16:44:11 GMT 52.942326 5.591099 36,975 33 425 64
2018-12-14 16:44:08 GMT 52.937576 5.585785 37,000 33 427 64
2018-12-14 16:44:05 GMT 52.933292 5.581133 36,975 33 427 64
2018-12-14 16:44:02 GMT 52.927334 5.574620 36,975 33 427 0
2018-12-14 16:43:59 GMT 52.923050 5.569911 37,000 33 427 0
2018-12-14 16:43:56 GMT 52.918583 5.565046 37,000 33 427 0
2018-12-14 16:43:53 GMT 52.912491 5.558395 37,000 33 427 0
2018-12-14 16:43:50 GMT 52.907551 5.553040 36,975 33 427 0
2018-12-14 16:43:47 GMT 52.903793 5.548859 36,975 33 427 -64
2018-12-14 16:43:44 GMT 52.897354 5.541896 37,000 33 427 0
2018-12-14 16:43:41 GMT 52.888458 5.532150 37,000 33 427 -64
2018-12-14 16:43:35 GMT 52.882233 5.525284 37,000 33 427 0
2018-12-14 16:43:32 GMT 52.877941 5.520630 37,000 33 427 0
2018-12-14 16:43:29 GMT 52.873146 5.515372 37,000 33 427 0
2018-12-14 16:43:26 GMT 52.867420 5.509094 37,000 33 427 0
2018-12-14 16:43:22 GMT 52.861633 5.502853 37,000 33 426 0
2018-12-14 16:43:19 GMT 52.857376 5.498199 37,000 33 426 0
2018-12-14 16:43:16 GMT 52.851425 5.491791 37,000 33 426 0
2018-12-14 16:43:13 GMT 52.846664 5.486603 37,000 33 426 -64
2018-12-14 16:43:10 GMT 52.841724 5.481236 37,000 33 426 -64
2018-12-14 16:43:07 GMT 52.835953 5.475037 37,000 33 426 0
2018-12-14 16:43:04 GMT 52.832520 5.471268 37,000 33 425 64
2018-12-14 16:43:01 GMT 52.824966 5.463109 37,000 33 424 0
2018-12-14 16:42:58 GMT 52.822544 5.460440 37,000 33 424 0
2018-12-14 16:42:55 GMT 52.817284 5.454712 36,975 33 424 0
2018-12-14 16:42:52 GMT 52.810905 5.447806 36,975 33 424 0
2018-12-14 16:42:49 GMT 52.806015 5.442429 36,975 33 424 0
2018-12-14 16:42:46 GMT 52.797035 5.432661 36,975 33 423 0
2018-12-14 16:42:43 GMT 52.797035 5.432661 36,975 33 422 64
2018-12-14 16:42:40 GMT 52.788097 5.422930 36,975 33 422 0
2018-12-14 16:42:37 GMT 52.788097 5.422930 36,975 33 422 0
2018-12-14 16:42:34 GMT 52.783035 5.417404 36,975 33 423 -64
2018-12-14 16:42:31 GMT 52.777679 5.411530 36,975 33 423 -64
2018-12-14 16:42:28 GMT 52.771133 5.404434 36,975 33 423 -64
2018-12-14 16:42:25 GMT 52.768204 5.401230 36,975 33 422 -64
2018-12-14 16:42:22 GMT 52.762028 5.394444 36,975 33 422 0
2018-12-14 16:42:19 GMT 52.759418 5.391619 36,975 33 422 0
2018-12-14 16:42:16 GMT 52.753742 5.385341 37,000 33 422 0
2018-12-14 16:42:13 GMT 52.749039 5.380240 36,975 33 422 0
2018-12-14 16:42:10 GMT 52.744335 5.375061 36,975 33 422 0
2018-12-14 16:42:07 GMT 52.738007 5.368155 37,000 33 421 0
2018-12-14 16:42:04 GMT 52.733257 5.363055 37,000 33 421 0
2018-12-14 16:42:00 GMT 52.727600 5.356827 37,000 33 421 0
2018-12-14 16:41:56 GMT 52.720093 5.348740 37,000 33 421 0
2018-12-14 16:41:53 GMT 52.715893 5.344142 37,000 33 421 0
2018-12-14 16:41:50 GMT 52.710865 5.338649 37,000 33 421 0
2018-12-14 16:41:47 GMT 52.705139 5.332528 37,000 33 421 0
2018-12-14 16:41:44 GMT 52.696064 5.322719 37,000 33 421 0
2018-12-14 16:41:41 GMT 52.696064 5.322719 37,000 33 421 0
2018-12-14 16:41:38 GMT 52.692013 5.318324 37,000 33 421 64
2018-12-14 16:41:35 GMT 52.686813 5.312653 37,000 33 421 64
2018-12-14 16:41:32 GMT 52.682751 5.308280 37,000 33 420 64
2018-12-14 16:41:29 GMT 52.678528 5.303726 37,000 33 420 64
2018-12-14 16:41:26 GMT 52.671249 5.295881 36,975 33 420 0
2018-12-14 16:41:23 GMT 52.665527 5.289764 36,975 33 420 0
2018-12-14 16:41:20 GMT 52.662125 5.286072 36,975 33 421 0
2018-12-14 16:41:17 GMT 52.653187 5.276498 37,000 33 421 0
2018-12-14 16:41:14 GMT 52.653187 5.276498 36,975 33 420 0
2018-12-14 16:41:11 GMT 52.647648 5.270534 36,975 33 421 -64
2018-12-14 16:41:08 GMT 52.644066 5.266767 36,975 33 421 -64
2018-12-14 16:41:05 GMT 52.637592 5.259783 37,000 33 420 0
2018-12-14 16:41:02 GMT 52.633347 5.255203 37,000 33 421 0
2018-12-14 16:40:59 GMT 52.627815 5.249268 37,000 33 421 0
2018-12-14 16:40:56 GMT 52.623440 5.244559 37,000 33 421 0
2018-12-14 16:40:53 GMT 52.618088 5.238752 37,000 33 421 0
2018-12-14 16:40:50 GMT 52.612381 5.232620 37,000 33 420 64
2018-12-14 16:40:47 GMT 52.609802 5.229885 37,000 33 420 0
2018-12-14 16:40:43 GMT 52.602631 5.222168 37,000 32 420 0
2018-12-14 16:40:40 GMT 52.597931 5.217172 37,000 32 420 -64
2018-12-14 16:40:37 GMT 52.592064 5.210894 36,975 33 421 0
2018-12-14 16:40:34 GMT 52.582291 5.200457 37,000 32 420 -64
2018-12-14 16:40:31 GMT 52.582291 5.200457 36,975 33 421 0
2018-12-14 16:40:28 GMT 52.577866 5.195827 37,000 33 421 0
2018-12-14 16:40:25 GMT 52.572838 5.190412 37,000 33 421 0
2018-12-14 16:40:22 GMT 52.568138 5.185390 37,000 33 421 0
2018-12-14 16:40:19 GMT 52.563263 5.180130 37,000 33 421 64
2018-12-14 16:40:16 GMT 52.558361 5.174953 37,000 33 420 64
2018-12-14 16:40:12 GMT 52.551682 5.167770 36,975 33 421 -64
2018-12-14 16:40:09 GMT 52.546967 5.162735 36,975 33 421 0
2018-12-14 16:40:06 GMT 52.542114 5.157453 36,975 33 421 0
2018-12-14 16:40:03 GMT 52.536900 5.151882 36,975 33 421 -64
2018-12-14 16:40:00 GMT 52.530895 5.145447 37,000 33 421 0
2018-12-14 16:39:57 GMT 52.526825 5.141068 37,000 33 421 0
2018-12-14 16:39:54 GMT 52.522430 5.136414 37,000 33 421 0
2018-12-14 16:39:51 GMT 52.517536 5.131165 37,000 33 421 0
2018-12-14 16:39:48 GMT 52.507919 5.120850 37,000 33 421 0
2018-12-14 16:39:42 GMT 52.501740 5.114288 37,000 33 421 0
2018-12-14 16:39:39 GMT 52.496841 5.109024 37,000 33 421 0
2018-12-14 16:39:36 GMT 52.492584 5.104483 36,975 33 421 0
2018-12-14 16:39:33 GMT 52.488209 5.099775 36,975 33 421 -64
2018-12-14 16:39:30 GMT 52.483459 5.094753 37,000 33 421 0
2018-12-14 16:39:27 GMT 52.478577 5.089493 37,000 33 421 0
2018-12-14 16:39:24 GMT 52.468655 5.078823 37,000 33 421 0
2018-12-14 16:39:21 GMT 52.468655 5.078823 37,000 33 421 0
2018-12-14 16:39:18 GMT 52.462605 5.072388 37,000 33 422 0
2018-12-14 16:39:15 GMT 52.458389 5.067825 36,975 33 422 -64
2018-12-14 16:39:12 GMT 52.454315 5.063477 37,000 33 421 -64
2018-12-14 16:39:09 GMT 52.448776 5.057478 37,000 33 421 -64
2018-12-14 16:39:06 GMT 52.443378 5.051749 37,000 33 421 -64
2018-12-14 16:39:00 GMT 52.434254 5.041940 37,000 33 421 0
2018-12-14 16:38:57 GMT 52.429226 5.036604 37,000 33 421 0
2018-12-14 16:38:54 GMT 52.424477 5.031503 37,000 33 421 0
2018-12-14 16:38:51 GMT 52.419449 5.026088 37,000 33 421 0
2018-12-14 16:38:48 GMT 52.409302 5.015337 37,000 33 421 0
2018-12-14 16:38:45 GMT 52.409302 5.015337 37,000 33 422 0
2018-12-14 16:38:42 GMT 52.404099 5.009766 37,000 33 422 64
2018-12-14 16:38:39 GMT 52.400688 5.006077 37,000 33 422 64
2018-12-14 16:38:36 GMT 52.395149 5.000192 37,000 33 421 0
2018-12-14 16:38:33 GMT 52.390228 4.994965 37,000 33 421 0
2018-12-14 16:38:30 GMT 52.385326 4.989755 36,975 33 421 0
2018-12-14 16:38:27 GMT 52.375225 4.979004 37,000 32 420 0
2018-12-14 16:38:24 GMT 52.375225 4.979004 37,000 32 420 0
2018-12-14 16:38:21 GMT 52.371174 4.974688 37,000 32 418 0
2018-12-14 16:38:18 GMT 52.366287 4.969559 37,000 32 419 64
2018-12-14 16:38:15 GMT 52.362717 4.965744 37,000 32 414 -64
2018-12-14 16:38:12 GMT 52.355438 4.958051 37,000 32 418 0
2018-12-14 16:38:09 GMT 52.351547 4.953918 37,000 32 418 0
2018-12-14 16:38:06 GMT 52.346054 4.948120 37,000 32 416 0
2018-12-14 16:38:03 GMT 52.340561 4.942322 37,000 32 416 0
2018-12-14 16:38:00 GMT 52.337330 4.938904 37,000 32 416 0
2018-12-14 16:37:57 GMT 52.330536 4.931763 37,000 32 415 0
2018-12-14 16:37:54 GMT 52.325684 4.926682 37,000 32 415 0
2018-12-14 16:37:51 GMT 52.323303 4.924164 37,000 32 415 0
2018-12-14 16:37:48 GMT 52.317966 4.918501 37,000 32 415 0
2018-12-14 16:37:45 GMT 52.312656 4.912929 37,000 33 414 0
2018-12-14 16:37:42 GMT 52.307026 4.906965 37,000 33 414 0
2018-12-14 16:37:39 GMT 52.297897 4.897232 37,000 33 414 64
2018-12-14 16:37:36 GMT 52.293430 4.892447 37,000 32 418 -64
2018-12-14 16:37:33 GMT 52.293430 4.892447 36,975 33 414 0
2018-12-14 16:37:30 GMT 52.288776 4.887582 36,975 33 414 0
2018-12-14 16:37:27 GMT 52.283615 4.882126 37,000 32 414 -64
2018-12-14 16:37:23 GMT 52.277370 4.875497 36,975 32 414 -64
2018-12-14 16:37:20 GMT 52.272537 4.870453 36,975 32 414 -64
2018-12-14 16:37:14 GMT 52.262104 4.859410 36,975 32 414 -64
2018-12-14 16:37:11 GMT 52.257774 4.854858 36,975 32 414 -64
2018-12-14 16:37:08 GMT 52.253265 4.850082 36,975 32 414 0
2018-12-14 16:37:05 GMT 52.250061 4.846725 36,975 32 414 0
2018-12-14 16:37:02 GMT 52.244087 4.840419 37,000 32 415 -64
2018-12-14 16:36:59 GMT 52.239944 4.836025 37,000 32 415 0
2018-12-14 16:36:56 GMT 52.233147 4.828962 37,000 32 415 0
2018-12-14 16:36:53 GMT 52.227997 4.823532 37,000 32 414 0
2018-12-14 16:36:50 GMT 52.223969 4.819336 37,000 32 414 0
2018-12-14 16:36:47 GMT 52.220123 4.815292 37,000 32 414 -64
2018-12-14 16:36:44 GMT 52.216095 4.811096 37,000 32 414 -64
2018-12-14 16:36:41 GMT 52.209824 4.804557 36,975 32 414 -64
2018-12-14 16:36:38 GMT 52.204971 4.799500 37,000 32 415 0
2018-12-14 16:36:35 GMT 52.195633 4.789658 37,000 32 413 0
2018-12-14 16:36:32 GMT 52.195633 4.789658 37,000 32 415 0
2018-12-14 16:36:29 GMT 52.189480 4.783290 36,975 32 415 0
2018-12-14 16:36:26 GMT 52.186268 4.779916 37,000 32 415 0
2018-12-14 16:36:23 GMT 52.180450 4.773795 36,975 32 415 0
2018-12-14 16:36:20 GMT 52.171600 4.764557 36,975 32 415 0
2018-12-14 16:36:17 GMT 52.171600 4.764557 36,975 32 415 -64
2018-12-14 16:36:14 GMT 52.167557 4.760298 36,975 32 415 -64
2018-12-14 16:36:11 GMT 52.160805 4.753156 37,000 33 416 -64
2018-12-14 16:36:08 GMT 52.156754 4.748919 37,000 33 416 0
2018-12-14 16:36:05 GMT 52.149216 4.740906 37,000 33 416 0
2018-12-14 16:36:02 GMT 52.141438 4.732753 37,000 33 416 0
2018-12-14 16:35:59 GMT 52.141438 4.732753 37,000 32 417 0
2018-12-14 16:35:53 GMT 52.133247 4.724043 37,000 32 417 0
2018-12-14 16:35:49 GMT 52.125137 4.715576 37,000 32 416 0
2018-12-14 16:35:46 GMT 52.122074 4.712350 37,000 32 416 0
2018-12-14 16:35:43 GMT 52.116581 4.706543 37,000 32 416 0
2018-12-14 16:35:39 GMT 52.109131 4.698774 36,975 32 418 0
2018-12-14 16:35:36 GMT 52.106247 4.695714 36,975 32 417 0
2018-12-14 16:35:33 GMT 52.099449 4.688572 36,975 33 418 0
2018-12-14 16:35:30 GMT 52.096191 4.685198 36,975 32 418 0
2018-12-14 16:35:27 GMT 52.089569 4.678268 36,975 32 418 0
2018-12-14 16:35:24 GMT 52.085495 4.673996 36,975 32 418 0
2018-12-14 16:35:21 GMT 52.079201 4.667385 36,975 32 418 0
2018-12-14 16:35:18 GMT 52.076733 4.664795 36,975 32 418 -64
2018-12-14 16:35:15 GMT 52.070755 4.658508 36,975 32 418 -64
2018-12-14 16:35:12 GMT 52.065231 4.652710 36,975 33 418 0
2018-12-14 16:35:09 GMT 52.055363 4.642351 37,000 33 418 0
2018-12-14 16:35:06 GMT 52.055363 4.642351 37,000 33 418 0
2018-12-14 16:35:03 GMT 52.052105 4.638899 37,000 32 418 -64
2018-12-14 16:35:00 GMT 52.046940 4.633484 37,000 32 417 0
2018-12-14 16:34:57 GMT 52.042053 4.628372 36,975 32 418 0
2018-12-14 16:34:54 GMT 52.037209 4.623282 37,000 32 418 0
2018-12-14 16:34:51 GMT 52.031158 4.617004 37,000 32 419 0
2018-12-14 16:34:48 GMT 52.026306 4.611893 37,000 32 419 0
2018-12-14 16:34:45 GMT 52.022404 4.607823 37,000 32 419 0
2018-12-14 16:34:42 GMT 52.017330 4.602565 37,000 32 419 0
2018-12-14 16:34:39 GMT 52.012436 4.597549 37,000 32 419 0
2018-12-14 16:34:33 GMT 52.001549 4.586164 37,000 32 419 0
2018-12-14 16:34:30 GMT 51.998432 4.583025 37,000 32 419 0
2018-12-14 16:34:27 GMT 51.991589 4.575884 37,000 32 419 0
2018-12-14 16:34:24 GMT 51.982090 4.566153 37,000 32 419 -64
2018-12-14 16:34:21 GMT 51.982090 4.566153 37,000 32 419 -64
2018-12-14 16:34:17 GMT 51.976089 4.559937 37,000 32 419 0
2018-12-14 16:34:14 GMT 51.971649 4.555359 37,000 32 419 0
2018-12-14 16:34:11 GMT 51.966293 4.549789 37,000 32 419 0
2018-12-14 16:34:08 GMT 51.960583 4.543945 37,000 32 419 -64
2018-12-14 16:34:05 GMT 51.957138 4.540414 37,000 32 419 0
2018-12-14 16:34:02 GMT 51.947502 4.530448 37,000 32 419 -64
2018-12-14 16:33:59 GMT 51.943405 4.526215 37,000 32 419 -64
2018-12-14 16:33:53 GMT 51.936096 4.518677 37,000 32 419 0
2018-12-14 16:33:50 GMT 51.932968 4.515457 37,000 32 419 0
2018-12-14 16:33:47 GMT 51.922550 4.504630 37,000 32 419 0
2018-12-14 16:33:44 GMT 51.922550 4.504630 37,000 32 419 0
2018-12-14 16:33:41 GMT 51.917336 4.499215 37,000 32 419 -64
2018-12-14 16:33:38 GMT 51.907841 4.489406 37,000 32 419 64
2018-12-14 16:33:35 GMT 51.907841 4.489406 37,000 32 420 0
2018-12-14 16:33:31 GMT 51.901978 4.483337 37,000 32 420 64
2018-12-14 16:33:28 GMT 51.897224 4.478420 37,000 32 420 0
2018-12-14 16:33:25 GMT 51.892365 4.473366 36,975 32 420 -64
2018-12-14 16:33:22 GMT 51.887123 4.467926 37,000 32 420 0
2018-12-14 16:33:19 GMT 51.880280 4.460831 37,000 32 419 0
2018-12-14 16:33:16 GMT 51.876343 4.456812 37,000 32 420 0
2018-12-14 16:33:12 GMT 51.869156 4.449389 36,975 32 420 0
2018-12-14 16:33:09 GMT 51.865402 4.445454 36,975 32 420 0
2018-12-14 16:33:06 GMT 51.861336 4.441299 36,975 32 420 0
2018-12-14 16:33:03 GMT 51.856400 4.436188 36,975 32 420 0
2018-12-14 16:33:00 GMT 51.850021 4.429626 36,975 32 420 -64
2018-12-14 16:32:57 GMT 51.841362 4.420624 36,975 32 420 0
2018-12-14 16:32:54 GMT 51.836792 4.415910 36,975 32 421 0
2018-12-14 16:32:51 GMT 51.836792 4.415910 36,975 32 421 0
2018-12-14 16:32:48 GMT 51.829285 4.408116 36,975 32 421 0
2018-12-14 16:32:45 GMT 51.827492 4.406204 36,975 32 421 0
2018-12-14 16:32:42 GMT 51.815506 4.393863 36,975 32 421 0
2018-12-14 16:32:38 GMT 51.815506 4.393863 36,975 32 421 0
2018-12-14 16:32:35 GMT 51.809940 4.388123 36,975 32 421 0
2018-12-14 16:32:31 GMT 51.801910 4.379759 36,975 32 421 0
2018-12-14 16:32:28 GMT 51.797974 4.375751 36,975 32 421 0
2018-12-14 16:32:25 GMT 51.794037 4.371668 36,975 32 421 0
2018-12-14 16:32:22 GMT 51.789139 4.366546 36,975 32 422 -64
2018-12-14 16:32:19 GMT 51.784199 4.361496 36,975 32 422 -64
2018-12-14 16:32:15 GMT 51.776001 4.352961 36,975 32 423 -64
2018-12-14 16:32:12 GMT 51.770931 4.347687 36,975 32 423 -64
2018-12-14 16:32:09 GMT 51.768139 4.344788 37,000 32 422 0
2018-12-14 16:32:06 GMT 51.761898 4.338379 37,000 32 422 0
2018-12-14 16:32:03 GMT 51.755814 4.332102 37,000 32 422 0
2018-12-14 16:32:00 GMT 51.751518 4.327621 37,000 32 422 0
2018-12-14 16:31:57 GMT 51.746910 4.322891 37,000 32 423 -64
2018-12-14 16:31:54 GMT 51.741302 4.317182 37,000 32 423 0
2018-12-14 16:31:51 GMT 51.736862 4.312579 37,000 32 423 0
2018-12-14 16:31:48 GMT 51.731598 4.307160 37,000 32 423 0
2018-12-14 16:31:45 GMT 51.726986 4.302444 37,000 32 423 -64
2018-12-14 16:31:39 GMT 51.718414 4.293724 36,975 32 424 0
2018-12-14 16:31:36 GMT 51.712971 4.288177 37,000 32 423 -64
2018-12-14 16:31:33 GMT 51.707520 4.282589 36,975 32 423 0
2018-12-14 16:31:29 GMT 51.700588 4.275513 36,975 32 423 0
2018-12-14 16:31:26 GMT 51.691681 4.266333 36,975 32 424 0
2018-12-14 16:31:23 GMT 51.691681 4.266333 36,975 32 424 0
2018-12-14 16:31:20 GMT 51.688019 4.262619 36,975 32 424 0
2018-12-14 16:31:17 GMT 51.681107 4.255569 36,975 32 424 0
2018-12-14 16:31:14 GMT 51.676151 4.250488 36,975 32 424 0
2018-12-14 16:31:10 GMT 51.669399 4.243546 37,000 32 422 0
2018-12-14 16:31:07 GMT 51.664261 4.238273 37,000 32 424 0
2018-12-14 16:31:04 GMT 51.660461 4.234413 37,000 32 424 0
2018-12-14 16:31:00 GMT 51.653851 4.227600 37,000 32 424 0
2018-12-14 16:30:57 GMT 51.643749 4.217300 37,000 32 424 0
2018-12-14 16:30:54 GMT 51.643749 4.217300 37,000 32 424 0
2018-12-14 16:30:51 GMT 51.638302 4.211731 37,000 32 424 0
2018-12-14 16:30:47 GMT 51.631165 4.204497 37,000 32 424 0
2018-12-14 16:30:44 GMT 51.626713 4.199982 37,000 32 424 0
2018-12-14 16:30:41 GMT 51.622559 4.195738 37,000 32 424 -64
2018-12-14 16:30:38 GMT 51.617588 4.190750 37,000 32 424 -64
2018-12-14 16:30:35 GMT 51.611115 4.184158 37,000 32 424 0
2018-12-14 16:30:32 GMT 51.607952 4.180984 37,000 32 424 0
2018-12-14 16:30:29 GMT 51.600494 4.173469 37,000 32 424 0
2018-12-14 16:30:26 GMT 51.596375 4.169237 37,000 32 424 0
2018-12-14 16:30:23 GMT 51.592209 4.165006 37,000 32 424 -64
2018-12-14 16:30:20 GMT 51.588074 4.160843 37,000 32 424 0
2018-12-14 16:30:17 GMT 51.582275 4.154985 37,000 32 424 0
2018-12-14 16:30:14 GMT 51.576481 4.149094 37,000 32 424 0
2018-12-14 16:30:11 GMT 51.572151 4.144669 37,000 32 424 0
2018-12-14 16:30:08 GMT 51.562729 4.135091 36,975 32 425 0
2018-12-14 16:30:02 GMT 51.551949 4.124146 37,000 32 424 0
2018-12-14 16:29:59 GMT 51.551949 4.124146 36,975 32 425 0
2018-12-14 16:29:56 GMT 51.548447 4.120615 36,975 32 425 0
2018-12-14 16:29:53 GMT 51.543823 4.115939 37,000 32 425 0
2018-12-14 16:29:50 GMT 51.536865 4.108812 37,000 32 425 0
2018-12-14 16:29:47 GMT 51.532883 4.104804 37,000 32 425 0
2018-12-14 16:29:44 GMT 51.523598 4.095383 36,975 32 425 0
2018-12-14 16:29:38 GMT 51.517639 4.089279 36,975 32 425 0
2018-12-14 16:29:34 GMT 51.505829 4.077338 37,000 32 426 0
2018-12-14 16:29:28 GMT 51.500381 4.071771 36,975 32 426 0
2018-12-14 16:29:25 GMT 51.496033 4.067391 36,975 32 426 0
2018-12-14 16:29:21 GMT 51.487568 4.058838 36,975 32 426 0
2018-12-14 16:29:17 GMT 51.481934 4.053116 36,975 32 426 0
2018-12-14 16:29:14 GMT 51.473137 4.044189 36,975 32 425 0
2018-12-14 16:29:08 GMT 51.465828 4.036789 36,975 32 425 -64
2018-12-14 16:29:04 GMT 51.460052 4.030869 36,975 32 424 -64
2018-12-14 16:29:01 GMT 51.449905 4.020691 37,000 32 424 -64
2018-12-14 16:28:55 GMT 51.445129 4.015800 37,000 32 424 0
2018-12-14 16:28:52 GMT 51.440964 4.011569 37,000 32 424 0
2018-12-14 16:28:48 GMT 51.435474 4.006042 37,000 32 424 0
2018-12-14 16:28:45 GMT 51.430538 4.001007 37,000 32 424 0
2018-12-14 16:28:42 GMT 51.423229 3.993683 37,000 32 424 0
2018-12-14 16:28:39 GMT 51.419083 3.989522 37,000 32 424 0
2018-12-14 16:28:36 GMT 51.414619 3.984985 37,000 32 424 0
2018-12-14 16:28:33 GMT 51.409313 3.979645 37,000 32 424 0
2018-12-14 16:28:30 GMT 51.405170 3.975449 37,000 32 424 0
2018-12-14 16:28:27 GMT 51.399673 3.969999 37,000 32 424 0
2018-12-14 16:28:24 GMT 51.393402 3.963615 36,975 32 424 0
2018-12-14 16:28:20 GMT 51.388092 3.958344 37,000 32 424 -64
2018-12-14 16:28:17 GMT 51.382915 3.953171 37,000 32 424 -64
2018-12-14 16:28:13 GMT 51.375980 3.946152 37,000 32 424 -64
2018-12-14 16:28:10 GMT 51.372814 3.943024 37,000 32 423 0
2018-12-14 16:28:07 GMT 51.367882 3.937988 37,000 32 423 0
2018-12-14 16:28:04 GMT 51.362900 3.933029 37,000 32 423 0
2018-12-14 16:28:01 GMT 51.352146 3.922195 37,000 32 423 0
2018-12-14 16:27:54 GMT 51.346188 3.916245 37,000 32 423 0
2018-12-14 16:27:51 GMT 51.340229 3.910294 37,000 32 423 0
2018-12-14 16:27:48 GMT 51.336090 3.906159 37,000 32 422 0
2018-12-14 16:27:45 GMT 51.323685 3.893688 37,000 32 422 0
2018-12-14 16:27:41 GMT 51.323685 3.893688 37,000 32 422 0
2018-12-14 16:27:38 GMT 51.319382 3.889383 37,000 32 422 0
2018-12-14 16:27:35 GMT 51.307644 3.877640 37,000 32 422 0
2018-12-14 16:27:29 GMT 51.299541 3.869553 37,000 32 423 0
2018-12-14 16:27:26 GMT 51.292603 3.862659 37,000 32 423 0
2018-12-14 16:27:23 GMT 51.292603 3.862659 37,000 32 423 0
2018-12-14 16:27:19 GMT 51.281013 3.851089 37,000 32 422 0
2018-12-14 16:27:16 GMT 51.277382 3.847427 37,000 32 422 0
2018-12-14 16:27:10 GMT 51.271236 3.841324 36,975 32 422 0
2018-12-14 16:27:05 GMT 51.263325 3.833313 36,975 32 423 0
2018-12-14 16:27:02 GMT 51.253372 3.823391 36,975 32 423 0
2018-12-14 16:26:59 GMT 51.253372 3.823391 36,975 32 423 0
2018-12-14 16:26:55 GMT 51.248428 3.818417 36,975 32 423 0
2018-12-14 16:26:52 GMT 51.243633 3.813400 36,975 32 423 0
2018-12-14 16:26:49 GMT 51.237999 3.807907 36,975 32 423 0
2018-12-14 16:26:46 GMT 51.232040 3.801938 36,975 32 423 0
2018-12-14 16:26:43 GMT 51.228561 3.798449 36,975 32 423 0
2018-12-14 16:26:39 GMT 51.220642 3.790432 37,000 32 423 0
2018-12-14 16:26:36 GMT 51.215656 3.785477 37,000 32 423 0
2018-12-14 16:26:30 GMT 51.207413 3.777144 37,000 32 423 -64
2018-12-14 16:26:27 GMT 51.200108 3.769836 37,000 32 423 0
2018-12-14 16:26:23 GMT 51.193031 3.762741 37,000 32 423 0
2018-12-14 16:26:20 GMT 51.188049 3.757695 37,000 32 423 0
2018-12-14 16:26:17 GMT 51.184746 3.754425 37,000 30 422 0
2018-12-14 16:26:14 GMT 51.179626 3.749233 37,000 32 423 0
2018-12-14 16:26:11 GMT 51.176010 3.745596 37,000 32 423 0
2018-12-14 16:26:08 GMT 51.170242 3.739805 37,000 32 423 0
2018-12-14 16:26:04 GMT 51.164429 3.734015 37,000 32 423 0
2018-12-14 16:26:01 GMT 51.157326 3.726807 37,000 32 423 0
2018-12-14 16:25:57 GMT 51.152710 3.722213 37,000 32 423 0
2018-12-14 16:25:54 GMT 51.146439 3.715903 37,000 32 423 0
2018-12-14 16:25:48 GMT 51.136051 3.705444 37,000 32 422 0
2018-12-14 16:25:45 GMT 51.131908 3.701324 37,000 32 422 0
2018-12-14 16:25:42 GMT 51.126297 3.695712 37,000 32 422 0
2018-12-14 16:25:39 GMT 51.121342 3.690720 37,000 31 423 0
2018-12-14 16:25:35 GMT 51.108585 3.678055 37,000 31 422 0
2018-12-14 16:25:29 GMT 51.105927 3.675446 37,000 31 422 0
2018-12-14 16:25:26 GMT 51.100300 3.669739 37,000 31 422 0
2018-12-14 16:25:23 GMT 51.094803 3.664609 37,000 31 421 0
2018-12-14 16:25:20 GMT 51.089451 3.659439 37,000 31 422 0
2018-12-14 16:25:17 GMT 51.086147 3.656235 37,000 30 422 64
2018-12-14 16:25:14 GMT 51.081299 3.651618 36,975 30 422 64
2018-12-14 16:25:11 GMT 51.074787 3.645248 37,000 30 422 64
2018-12-14 16:25:08 GMT 51.071274 3.642116 36,975 30 422 0
2018-12-14 16:25:05 GMT 51.064266 3.635406 36,975 30 422 0
2018-12-14 16:25:01 GMT 51.059235 3.630685 36,975 31 422 -64
2018-12-14 16:24:58 GMT 51.052231 3.624004 36,975 31 422 0
2018-12-14 16:24:55 GMT 51.048889 3.620812 36,975 31 422 0
2018-12-14 16:24:51 GMT 51.041199 3.613463 36,975 31 422 0
2018-12-14 16:24:48 GMT 51.037312 3.609772 36,975 31 423 0
2018-12-14 16:24:45 GMT 51.032471 3.605118 36,975 31 422 0
2018-12-14 16:24:42 GMT 51.027306 3.600235 37,000 31 422 0
2018-12-14 16:24:39 GMT 51.020782 3.593940 36,975 31 423 0
2018-12-14 16:24:35 GMT 51.015610 3.589040 37,000 31 423 -64
2018-12-14 16:24:32 GMT 51.004028 3.577980 37,000 31 423 0
2018-12-14 16:24:29 GMT 51.004028 3.577980 37,000 31 423 -64
2018-12-14 16:24:25 GMT 50.997513 3.571777 36,975 31 423 0
2018-12-14 16:24:22 GMT 50.994186 3.568552 37,000 31 423 -64
2018-12-14 16:24:19 GMT 50.983292 3.558160 37,000 30 423 0
2018-12-14 16:24:16 GMT 50.983292 3.558160 37,000 31 423 -64
2018-12-14 16:24:13 GMT 50.978935 3.554001 37,000 30 423 0
2018-12-14 16:24:10 GMT 50.972046 3.547440 37,000 30 423 0
2018-12-14 16:24:07 GMT 50.967392 3.543015 37,000 30 423 0
2018-12-14 16:24:04 GMT 50.964039 3.539810 37,000 30 423 0
2018-12-14 16:24:01 GMT 50.959476 3.535461 37,000 30 423 0
2018-12-14 16:23:57 GMT 50.952637 3.528976 37,000 30 424 0
2018-12-14 16:23:54 GMT 50.945744 3.522491 37,000 30 423 0
2018-12-14 16:23:50 GMT 50.939346 3.516442 36,975 30 423 64
2018-12-14 16:23:47 GMT 50.933315 3.510742 37,000 30 423 0
2018-12-14 16:23:44 GMT 50.928268 3.505975 37,000 30 424 0
2018-12-14 16:23:41 GMT 50.925751 3.503599 37,000 30 423 0
2018-12-14 16:23:37 GMT 50.915497 3.494024 37,000 30 423 0
2018-12-14 16:23:34 GMT 50.912273 3.491058 37,000 30 423 0
2018-12-14 16:23:31 GMT 50.906548 3.485718 37,000 30 423 0
2018-12-14 16:23:27 GMT 50.896133 3.475837 36,975 30 424 0
2018-12-14 16:23:21 GMT 50.886578 3.466797 36,975 31 424 0
2018-12-14 16:23:18 GMT 50.886578 3.466797 36,975 31 424 0
2018-12-14 16:23:14 GMT 50.880013 3.460541 37,000 31 425 0
2018-12-14 16:23:11 GMT 50.874802 3.455571 37,000 31 425 0
2018-12-14 16:23:08 GMT 50.867752 3.448816 37,000 31 425 0
2018-12-14 16:23:05 GMT 50.862900 3.444214 37,000 31 425 0
2018-12-14 16:23:02 GMT 50.858040 3.439560 36,975 31 425 0
2018-12-14 16:22:59 GMT 50.854843 3.436494 37,000 31 425 0
2018-12-14 16:22:56 GMT 50.847797 3.429794 37,000 31 424 -64
2018-12-14 16:22:53 GMT 50.841560 3.423843 37,000 31 424 0
2018-12-14 16:22:50 GMT 50.838207 3.420639 37,000 31 424 0
2018-12-14 16:22:47 GMT 50.834858 3.417435 37,000 31 424 0
2018-12-14 16:22:44 GMT 50.827972 3.410884 37,000 31 424 0
2018-12-14 16:22:41 GMT 50.825272 3.408360 36,975 30 425 0
2018-12-14 16:22:38 GMT 50.817680 3.401184 37,000 30 425 0
2018-12-14 16:22:35 GMT 50.812794 3.396530 36,975 30 425 0
2018-12-14 16:22:31 GMT 50.807579 3.391647 36,975 30 425 0
2018-12-14 16:22:25 GMT 50.797485 3.382082 36,975 30 425 0
2018-12-14 16:22:22 GMT 50.792076 3.376999 37,000 30 425 -64
2018-12-14 16:22:19 GMT 50.784630 3.370056 37,000 30 425 -64
2018-12-14 16:22:15 GMT 50.778900 3.364639 37,000 30 425 0
2018-12-14 16:22:11 GMT 50.774014 3.360062 37,000 30 425 0
2018-12-14 16:22:08 GMT 50.769825 3.356094 36,975 30 425 0
2018-12-14 16:22:05 GMT 50.762878 3.349568 37,000 30 425 0
2018-12-14 16:22:02 GMT 50.758347 3.345263 36,975 30 425 0
2018-12-14 16:21:59 GMT 50.753300 3.340454 36,975 30 425 0
2018-12-14 16:21:56 GMT 50.748230 3.335687 36,975 30 426 0
2018-12-14 16:21:53 GMT 50.738262 3.326263 37,000 30 426 -64
2018-12-14 16:21:47 GMT 50.732895 3.321212 36,975 30 426 -64
2018-12-14 16:21:43 GMT 50.725433 3.314234 37,000 30 426 -64
2018-12-14 16:21:39 GMT 50.718155 3.307404 37,000 30 426 0
2018-12-14 16:21:33 GMT 50.709229 3.299016 37,000 30 426 -64
2018-12-14 16:21:30 GMT 50.704140 3.294296 37,000 30 426 -64
2018-12-14 16:21:27 GMT 50.698227 3.288727 37,000 30 426 0
2018-12-14 16:21:22 GMT 50.692291 3.283205 37,000 30 426 0
2018-12-14 16:21:19 GMT 50.686214 3.277512 36,975 30 426 0
2018-12-14 16:21:14 GMT 50.676395 3.268280 36,975 31 427 0
2018-12-14 16:21:10 GMT 50.669643 3.261974 36,975 31 427 0
2018-12-14 16:21:07 GMT 50.658783 3.251736 36,975 31 427 0
2018-12-14 16:21:03 GMT 50.658783 3.251736 36,975 31 427 0
2018-12-14 16:21:00 GMT 50.653725 3.246905 36,975 31 428 0
2018-12-14 16:20:57 GMT 50.647293 3.240822 36,975 31 427 0
2018-12-14 16:20:53 GMT 50.640884 3.234751 36,975 30 427 -64
2018-12-14 16:20:48 GMT 50.632401 3.226788 36,975 30 427 -64
2018-12-14 16:20:42 GMT 50.624115 3.218920 36,975 30 427 -64
2018-12-14 16:20:39 GMT 50.618015 3.213204 36,975 30 427 0
2018-12-14 16:20:36 GMT 50.612915 3.208441 37,000 30 428 0
2018-12-14 16:20:33 GMT 50.598679 3.195070 36,425 30 428 0
2018-12-14 16:20:28 GMT 50.598679 3.195070 37,000 30 427 0
2018-12-14 16:20:25 GMT 50.595112 3.191751 37,000 30 428 -64
2018-12-14 16:20:20 GMT 50.585941 3.183214 37,000 30 427 0
2018-12-14 16:20:17 GMT 50.580505 3.178085 37,000 30 427 0
2018-12-14 16:20:14 GMT 50.567780 3.166231 37,000 30 427 0
2018-12-14 16:20:09 GMT 50.567780 3.166231 36,425 30 427 64
2018-12-14 16:20:06 GMT 50.561829 3.160722 37,000 30 427 64
2018-12-14 16:20:03 GMT 50.556747 3.155967 37,000 30 427 0
2018-12-14 16:19:59 GMT 50.550293 3.149896 37,000 30 428 -64
2018-12-14 16:19:56 GMT 50.545395 3.145356 37,000 30 427 -64
2018-12-14 16:19:53 GMT 50.538414 3.138824 36,975 30 427 -64
2018-12-14 16:19:49 GMT 50.526718 3.127996 37,000 30 427 -64
2018-12-14 16:19:46 GMT 50.526718 3.127996 36,800 30 427 128
2018-12-14 16:19:43 GMT 50.523285 3.124815 36,925 30 426 896
2018-12-14 16:19:40 GMT 50.517517 3.119467 37,000 30 426 640
2018-12-14 16:19:37 GMT 50.513973 3.116183 36,650 30 427 960
2018-12-14 16:19:34 GMT 50.507355 3.110070 36,875 30 427 896
2018-12-14 16:19:31 GMT 50.502613 3.105642 36,775 30 427 896
2018-12-14 16:19:27 GMT 50.494995 3.098578 36,775 30 427 896
2018-12-14 16:19:24 GMT 50.488861 3.092868 36,675 30 427 896
2018-12-14 16:19:21 GMT 50.485622 3.089905 36,700 30 427 896
2018-12-14 16:19:18 GMT 50.481720 3.086291 36,475 30 427 960
2018-12-14 16:19:15 GMT 50.476135 3.081015 36,625 30 427 960
2018-12-14 16:19:12 GMT 50.471004 3.076320 36,550 30 428 960
2018-12-14 16:19:08 GMT 50.463501 3.069378 36,025 30 429 1024
2018-12-14 16:19:05 GMT 50.452431 3.059024 36,400 30 430 1088
2018-12-14 16:19:02 GMT 50.452431 3.059024 36,325 30 429 1024
2018-12-14 16:18:58 GMT 50.446976 3.053982 36,300 30 430 1088
2018-12-14 16:18:55 GMT 50.441864 3.049226 36,150 30 430 1088
2018-12-14 16:18:52 GMT 50.435345 3.043213 36,175 30 430 1152
2018-12-14 16:18:48 GMT 50.430222 3.038443 36,075 30 431 0
2018-12-14 16:18:45 GMT 50.424267 3.032895 36,075 30 431 832
2018-12-14 16:18:40 GMT 50.415024 3.024276 36,000 30 431 64
2018-12-14 16:18:37 GMT 50.411419 3.020943 36,000 30 431 64
2018-12-14 16:18:34 GMT 50.406281 3.016181 36,000 30 431 0
2018-12-14 16:18:31 GMT 50.399780 3.010109 35,975 30 431 0
2018-12-14 16:18:27 GMT 50.392750 3.003573 36,000 30 431 0
2018-12-14 16:18:24 GMT 50.388611 2.999701 36,000 30 431 0
2018-12-14 16:18:21 GMT 50.382980 2.994425 36,000 30 431 0
2018-12-14 16:18:18 GMT 50.376480 2.988354 36,000 30 432 -64
2018-12-14 16:18:14 GMT 50.371475 2.983753 38,000 30 429 64
2018-12-14 16:18:11 GMT 50.364449 2.977295 36,000 30 431 0
2018-12-14 16:18:08 GMT 50.361889 2.974919 36,000 30 431 0
2018-12-14 16:18:05 GMT 50.353786 2.967571 36,000 30 430 0
2018-12-14 16:18:02 GMT 50.345535 2.960020 36,000 30 431 0
2018-12-14 16:17:56 GMT 50.340565 2.955471 36,000 30 431 0
2018-12-14 16:17:53 GMT 50.335419 2.950696 36,000 30 430 -64
2018-12-14 16:17:50 GMT 50.328873 2.944697 35,975 30 431 0
2018-12-14 16:17:46 GMT 50.317062 2.933856 36,000 30 430 -64
2018-12-14 16:17:43 GMT 50.317062 2.933856 36,000 30 427 0
2018-12-14 16:17:36 GMT 50.304161 2.922066 36,000 30 431 0
2018-12-14 16:17:30 GMT 50.296619 2.915163 36,000 30 431 -64
2018-12-14 16:17:27 GMT 50.291153 2.910076 36,000 30 430 0
2018-12-14 16:17:24 GMT 50.284607 2.904149 36,000 30 430 0
2018-12-14 16:17:21 GMT 50.280853 2.900680 36,000 30 430 0
2018-12-14 16:17:17 GMT 50.271435 2.892077 36,000 30 430 0
2018-12-14 16:17:14 GMT 50.268364 2.889182 36,000 30 429 64
2018-12-14 16:17:10 GMT 50.260124 2.881684 36,000 30 430 0
2018-12-14 16:17:07 GMT 50.256363 2.878201 35,975 30 428 0
2018-12-14 16:17:04 GMT 50.250210 2.872554 36,000 30 429 64
2018-12-14 16:16:59 GMT 50.242355 2.865336 35,975 30 429 0
2018-12-14 16:16:55 GMT 50.234657 2.858227 35,975 30 429 -64
2018-12-14 16:16:52 GMT 50.230545 2.854494 35,975 30 429 -64
2018-12-14 16:16:49 GMT 50.225441 2.849764 36,000 30 429 -64
2018-12-14 16:16:46 GMT 50.220135 2.844865 36,000 30 429 0
2018-12-14 16:16:42 GMT 50.212463 2.837797 36,000 30 429 0
2018-12-14 16:16:39 GMT 50.208870 2.834547 36,000 30 428 0
2018-12-14 16:16:33 GMT 50.196899 2.823631 36,000 30 428 0
2018-12-14 16:16:29 GMT 50.192642 2.819728 36,000 30 428 0
2018-12-14 16:16:26 GMT 50.186523 2.814059 36,000 30 428 0
2018-12-14 16:16:21 GMT 50.177994 2.806284 36,000 30 427 0
2018-12-14 16:16:18 GMT 50.165680 2.795153 36,000 30 427 0
2018-12-14 16:16:14 GMT 50.165680 2.795153 36,000 30 427 0
2018-12-14 16:16:10 GMT 50.158035 2.788226 36,000 30 427 64
2018-12-14 16:16:07 GMT 50.152908 2.783589 36,000 30 427 64
2018-12-14 16:16:01 GMT 50.144897 2.776288 36,000 30 427 -64
2018-12-14 16:15:58 GMT 50.138763 2.770707 35,975 30 426 0
2018-12-14 16:15:55 GMT 50.134369 2.766748 36,000 30 426 0
2018-12-14 16:15:51 GMT 50.127029 2.760092 36,000 30 426 0
2018-12-14 16:15:48 GMT 50.120407 2.754099 36,000 30 426 0
2018-12-14 16:15:43 GMT 50.104080 2.738639 36,000 34 429 0
2018-12-14 16:15:37 GMT 50.104080 2.738639 35,975 33 427 128
2018-12-14 16:15:34 GMT 50.098354 2.732552 35,975 34 429 -64
2018-12-14 16:15:31 GMT 50.088577 2.722011 35,975 34 429 0
2018-12-14 16:15:28 GMT 50.088577 2.722011 35,975 34 429 0
2018-12-14 16:15:25 GMT 50.082386 2.715256 35,975 34 429 0
2018-12-14 16:15:21 GMT 50.075588 2.707833 35,975 34 430 0
2018-12-14 16:15:17 GMT 50.070694 2.702564 35,975 34 429 0
2018-12-14 16:15:14 GMT 50.065628 2.697144 35,975 34 429 0
2018-12-14 16:15:11 GMT 50.060600 2.691650 35,975 34 429 0
2018-12-14 16:15:08 GMT 50.056690 2.687419 35,975 34 429 0
2018-12-14 16:15:04 GMT 50.049335 2.679551 35,975 34 429 0
2018-12-14 16:15:01 GMT 50.043182 2.672858 35,975 34 430 0
2018-12-14 16:14:55 GMT 50.035042 2.664036 35,975 34 430 0
2018-12-14 16:14:52 GMT 50.030136 2.658764 35,975 34 430 0
2018-12-14 16:14:49 GMT 50.025101 2.653271 35,975 34 430 -64
2018-12-14 16:14:45 GMT 50.016632 2.644163 36,000 34 428 0
2018-12-14 16:14:42 GMT 50.013382 2.640622 35,975 34 430 0
2018-12-14 16:14:39 GMT 50.008972 2.635902 36,000 34 430 0
2018-12-14 16:14:34 GMT 50.000965 2.627291 36,000 34 429 0
2018-12-14 16:14:31 GMT 49.994450 2.620239 35,975 34 430 0
2018-12-14 16:14:28 GMT 49.991684 2.617276 35,975 35 430 0
2018-12-14 16:14:24 GMT 49.985184 2.610193 36,000 34 430 0
2018-12-14 16:14:21 GMT 49.978043 2.602459 36,000 34 430 -64
2018-12-14 16:14:18 GMT 49.974621 2.598712 35,975 34 430 -64
2018-12-14 16:14:15 GMT 49.968426 2.592031 36,000 34 430 -64
2018-12-14 16:14:11 GMT 49.962708 2.585835 36,000 34 430 0
2018-12-14 16:14:08 GMT 49.951344 2.573473 36,000 34 430 0
2018-12-14 16:14:05 GMT 49.951344 2.573473 36,000 34 430 0
2018-12-14 16:14:02 GMT 49.947433 2.569242 36,000 34 431 0
2018-12-14 16:13:58 GMT 49.937805 2.558875 36,000 34 430 0
2018-12-14 16:13:52 GMT 49.932583 2.553208 36,000 34 430 0
2018-12-14 16:13:49 GMT 49.927643 2.547961 36,000 34 431 0
2018-12-14 16:13:46 GMT 49.922928 2.542829 36,000 34 430 0
2018-12-14 16:13:43 GMT 49.918213 2.537697 36,000 34 430 0
2018-12-14 16:13:40 GMT 49.912472 2.531532 36,000 34 430 0
2018-12-14 16:13:37 GMT 49.907909 2.526633 36,000 34 431 0
2018-12-14 16:13:34 GMT 49.901718 2.519878 36,000 34 430 0
2018-12-14 16:13:31 GMT 49.897945 2.515869 36,000 34 431 0
2018-12-14 16:13:28 GMT 49.893906 2.511460 36,000 34 431 0
2018-12-14 16:13:24 GMT 49.887520 2.504586 36,000 34 431 -64
2018-12-14 16:13:20 GMT 49.878536 2.494861 36,000 34 431 -64
2018-12-14 16:13:14 GMT 49.870331 2.486090 36,000 34 430 64
2018-12-14 16:13:11 GMT 49.865295 2.480670 36,000 34 430 64
2018-12-14 16:13:08 GMT 49.859543 2.474522 36,000 34 431 0
2018-12-14 16:13:05 GMT 49.856461 2.471201 36,000 34 431 0
2018-12-14 16:12:59 GMT 49.845810 2.459824 36,000 34 431 0
2018-12-14 16:12:56 GMT 49.840759 2.454360 35,975 34 430 0
2018-12-14 16:12:53 GMT 49.833893 2.446988 36,000 34 429 0
2018-12-14 16:12:47 GMT 49.826069 2.438519 35,975 35 431 0
2018-12-14 16:12:42 GMT 49.816315 2.427906 35,975 35 431 0
2018-12-14 16:12:38 GMT 49.811455 2.422634 35,975 35 431 -64
2018-12-14 16:12:35 GMT 49.806564 2.417289 36,000 34 430 0
2018-12-14 16:12:32 GMT 49.801666 2.412005 36,000 34 430 0
2018-12-14 16:12:29 GMT 49.792374 2.401958 36,000 34 430 0
2018-12-14 16:12:26 GMT 49.792374 2.401958 36,000 34 430 0
2018-12-14 16:12:23 GMT 49.787151 2.396356 36,000 34 430 0
2018-12-14 16:12:20 GMT 49.781940 2.390714 36,000 34 430 0
2018-12-14 16:12:16 GMT 49.775608 2.383885 36,000 34 430 0
2018-12-14 16:12:13 GMT 49.771187 2.379134 36,000 34 430 0
2018-12-14 16:12:10 GMT 49.764175 2.371601 36,000 34 430 0
2018-12-14 16:12:06 GMT 49.757996 2.364879 36,000 34 430 -64
2018-12-14 16:12:03 GMT 49.746231 2.352303 36,000 34 430 0
2018-12-14 16:11:59 GMT 49.746231 2.352303 36,000 34 430 0
2018-12-14 16:11:55 GMT 49.741344 2.347066 36,000 34 430 0
2018-12-14 16:11:50 GMT 49.732689 2.337861 36,000 34 430 0
2018-12-14 16:11:47 GMT 49.727783 2.332643 36,000 34 430 0
2018-12-14 16:11:44 GMT 49.723526 2.328090 36,000 34 430 0
2018-12-14 16:11:41 GMT 49.719280 2.323608 36,000 34 430 0
2018-12-14 16:11:37 GMT 49.709782 2.313513 36,000 34 430 0
2018-12-14 16:11:34 GMT 49.707184 2.310671 36,000 34 430 0
2018-12-14 16:11:31 GMT 49.701450 2.304605 36,000 34 429 0
2018-12-14 16:11:27 GMT 49.694607 2.297330 36,000 34 429 0
2018-12-14 16:11:24 GMT 49.690842 2.293324 36,000 34 429 0
2018-12-14 16:11:21 GMT 49.686928 2.289165 35,975 34 429 0
2018-12-14 16:11:18 GMT 49.682053 2.283928 36,000 34 429 0
2018-12-14 16:11:15 GMT 49.675827 2.277350 36,000 34 429 0
2018-12-14 16:11:12 GMT 49.670105 2.271279 35,975 34 429 0
2018-12-14 16:11:08 GMT 49.665188 2.266079 35,975 34 430 0
2018-12-14 16:11:03 GMT 49.656528 2.256874 35,975 34 429 -64
2018-12-14 16:11:00 GMT 49.650787 2.250824 35,975 34 429 -64
2018-12-14 16:10:54 GMT 49.640793 2.240172 35,975 34 429 0
2018-12-14 16:10:50 GMT 49.636230 2.235356 35,975 34 429 -64
2018-12-14 16:10:47 GMT 49.629684 2.228418 36,000 34 429 -64
2018-12-14 16:10:44 GMT 49.623642 2.222057 36,000 34 429 -64
2018-12-14 16:10:41 GMT 49.621353 2.219600 36,000 34 429 -64
2018-12-14 16:10:38 GMT 49.613186 2.210924 36,000 34 429 0
2018-12-14 16:10:32 GMT 49.605507 2.202833 36,000 34 429 0
2018-12-14 16:10:29 GMT 49.601395 2.198494 36,000 34 429 0
2018-12-14 16:10:26 GMT 49.595169 2.191917 36,000 34 429 0
2018-12-14 16:10:23 GMT 49.589447 2.185846 36,000 34 429 0
2018-12-14 16:10:20 GMT 49.585533 2.181677 36,000 34 429 0
2018-12-14 16:10:17 GMT 49.582123 2.178040 36,000 34 429 0
2018-12-14 16:10:14 GMT 49.577362 2.173052 36,000 34 429 -64
2018-12-14 16:10:10 GMT 49.569855 2.165102 36,000 34 430 -64
2018-12-14 16:10:07 GMT 49.565414 2.160404 36,000 34 429 -64
2018-12-14 16:10:04 GMT 49.557884 2.152504 36,000 34 429 64
2018-12-14 16:10:01 GMT 49.554623 2.149015 36,000 34 430 -64
2018-12-14 16:09:58 GMT 49.550713 2.144858 38,000 34 429 64
2018-12-14 16:09:55 GMT 49.545456 2.139371 36,000 34 429 64
2018-12-14 16:09:52 GMT 49.538910 2.132504 36,000 34 429 64
2018-12-14 16:09:49 GMT 49.529068 2.122168 36,000 34 429 64
2018-12-14 16:09:46 GMT 49.529068 2.122168 36,000 34 429 64
2018-12-14 16:09:41 GMT 49.520409 2.113012 35,975 34 429 64
2018-12-14 16:09:38 GMT 49.517303 2.109664 35,975 34 429 0
2018-12-14 16:09:35 GMT 49.508816 2.100690 36,000 34 430 0
2018-12-14 16:09:32 GMT 49.508816 2.100690 36,000 34 429 -64
2018-12-14 16:09:29 GMT 49.502254 2.093786 35,975 34 430 -64
2018-12-14 16:09:26 GMT 49.496529 2.087774 35,975 34 430 -64
2018-12-14 16:09:21 GMT 49.488968 2.079813 36,000 34 429 0
2018-12-14 16:09:18 GMT 49.482925 2.073453 36,000 34 429 -64
2018-12-14 16:09:14 GMT 49.476196 2.066442 36,000 34 429 64
2018-12-14 16:09:10 GMT 49.467014 2.056819 36,000 34 430 0
2018-12-14 16:09:04 GMT 49.462589 2.052142 36,000 34 428 0
2018-12-14 16:09:00 GMT 49.454407 2.043602 36,000 34 429 0
2018-12-14 16:08:54 GMT 49.444565 2.033266 36,000 34 429 0
2018-12-14 16:08:51 GMT 49.441132 2.029724 36,000 34 429 0
2018-12-14 16:08:48 GMT 49.436382 2.024751 35,975 34 429 0
2018-12-14 16:08:45 GMT 49.429493 2.017476 35,975 34 429 0
2018-12-14 16:08:40 GMT 49.423580 2.011365 36,000 34 429 -64
2018-12-14 16:08:37 GMT 49.417015 2.004499 36,000 34 428 64
2018-12-14 16:08:34 GMT 49.411469 1.998667 36,000 34 429 -64
2018-12-14 16:08:30 GMT 49.406544 1.993513 36,000 34 429 0
2018-12-14 16:08:27 GMT 49.401627 1.988385 36,000 34 429 0
2018-12-14 16:08:24 GMT 49.395275 1.981659 36,000 34 428 64
2018-12-14 16:08:20 GMT 49.389725 1.975849 36,000 34 428 -64
2018-12-14 16:08:16 GMT 49.376633 1.962186 36,000 34 428 -64
2018-12-14 16:08:13 GMT 49.376633 1.962186 36,000 34 428 0
2018-12-14 16:08:10 GMT 49.374344 1.959792 36,000 34 428 64
2018-12-14 16:08:07 GMT 49.368118 1.953313 36,000 34 428 -64
2018-12-14 16:08:04 GMT 49.355026 1.939650 35,975 34 428 64
2018-12-14 16:07:59 GMT 49.355026 1.939650 36,000 34 427 0
2018-12-14 16:07:56 GMT 49.345093 1.929257 35,975 34 428 -64
2018-12-14 16:07:53 GMT 49.340019 1.924053 35,975 34 428 -64
2018-12-14 16:07:50 GMT 49.340019 1.924053 36,000 34 428 0
2018-12-14 16:07:47 GMT 49.335735 1.919572 36,000 34 428 0
2018-12-14 16:07:44 GMT 49.330353 1.914016 36,000 34 428 0
2018-12-14 16:07:41 GMT 49.326286 1.909742 36,000 34 428 0
2018-12-14 16:07:38 GMT 49.321060 1.904297 36,000 34 427 64
2018-12-14 16:07:35 GMT 49.315346 1.898322 36,000 34 428 0
2018-12-14 16:07:32 GMT 49.304405 1.886974 36,000 34 427 0
2018-12-14 16:07:29 GMT 49.304405 1.886974 36,000 34 427 0
2018-12-14 16:07:25 GMT 49.299332 1.881698 36,000 34 427 0
2018-12-14 16:07:21 GMT 49.293327 1.875410 36,000 34 427 0
2018-12-14 16:07:18 GMT 49.288422 1.870282 36,000 34 427 0
2018-12-14 16:07:14 GMT 49.281921 1.863450 36,000 34 427 0
2018-12-14 16:07:11 GMT 49.271667 1.852746 36,000 34 425 0
2018-12-14 16:07:05 GMT 49.266140 1.846932 36,000 34 427 -64
2018-12-14 16:07:02 GMT 49.262089 1.842667 36,000 34 427 0
2018-12-14 16:06:59 GMT 49.257385 1.837745 36,000 34 427 -64
2018-12-14 16:06:54 GMT 49.249420 1.829364 36,000 34 427 -64
2018-12-14 16:06:50 GMT 49.240490 1.819972 36,000 34 426 64
2018-12-14 16:06:44 GMT 49.233974 1.813178 36,000 34 426 64
2018-12-14 16:06:41 GMT 49.227631 1.806617 36,000 34 426 0
2018-12-14 16:06:38 GMT 49.223545 1.802408 36,000 34 426 0
2018-12-14 16:06:35 GMT 49.211700 1.790067 36,000 34 426 0
2018-12-14 16:06:32 GMT 49.211700 1.790067 36,000 34 426 0
2018-12-14 16:06:29 GMT 49.208603 1.786868 36,000 34 426 0
2018-12-14 16:06:24 GMT 49.198547 1.776316 36,000 34 426 0
2018-12-14 16:06:18 GMT 49.183960 1.761122 36,000 33 424 0
2018-12-14 16:06:14 GMT 49.183960 1.761122 35,975 34 425 0
2018-12-14 16:06:11 GMT 49.179089 1.756078 35,975 34 425 0
2018-12-14 16:06:08 GMT 49.173080 1.749790 35,975 34 424 -64
2018-12-14 16:06:02 GMT 49.164963 1.741333 36,000 34 424 -64
2018-12-14 16:05:59 GMT 49.160568 1.736826 35,975 37 426 -64
2018-12-14 16:05:56 GMT 49.154755 1.730769 36,000 34 424 0
2018-12-14 16:05:52 GMT 49.149399 1.725206 36,000 34 424 0
2018-12-14 16:05:49 GMT 49.142078 1.717626 36,000 34 425 0
2018-12-14 16:05:45 GMT 49.138229 1.713585 36,000 34 424 -64
2018-12-14 16:05:41 GMT 49.130116 1.705121 35,975 33 424 0
2018-12-14 16:05:38 GMT 49.123764 1.698585 36,000 34 424 0
2018-12-14 16:05:35 GMT 49.121502 1.696304 36,000 33 424 0
2018-12-14 16:05:32 GMT 49.116802 1.691461 35,975 33 424 0
2018-12-14 16:05:28 GMT 49.108513 1.682932 35,975 33 424 64
2018-12-14 16:05:25 GMT 49.105087 1.679429 35,975 33 424 64
2018-12-14 16:05:21 GMT 49.097294 1.671440 35,975 34 424 64
2018-12-14 16:05:14 GMT 49.086960 1.660555 35,975 36 425 -64
2018-12-14 16:05:11 GMT 49.082062 1.655062 36,000 39 429 0
2018-12-14 16:05:08 GMT 49.077511 1.649756 35,975 38 427 -64
2018-12-14 16:05:04 GMT 49.071487 1.642456 35,975 40 429 -64
2018-12-14 16:05:00 GMT 49.065083 1.634289 36,000 43 432 0
2018-12-14 16:04:57 GMT 49.060547 1.628371 36,000 42 431 0
2018-12-14 16:04:54 GMT 49.050201 1.613582 36,000 47 437 0
2018-12-14 16:04:51 GMT 49.050201 1.613582 36,000 45 434 0
2018-12-14 16:04:48 GMT 49.048050 1.610342 36,000 47 437 0
2018-12-14 16:04:45 GMT 49.043156 1.602703 36,000 48 438 0
2018-12-14 16:04:42 GMT 49.039570 1.596848 36,000 48 438 0
2018-12-14 16:04:38 GMT 49.034168 1.587669 36,000 48 438 0
2018-12-14 16:04:35 GMT 49.030106 1.580764 36,000 48 438 0
2018-12-14 16:04:31 GMT 49.024750 1.571538 36,000 48 439 0
2018-12-14 16:04:28 GMT 49.019623 1.562805 36,000 48 439 0
2018-12-14 16:04:23 GMT 49.013454 1.552180 35,975 48 439 -64
2018-12-14 16:04:20 GMT 49.008224 1.543086 35,975 48 439 -64
2018-12-14 16:04:16 GMT 49.005020 1.537593 36,000 47 438 -64
2018-12-14 16:04:13 GMT 48.999802 1.529001 36,000 23 414 -64
2018-12-14 16:04:09 GMT 48.995255 1.522112 36,000 22 412 -64
2018-12-14 16:04:06 GMT 48.989990 1.514523 36,000 22 412 -64
2018-12-14 16:04:02 GMT 48.979240 1.500646 36,000 37 428 0
2018-12-14 16:03:59 GMT 48.979240 1.500646 36,000 34 426 0
2018-12-14 16:03:54 GMT 48.965878 1.485901 36,000 33 425 0
2018-12-14 16:03:51 GMT 48.965878 1.485901 36,000 32 424 0
2018-12-14 16:03:48 GMT 48.960758 1.480914 36,000 29 422 0
2018-12-14 16:03:45 GMT 48.955307 1.475830 36,000 29 422 0
2018-12-14 16:03:41 GMT 48.950375 1.471662 36,000 23 414 -64
2018-12-14 16:03:38 GMT 48.945442 1.467687 36,000 24 417 0
2018-12-14 16:03:35 GMT 48.932549 1.458580 36,000 23 415 0
2018-12-14 16:03:31 GMT 48.932549 1.458580 36,000 23 414 -64
2018-12-14 16:03:28 GMT 48.926239 1.454491 36,000 22 413 0
2018-12-14 16:03:25 GMT 48.921329 1.451279 36,000 23 414 -64
2018-12-14 16:03:22 GMT 48.916206 1.448027 36,000 23 414 -64
2018-12-14 16:03:19 GMT 48.911972 1.445280 36,000 22 413 0
2018-12-14 16:03:16 GMT 48.907223 1.442245 36,000 22 413 0
2018-12-14 16:03:13 GMT 48.900742 1.438082 36,000 22 413 0
2018-12-14 16:03:09 GMT 48.893536 1.433427 36,000 22 413 0
2018-12-14 16:03:06 GMT 48.889999 1.431186 36,000 23 413 0
2018-12-14 16:03:02 GMT 48.882645 1.426416 36,000 22 411 0
2018-12-14 16:02:58 GMT 48.875793 1.422025 36,000 22 412 0
2018-12-14 16:02:55 GMT 48.868423 1.417307 36,000 22 412 0
2018-12-14 16:02:48 GMT 48.856979 1.409983 36,000 22 412 0
2018-12-14 16:02:45 GMT 48.846451 1.403222 36,000 22 412 0
2018-12-14 16:02:42 GMT 48.840141 1.399094 36,000 22 412 0
2018-12-14 16:02:38 GMT 48.840141 1.399094 35,975 23 413 0
2018-12-14 16:02:35 GMT 48.834183 1.395264 35,975 22 411 0
2018-12-14 16:02:31 GMT 48.827866 1.391179 35,975 23 413 0
2018-12-14 16:02:28 GMT 48.822590 1.387819 36,000 22 412 0
2018-12-14 16:02:24 GMT 48.814026 1.382254 36,000 22 412 0
2018-12-14 16:02:21 GMT 48.811020 1.380404 36,000 22 412 -64
2018-12-14 16:02:18 GMT 48.805038 1.376544 36,000 22 412 0
2018-12-14 16:02:15 GMT 48.795044 1.370192 38,000 22 410 64
2018-12-14 16:02:12 GMT 48.795044 1.370192 36,000 22 411 0
2018-12-14 16:02:09 GMT 48.789597 1.366812 36,000 22 411 0
2018-12-14 16:02:03 GMT 48.771381 1.355221 36,000 22 411 0
2018-12-14 16:02:00 GMT 48.771381 1.355221 36,000 22 411 -64
2018-12-14 16:01:57 GMT 48.768585 1.353502 36,000 22 411 -64
2018-12-14 16:01:54 GMT 48.757511 1.346548 35,975 22 410 64
2018-12-14 16:01:48 GMT 48.744896 1.338597 35,975 22 411 0
2018-12-14 16:01:45 GMT 48.739655 1.335261 35,975 22 411 0
2018-12-14 16:01:41 GMT 48.739655 1.335261 35,975 22 411 -64
2018-12-14 16:01:37 GMT 48.730728 1.329627 35,975 22 411 -64
2018-12-14 16:01:34 GMT 48.727203 1.327444 35,975 22 411 -64
2018-12-14 16:01:31 GMT 48.721294 1.323636 35,975 22 411 0
2018-12-14 16:01:27 GMT 48.716221 1.320455 35,975 22 410 0
2018-12-14 16:01:24 GMT 48.709560 1.316263 35,975 22 410 -64
2018-12-14 16:01:21 GMT 48.704117 1.312794 35,975 22 410 0
2018-12-14 16:01:15 GMT 48.694702 1.306880 35,975 22 410 -64
2018-12-14 16:01:12 GMT 48.687378 1.302162 36,000 22 410 -64
2018-12-14 16:01:09 GMT 48.682297 1.298922 36,000 22 410 0
2018-12-14 16:01:06 GMT 48.677261 1.295753 36,000 22 410 0
2018-12-14 16:01:03 GMT 48.664856 1.287865 36,000 22 410 0
2018-12-14 16:00:59 GMT 48.664856 1.287865 36,000 22 409 0
2018-12-14 16:00:55 GMT 48.659454 1.284414 35,975 22 408 0
2018-12-14 16:00:52 GMT 48.655281 1.281786 36,000 22 409 0
2018-12-14 16:00:48 GMT 48.647926 1.277161 36,000 22 409 0
2018-12-14 16:00:44 GMT 48.639908 1.272090 35,975 22 409 0
2018-12-14 16:00:40 GMT 48.632053 1.267186 35,975 22 409 0
2018-12-14 16:00:35 GMT 48.624229 1.262199 35,975 22 410 0
2018-12-14 16:00:32 GMT 48.618988 1.258850 35,975 22 410 -64
2018-12-14 16:00:29 GMT 48.614643 1.256128 35,975 22 410 -64
2018-12-14 16:00:26 GMT 48.608551 1.252230 36,000 22 410 -64
2018-12-14 16:00:23 GMT 48.603840 1.249261 35,975 22 409 -64
2018-12-14 16:00:20 GMT 48.598442 1.245792 36,000 22 409 64
2018-12-14 16:00:16 GMT 48.591980 1.241737 36,000 22 409 0
2018-12-14 16:00:13 GMT 48.584152 1.236807 36,000 22 409 64
2018-12-14 16:00:09 GMT 48.577866 1.232854 35,975 22 409 64
2018-12-14 16:00:05 GMT 48.570511 1.228215 35,975 22 409 -64
2018-12-14 16:00:01 GMT 48.565659 1.225187 35,975 22 409 -128
2018-12-14 15:59:58 GMT 48.560081 1.221651 35,975 22 409 -128
2018-12-14 15:59:55 GMT 48.555542 1.218778 36,000 22 408 0
2018-12-14 15:59:52 GMT 48.549606 1.215073 36,000 22 409 0
2018-12-14 15:59:48 GMT 48.541946 1.210327 35,975 22 408 0
2018-12-14 15:59:44 GMT 48.535309 1.206172 36,000 22 408 0
2018-12-14 15:59:41 GMT 48.530056 1.202858 36,000 22 408 0
2018-12-14 15:59:38 GMT 48.524330 1.199317 36,000 22 408 0
2018-12-14 15:59:34 GMT 48.518234 1.195467 36,000 22 407 0
2018-12-14 15:59:31 GMT 48.512146 1.191664 36,000 22 408 0
2018-12-14 15:59:27 GMT 48.505875 1.187721 36,000 22 408 0
2018-12-14 15:59:24 GMT 48.500793 1.184552 36,000 22 408 0
2018-12-14 15:59:19 GMT 48.493149 1.179763 36,000 22 408 0
2018-12-14 15:59:16 GMT 48.486145 1.175396 36,000 22 408 0
2018-12-14 15:59:13 GMT 48.481613 1.172579 35,975 22 408 0
2018-12-14 15:59:10 GMT 48.469620 1.165044 36,000 22 408 0
2018-12-14 15:59:06 GMT 48.469620 1.165044 36,000 22 408 0
2018-12-14 15:59:03 GMT 48.463860 1.161443 35,975 22 408 0
2018-12-14 15:59:00 GMT 48.458084 1.157829 35,975 22 408 0
2018-12-14 15:58:56 GMT 48.451996 1.153987 36,000 22 408 -64
2018-12-14 15:58:49 GMT 48.440186 1.146592 36,000 22 408 0
2018-12-14 15:58:45 GMT 48.433548 1.142437 36,000 22 408 0
2018-12-14 15:58:41 GMT 48.425720 1.137508 36,000 22 407 0
2018-12-14 15:58:37 GMT 48.418762 1.133141 36,000 22 407 0
2018-12-14 15:58:34 GMT 48.414230 1.130254 36,000 22 407 0
2018-12-14 15:58:31 GMT 48.407482 1.126026 36,000 22 407 0
2018-12-14 15:58:28 GMT 48.402969 1.123141 36,000 22 407 0
2018-12-14 15:58:24 GMT 48.397057 1.119449 35,975 22 407 0
2018-12-14 15:58:19 GMT 48.386444 1.112788 36,000 22 407 0
2018-12-14 15:58:14 GMT 48.379852 1.108633 36,000 22 407 0
2018-12-14 15:58:10 GMT 48.373260 1.104478 36,000 22 407 64
2018-12-14 15:58:07 GMT 48.367683 1.100946 36,000 22 407 0
2018-12-14 15:58:03 GMT 48.360374 1.096392 35,975 22 407 0
2018-12-14 15:58:00 GMT 48.355019 1.092995 35,975 22 407 -64
2018-12-14 15:57:56 GMT 48.348907 1.089196 35,975 22 407 -64
2018-12-14 15:57:53 GMT 48.342865 1.085322 36,000 22 407 -64
2018-12-14 15:57:50 GMT 48.338150 1.082435 36,000 22 407 0
2018-12-14 15:57:47 GMT 48.332256 1.078684 36,000 22 407 0
2018-12-14 15:57:44 GMT 48.322723 1.072716 36,000 22 407 0
2018-12-14 15:57:41 GMT 48.322723 1.072716 36,000 22 407 0
2018-12-14 15:57:38 GMT 48.316452 1.068773 36,000 22 407 0
2018-12-14 15:57:34 GMT 48.310410 1.064970 36,000 22 407 0
2018-12-14 15:57:31 GMT 48.305374 1.061871 36,000 22 407 0
2018-12-14 15:57:28 GMT 48.290962 1.052808 36,000 22 407 0
2018-12-14 15:57:24 GMT 48.286835 1.050180 35,975 22 407 0
2018-12-14 15:57:18 GMT 48.281609 1.046954 35,975 22 407 0
2018-12-14 15:57:14 GMT 48.274521 1.042504 35,975 22 407 0
2018-12-14 15:57:11 GMT 48.269829 1.039581 35,975 22 407 0
2018-12-14 15:57:07 GMT 48.263218 1.035461 35,975 22 407 0
2018-12-14 15:57:04 GMT 48.257355 1.031848 36,000 22 406 0
2018-12-14 15:57:01 GMT 48.245178 1.024264 36,000 22 405 -64
2018-12-14 15:56:54 GMT 48.239662 1.020861 36,000 22 405 0
2018-12-14 15:56:50 GMT 48.233051 1.016741 36,000 22 405 0
2018-12-14 15:56:44 GMT 48.223022 1.010531 36,000 22 404 0
2018-12-14 15:56:41 GMT 48.217319 1.006984 36,000 22 405 0
2018-12-14 15:56:38 GMT 48.207138 1.000671 36,000 22 405 0
2018-12-14 15:56:35 GMT 48.207138 1.000671 36,000 22 405 -64
2018-12-14 15:56:32 GMT 48.201782 0.997361 36,000 22 405 -64
2018-12-14 15:56:28 GMT 48.195019 0.993106 36,000 22 405 0
2018-12-14 15:56:25 GMT 48.189835 0.989896 36,000 22 405 0
2018-12-14 15:56:22 GMT 48.186035 0.987572 36,000 22 404 64
2018-12-14 15:56:19 GMT 48.179993 0.983769 36,000 22 404 0
2018-12-14 15:56:14 GMT 48.170860 0.978145 36,000 22 404 -64
2018-12-14 15:56:11 GMT 48.165665 0.974896 36,000 22 403 0
2018-12-14 15:56:08 GMT 48.160309 0.971603 36,000 22 404 0
2018-12-14 15:56:03 GMT 48.151356 0.966022 36,000 22 403 0
2018-12-14 15:56:00 GMT 48.147720 0.963776 36,000 22 403 0
2018-12-14 15:55:57 GMT 48.142231 0.960318 36,000 22 403 0
2018-12-14 15:55:53 GMT 48.135178 0.955948 36,000 22 403 0
2018-12-14 15:55:49 GMT 48.128078 0.951585 35,975 22 403 0
2018-12-14 15:55:46 GMT 48.121513 0.947500 35,975 22 403 0
2018-12-14 15:55:42 GMT 48.116207 0.944190 36,000 22 403 -64
2018-12-14 15:55:38 GMT 48.108948 0.939743 36,000 22 403 -64
2018-12-14 15:55:33 GMT 48.100006 0.934190 36,000 22 403 0
2018-12-14 15:55:30 GMT 48.093628 0.930317 36,000 22 402 0
2018-12-14 15:55:27 GMT 48.091049 0.928688 36,000 22 403 0
2018-12-14 15:55:24 GMT 48.085373 0.925186 36,000 22 403 0
2018-12-14 15:55:21 GMT 48.079338 0.921513 36,000 22 402 0
2018-12-14 15:55:18 GMT 48.074356 0.918415 36,000 22 402 0
2018-12-14 15:55:14 GMT 48.068527 0.914818 36,000 22 402 0
2018-12-14 15:55:11 GMT 48.063171 0.911522 36,000 22 402 0
2018-12-14 15:55:07 GMT 48.056480 0.907428 36,000 22 402 0
2018-12-14 15:55:04 GMT 48.043957 0.899752 36,000 22 401 0
2018-12-14 15:55:00 GMT 48.043957 0.899752 36,000 22 402 -64
2018-12-14 15:54:56 GMT 48.036896 0.895386 36,000 22 402 -64
2018-12-14 15:54:52 GMT 48.024033 0.887498 36,000 22 401 0
2018-12-14 15:54:49 GMT 48.024033 0.887498 36,000 22 401 0
2018-12-14 15:54:42 GMT 48.012535 0.880456 36,000 20 396 0
2018-12-14 15:54:38 GMT 48.006042 0.876434 36,000 22 401 0
2018-12-14 15:54:34 GMT 47.994751 0.869469 36,000 22 401 0
2018-12-14 15:54:31 GMT 47.994751 0.869469 36,000 22 401 0
2018-12-14 15:54:27 GMT 47.981392 0.861300 36,000 22 400 0
2018-12-14 15:54:24 GMT 47.981392 0.861300 36,000 22 400 0
2018-12-14 15:54:21 GMT 47.977432 0.858856 36,000 22 400 0
2018-12-14 15:54:17 GMT 47.970451 0.854539 36,000 22 400 0
2018-12-14 15:54:12 GMT 47.961044 0.848763 36,000 22 400 0
2018-12-14 15:54:09 GMT 47.955231 0.845173 36,000 22 400 0
2018-12-14 15:54:04 GMT 47.948387 0.840947 36,000 22 399 0
2018-12-14 15:54:01 GMT 47.942242 0.837144 36,000 22 400 0
2018-12-14 15:53:56 GMT 47.934906 0.832626 36,000 22 399 0
2018-12-14 15:53:53 GMT 47.928406 0.828644 36,000 22 399 0
2018-12-14 15:53:48 GMT 47.918701 0.822533 36,000 22 400 0
2018-12-14 15:53:43 GMT 47.911057 0.817795 36,000 22 400 0
2018-12-14 15:53:36 GMT 47.899971 0.810876 35,975 22 400 0
2018-12-14 15:53:32 GMT 47.892990 0.806509 35,975 22 400 0
2018-12-14 15:53:29 GMT 47.887894 0.803307 36,000 22 398 0
2018-12-14 15:53:25 GMT 47.879196 0.797882 36,000 22 398 -64
2018-12-14 15:53:22 GMT 47.875809 0.795753 36,000 22 399 64
2018-12-14 15:53:19 GMT 47.868988 0.791496 36,000 22 398 0
2018-12-14 15:53:16 GMT 47.861160 0.786621 36,000 20 396 0
2018-12-14 15:53:13 GMT 47.861160 0.786621 36,000 22 398 0
2018-12-14 15:53:10 GMT 47.851318 0.780510 36,000 22 399 -64
2018-12-14 15:53:07 GMT 47.844818 0.776527 36,000 21 398 0
2018-12-14 15:53:00 GMT 47.837872 0.772283 36,000 22 398 64
2018-12-14 15:52:57 GMT 47.834427 0.770240 36,000 21 398 0
2018-12-14 15:52:54 GMT 47.827789 0.766228 36,000 21 398 64
2018-12-14 15:52:49 GMT 47.820602 0.762039 35,975 20 397 128
2018-12-14 15:52:46 GMT 47.815659 0.759293 36,000 20 397 128
2018-12-14 15:52:42 GMT 47.808060 0.755241 36,000 19 395 -64
2018-12-14 15:52:39 GMT 47.802521 0.752357 36,000 19 395 0
2018-12-14 15:52:36 GMT 47.797047 0.749465 36,000 19 395 0
2018-12-14 15:52:33 GMT 47.793598 0.747634 36,000 19 396 0
2018-12-14 15:52:30 GMT 47.786339 0.743831 36,000 19 396 0
2018-12-14 15:52:27 GMT 47.781876 0.741508 36,000 20 396 0
2018-12-14 15:52:20 GMT 47.767948 0.734042 36,000 20 396 64
2018-12-14 15:52:16 GMT 47.764133 0.731999 35,975 20 396 64
2018-12-14 15:52:11 GMT 47.754498 0.726788 35,975 19 396 -64
2018-12-14 15:52:07 GMT 47.747131 0.722763 36,000 19 396 0
2018-12-14 15:52:01 GMT 47.736946 0.717351 36,000 19 396 -64
2018-12-14 15:51:57 GMT 47.731476 0.714386 36,000 19 395 0
2018-12-14 15:51:54 GMT 47.725800 0.711296 36,000 19 395 0
2018-12-14 15:51:48 GMT 47.715298 0.705660 36,000 20 397 0
2018-12-14 15:51:45 GMT 47.698288 0.696533 35,975 20 397 0
2018-12-14 15:51:38 GMT 47.698288 0.696533 35,975 20 397 0
2018-12-14 15:51:35 GMT 47.692429 0.693306 35,975 20 396 -64
2018-12-14 15:51:30 GMT 47.679035 0.686082 35,975 20 396 0
2018-12-14 15:51:27 GMT 47.679035 0.686082 36,000 20 396 0
2018-12-14 15:51:23 GMT 47.671959 0.682279 35,975 20 396 0
2018-12-14 15:51:17 GMT 47.661297 0.676504 35,975 20 396 0
2018-12-14 15:51:14 GMT 47.651184 0.670990 35,975 20 397 0
2018-12-14 15:51:06 GMT 47.643795 0.666997 35,975 20 396 0
2018-12-14 15:51:03 GMT 47.638641 0.664192 35,975 20 396 0
2018-12-14 15:50:59 GMT 47.629688 0.659321 35,975 20 396 0
2018-12-14 15:50:56 GMT 47.626419 0.657532 36,000 20 396 0
2018-12-14 15:50:52 GMT 47.619553 0.653755 36,000 20 396 0
2018-12-14 15:50:47 GMT 47.610443 0.648743 35,975 20 396 0
2018-12-14 15:50:44 GMT 47.605949 0.646292 35,975 20 396 0
2018-12-14 15:50:38 GMT 47.588608 0.636795 35,975 20 397 0
2018-12-14 15:50:30 GMT 47.581696 0.633087 35,975 20 397 0
2018-12-14 15:50:27 GMT 47.576202 0.630094 36,000 20 397 0
2018-12-14 15:50:21 GMT 47.565540 0.624249 35,975 20 397 0
2018-12-14 15:50:17 GMT 47.556557 0.619389 35,975 20 397 0
2018-12-14 15:50:13 GMT 47.551201 0.616502 35,975 20 397 0
2018-12-14 15:50:09 GMT 47.545349 0.613312 36,000 20 397 0
2018-12-14 15:50:04 GMT 47.536926 0.608780 36,000 20 397 -64
2018-12-14 15:50:00 GMT 47.528137 0.603973 36,000 20 397 -64
2018-12-14 15:49:55 GMT 47.520355 0.599785 36,000 20 397 0
2018-12-14 15:49:52 GMT 47.516056 0.597417 36,000 20 397 0
2018-12-14 15:49:49 GMT 47.509865 0.594036 36,000 20 397 0
2018-12-14 15:49:44 GMT 47.492592 0.584740 36,000 20 397 0
2018-12-14 15:49:40 GMT 47.492592 0.584740 36,000 20 397 0
2018-12-14 15:49:34 GMT 47.479137 0.577416 36,000 20 397 0
2018-12-14 15:49:31 GMT 47.474487 0.574860 36,000 20 397 0
2018-12-14 15:49:23 GMT 47.466385 0.570465 36,000 20 397 0
2018-12-14 15:49:18 GMT 47.457260 0.565514 36,000 20 397 0
2018-12-14 15:49:13 GMT 47.448120 0.560509 36,000 20 397 0
2018-12-14 15:49:08 GMT 47.439835 0.555977 36,000 20 397 -64
2018-12-14 15:49:02 GMT 47.429142 0.550162 36,000 20 397 0
2018-12-14 15:48:57 GMT 47.420902 0.545654 36,000 20 397 0
2018-12-14 15:48:52 GMT 47.413284 0.541489 36,000 20 397 0
2018-12-14 15:48:47 GMT 47.404003 0.536429 36,000 20 398 0
2018-12-14 15:48:44 GMT 47.397812 0.533048 36,000 20 398 0
2018-12-14 15:48:41 GMT 47.393509 0.530708 36,000 20 398 0
2018-12-14 15:48:36 GMT 47.384407 0.525654 36,000 20 397 0
2018-12-14 15:48:31 GMT 47.373917 0.519928 36,000 20 397 0
2018-12-14 15:48:26 GMT 47.366856 0.516076 36,000 20 397 0
2018-12-14 15:48:22 GMT 47.360138 0.512444 36,000 20 397 0
2018-12-14 15:48:18 GMT 47.353821 0.508942 36,000 20 397 0
2018-12-14 15:48:14 GMT 47.347641 0.505577 35,975 20 397 0
2018-12-14 15:48:10 GMT 47.337482 0.499948 35,975 20 396 0
2018-12-14 15:48:05 GMT 47.329426 0.495582 36,000 20 395 0
2018-12-14 15:48:01 GMT 47.318489 0.489525 36,000 20 395 0
2018-12-14 15:47:54 GMT 47.312119 0.486076 36,000 20 395 0
2018-12-14 15:47:51 GMT 47.306122 0.482780 36,000 20 395 0
2018-12-14 15:47:42 GMT 47.292278 0.475229 36,000 20 394 0
2018-12-14 15:47:39 GMT 47.286804 0.472206 36,000 20 394 0
2018-12-14 15:47:36 GMT 47.281666 0.469384 36,000 20 394 -64
2018-12-14 15:47:32 GMT 47.274311 0.465370 36,000 20 394 -64
2018-12-14 15:47:29 GMT 47.263550 0.459503 36,000 20 394 0
2018-12-14 15:47:26 GMT 47.263550 0.459503 36,000 20 394 0
2018-12-14 15:47:23 GMT 47.258240 0.456619 36,000 20 393 0
2018-12-14 15:47:20 GMT 47.254486 0.454559 36,000 20 393 0
2018-12-14 15:47:11 GMT 47.233566 0.443024 35,975 20 393 0
2018-12-14 15:47:08 GMT 47.233566 0.443024 35,975 20 393 0
2018-12-14 15:47:00 GMT 47.220261 0.435791 36,000 20 392 -64
2018-12-14 15:46:56 GMT 47.213150 0.431900 36,000 20 392 0
2018-12-14 15:46:49 GMT 47.194984 0.421917 36,000 20 392 -64
2018-12-14 15:46:45 GMT 47.194984 0.421917 36,000 20 392 -64
2018-12-14 15:46:39 GMT 47.184998 0.416382 36,000 20 391 -64
2018-12-14 15:46:36 GMT 47.174469 0.410614 36,000 20 391 -64
2018-12-14 15:46:30 GMT 47.169426 0.407762 36,000 20 390 0
2018-12-14 15:46:27 GMT 47.165039 0.405327 36,000 20 390 0
2018-12-14 15:46:24 GMT 47.159653 0.402339 36,000 21 390 0
2018-12-14 15:46:21 GMT 47.154602 0.399490 36,000 21 390 64
2018-12-14 15:46:17 GMT 47.147507 0.395439 35,975 21 390 64
2018-12-14 15:46:14 GMT 47.141823 0.392198 35,975 21 390 0
2018-12-14 15:46:09 GMT 47.133408 0.387405 35,975 21 390 0
2018-12-14 15:46:06 GMT 47.128876 0.384796 35,975 21 390 0
2018-12-14 15:46:03 GMT 47.124180 0.382127 35,975 21 390 0
2018-12-14 15:45:57 GMT 47.112396 0.375389 35,975 21 390 0
2018-12-14 15:45:53 GMT 47.106163 0.371845 35,975 21 389 0
2018-12-14 15:45:47 GMT 47.098114 0.367287 35,975 21 389 -64
2018-12-14 15:45:44 GMT 47.090057 0.362690 36,000 21 389 -64
2018-12-14 15:45:37 GMT 47.080002 0.356915 36,000 21 388 -64
2018-12-14 15:45:34 GMT 47.076187 0.354721 36,000 21 388 -64
2018-12-14 15:45:31 GMT 47.070644 0.351562 36,000 21 388 -64
2018-12-14 15:45:28 GMT 47.064789 0.348267 36,000 21 388 0
2018-12-14 15:45:25 GMT 47.055954 0.343117 36,000 21 388 0
2018-12-14 15:45:16 GMT 47.045609 0.337212 36,000 21 388 64
2018-12-14 15:45:13 GMT 47.040058 0.334027 36,000 21 388 64
2018-12-14 15:45:09 GMT 47.034565 0.330857 35,975 21 388 0
2018-12-14 15:45:05 GMT 47.025055 0.325401 35,975 21 388 0
2018-12-14 15:45:02 GMT 47.022369 0.323885 35,975 21 387 0
2018-12-14 15:44:59 GMT 47.016689 0.320646 35,975 21 387 0
2018-12-14 15:44:56 GMT 47.011368 0.317574 35,975 21 387 -64
2018-12-14 15:44:53 GMT 47.007847 0.315575 35,975 21 387 -64
2018-12-14 15:44:50 GMT 47.002853 0.312698 36,000 21 387 -64
2018-12-14 15:44:46 GMT 46.995693 0.308603 36,000 21 387 0
2018-12-14 15:44:43 GMT 46.983353 0.301506 36,000 21 387 0
2018-12-14 15:44:39 GMT 46.983353 0.301506 36,000 21 387 0
2018-12-14 15:44:35 GMT 46.977859 0.298416 36,000 21 386 0
2018-12-14 15:44:32 GMT 46.970184 0.294025 36,000 21 386 0
2018-12-14 15:44:28 GMT 46.965042 0.291069 36,000 21 386 0
2018-12-14 15:44:25 GMT 46.960693 0.288597 36,000 21 386 0
2018-12-14 15:44:22 GMT 46.955708 0.285715 36,000 21 386 0
2018-12-14 15:44:18 GMT 46.948399 0.281630 36,000 21 385 0
2018-12-14 15:44:11 GMT 46.937923 0.275715 35,975 21 385 0
2018-12-14 15:44:07 GMT 46.923477 0.267517 36,000 21 384 0
2018-12-14 15:44:03 GMT 46.923477 0.267517 36,000 21 384 0
2018-12-14 15:44:00 GMT 46.919487 0.265221 36,000 21 384 0
2018-12-14 15:43:56 GMT 46.912693 0.261418 36,000 21 384 0
2018-12-14 15:43:53 GMT 46.906906 0.258110 36,000 21 384 0
2018-12-14 15:43:50 GMT 46.895283 0.251559 35,975 21 384 0
2018-12-14 15:43:46 GMT 46.895283 0.251559 35,975 21 384 0
2018-12-14 15:43:42 GMT 46.878708 0.242192 36,000 21 384 0
2018-12-14 15:43:36 GMT 46.878708 0.242192 36,000 21 384 0
2018-12-14 15:43:33 GMT 46.867126 0.235670 36,000 21 384 0
2018-12-14 15:43:29 GMT 46.867126 0.235670 36,000 21 384 0
2018-12-14 15:43:24 GMT 46.859024 0.231048 36,000 21 384 0
2018-12-14 15:43:21 GMT 46.853897 0.228167 36,000 21 384 0
2018-12-14 15:43:16 GMT 46.846123 0.223709 36,000 21 383 -64
2018-12-14 15:43:13 GMT 46.841000 0.220825 36,000 21 383 -64
2018-12-14 15:43:08 GMT 46.833088 0.216293 36,000 21 383 0
2018-12-14 15:43:05 GMT 46.828125 0.213497 36,000 21 383 64
2018-12-14 15:43:01 GMT 46.821716 0.209812 36,000 21 383 0
2018-12-14 15:42:57 GMT 46.814980 0.205925 36,000 21 383 0
2018-12-14 15:42:54 GMT 46.809540 0.202845 36,000 21 382 0
2018-12-14 15:42:51 GMT 46.804596 0.200032 36,000 21 382 0
2018-12-14 15:42:44 GMT 46.792923 0.193333 36,000 21 382 0
2018-12-14 15:42:40 GMT 46.786835 0.189916 36,000 21 382 0
2018-12-14 15:42:36 GMT 46.780106 0.186031 36,000 21 381 0
2018-12-14 15:42:31 GMT 46.771729 0.181274 36,000 21 380 0
2018-12-14 15:42:28 GMT 46.767471 0.178863 36,000 21 381 0
2018-12-14 15:42:25 GMT 46.762188 0.175850 36,000 21 380 0
2018-12-14 15:42:22 GMT 46.757629 0.173236 35,975 21 379 -64
2018-12-14 15:42:19 GMT 46.751389 0.169739 36,000 21 380 0
2018-12-14 15:42:15 GMT 46.745010 0.166100 36,000 21 379 0
2018-12-14 15:42:10 GMT 46.736664 0.161378 35,975 21 379 0
2018-12-14 15:42:06 GMT 46.730759 0.158096 35,975 21 379 0
2018-12-14 15:42:02 GMT 46.724064 0.154289 35,975 21 379 0
2018-12-14 15:41:59 GMT 46.719501 0.151680 35,975 21 379 -64
2018-12-14 15:41:55 GMT 46.712631 0.147847 36,000 21 378 -64
2018-12-14 15:41:52 GMT 46.702881 0.142286 36,000 21 378 -64
2018-12-14 15:41:49 GMT 46.702881 0.142286 36,000 21 378 0
2018-12-14 15:41:45 GMT 46.696838 0.138870 36,000 21 378 0
2018-12-14 15:41:42 GMT 46.692268 0.136299 36,000 21 378 0
2018-12-14 15:41:38 GMT 46.685749 0.132660 36,000 21 377 0
2018-12-14 15:41:33 GMT 46.676971 0.127683 36,000 21 376 0
2018-12-14 15:41:30 GMT 46.671925 0.124832 36,000 21 377 -64
2018-12-14 15:41:27 GMT 46.667732 0.122498 36,000 21 376 -64
2018-12-14 15:41:22 GMT 46.659622 0.117902 36,000 21 376 0
2018-12-14 15:41:17 GMT 46.651024 0.113022 36,000 21 375 0
2018-12-14 15:41:13 GMT 46.644562 0.109394 36,000 21 375 0
2018-12-14 15:41:10 GMT 46.637615 0.105469 36,000 21 374 0
2018-12-14 15:41:04 GMT 46.629375 0.100868 36,000 21 373 0
2018-12-14 15:41:00 GMT 46.622623 0.097092 36,000 21 371 0
2018-12-14 15:40:54 GMT 46.613342 0.091843 36,000 21 371 0
2018-12-14 15:40:50 GMT 46.608238 0.088989 36,000 21 369 0
2018-12-14 15:40:47 GMT 46.602932 0.086037 36,000 20 369 0
2018-12-14 15:40:44 GMT 46.597534 0.083015 36,000 20 369 0
2018-12-14 15:40:40 GMT 46.591644 0.079718 35,975 21 366 0
2018-12-14 15:40:37 GMT 46.580681 0.073608 36,000 21 367 0
2018-12-14 15:40:34 GMT 46.580681 0.073608 35,975 21 367 0
2018-12-14 15:40:29 GMT 46.574490 0.070175 35,975 21 366 0
2018-12-14 15:40:26 GMT 46.569260 0.067258 35,975 21 366 0
2018-12-14 15:40:23 GMT 46.564545 0.064578 35,975 21 366 0
2018-12-14 15:40:18 GMT 46.554565 0.058983 35,975 21 366 0
2018-12-14 15:40:15 GMT 46.552704 0.057953 35,975 21 366 0
2018-12-14 15:40:11 GMT 46.546234 0.054329 35,975 21 366 0
2018-12-14 15:40:06 GMT 46.538177 0.049850 35,975 21 365 0
2018-12-14 15:40:02 GMT 46.531849 0.046280 36,000 21 365 0
2018-12-14 15:39:55 GMT 46.520535 0.039963 36,000 21 365 0
2018-12-14 15:39:52 GMT 46.515785 0.037285 35,975 21 365 0
2018-12-14 15:39:47 GMT 46.508102 0.033026 35,975 21 365 0
2018-12-14 15:39:43 GMT 46.502426 0.029869 35,975 21 365 0
2018-12-14 15:39:35 GMT 46.485260 0.020298 36,000 21 365 0
2018-12-14 15:39:25 GMT 46.466721 0.009956 36,000 21 364 128
2018-12-14 15:39:21 GMT 46.466721 0.009956 35,975 21 364 64
2018-12-14 15:39:15 GMT 46.457645 0.004875 35,975 20 364 -128
2018-12-14 15:39:12 GMT 46.441769 -0.003914 36,000 20 364 -192
2018-12-14 15:39:05 GMT 46.441769 -0.003914 36,000 20 364 -64
2018-12-14 15:39:02 GMT 46.438156 -0.005895 36,000 21 363 128
2018-12-14 15:38:59 GMT 46.425152 -0.013184 36,000 20 363 -128
2018-12-14 15:38:54 GMT 46.425152 -0.013184 35,975 21 363 64
2018-12-14 15:38:51 GMT 46.406845 -0.023580 35,975 20 363 -128
2018-12-14 15:38:42 GMT 46.406845 -0.023580 35,975 21 363 -64
2018-12-14 15:38:39 GMT 46.401829 -0.026367 35,975 21 363 -64
2018-12-14 15:38:34 GMT 46.391956 -0.031860 36,000 20 363 -128
2018-12-14 15:38:28 GMT 46.383179 -0.036777 36,000 21 362 0
2018-12-14 15:38:23 GMT 46.375992 -0.040797 36,000 21 362 192
2018-12-14 15:38:19 GMT 46.369446 -0.044414 36,000 21 362 192
2018-12-14 15:38:11 GMT 46.355556 -0.052254 35,975 21 363 -128
2018-12-14 15:38:08 GMT 46.352417 -0.053994 35,975 21 363 -192
2018-12-14 15:38:01 GMT 46.336933 -0.062622 36,000 20 363 64
2018-12-14 15:37:58 GMT 46.333164 -0.064682 36,000 20 363 128
2018-12-14 15:37:50 GMT 46.324692 -0.069351 35,975 20 363 64
2018-12-14 15:37:45 GMT 46.316116 -0.074158 35,975 20 363 0
2018-12-14 15:37:41 GMT 46.310444 -0.077248 35,975 20 363 -64
2018-12-14 15:37:37 GMT 46.300278 -0.082933 36,000 20 363 -128
2018-12-14 15:37:34 GMT 46.300278 -0.082933 36,000 20 363 -64
2018-12-14 15:37:30 GMT 46.294151 -0.086243 36,000 20 363 64
2018-12-14 15:37:27 GMT 46.283539 -0.092148 36,000 20 363 128
2018-12-14 15:37:24 GMT 46.283539 -0.092148 36,000 20 363 128
2018-12-14 15:37:19 GMT 46.276474 -0.096063 35,975 21 363 -64
2018-12-14 15:37:15 GMT 46.269432 -0.099976 35,975 21 363 -64
2018-12-14 15:37:12 GMT 46.264893 -0.102494 35,975 21 363 -64
2018-12-14 15:37:08 GMT 46.259537 -0.105509 35,975 21 363 -64
2018-12-14 15:37:04 GMT 46.252487 -0.109383 36,000 21 363 -64
2018-12-14 15:36:59 GMT 46.242947 -0.114738 36,000 21 363 64
2018-12-14 15:36:51 GMT 46.232483 -0.120515 36,000 21 363 64
2018-12-14 15:36:47 GMT 46.226650 -0.123734 35,975 21 363 0
2018-12-14 15:36:40 GMT 46.215683 -0.129826 35,975 21 363 -64
2018-12-14 15:36:35 GMT 46.207378 -0.134445 36,000 20 363 0
2018-12-14 15:36:30 GMT 46.199883 -0.138634 35,975 20 363 0
2018-12-14 15:36:26 GMT 46.193741 -0.141998 36,000 20 362 0
2018-12-14 15:36:23 GMT 46.188904 -0.144631 35,975 20 362 0
2018-12-14 15:36:19 GMT 46.182770 -0.147980 35,975 20 362 0
2018-12-14 15:36:15 GMT 46.175583 -0.151933 36,000 20 363 0
2018-12-14 15:36:10 GMT 46.167572 -0.156354 36,000 20 363 0
2018-12-14 15:36:05 GMT 46.157894 -0.161705 36,000 21 362 0
2018-12-14 15:35:58 GMT 46.149002 -0.166649 36,000 21 362 0
2018-12-14 15:35:53 GMT 46.142120 -0.170422 36,000 21 362 0
2018-12-14 15:35:48 GMT 46.133835 -0.174977 36,000 21 362 0
2018-12-14 15:35:43 GMT 46.125587 -0.179558 36,000 21 361 0
2018-12-14 15:35:37 GMT 46.117310 -0.184155 36,000 21 361 0
2018-12-14 15:35:32 GMT 46.109062 -0.188690 36,000 20 360 0
2018-12-14 15:35:27 GMT 46.101425 -0.192879 36,000 20 360 0
2018-12-14 15:35:22 GMT 46.092545 -0.197754 36,000 20 360 0
2018-12-14 15:35:18 GMT 46.086807 -0.200912 36,000 21 359 64
2018-12-14 15:35:14 GMT 46.080292 -0.204483 35,975 21 359 64
2018-12-14 15:35:10 GMT 46.075287 -0.207199 35,975 20 360 0
2018-12-14 15:35:06 GMT 46.067677 -0.211418 36,000 21 359 0
2018-12-14 15:35:03 GMT 46.063019 -0.213965 35,975 21 359 -64
2018-12-14 15:34:59 GMT 46.048264 -0.222061 36,000 21 359 0
2018-12-14 15:34:53 GMT 46.048264 -0.222061 36,000 21 359 0
2018-12-14 15:34:47 GMT 46.030712 -0.231743 36,000 21 359 0
2018-12-14 15:34:42 GMT 46.030712 -0.231743 36,000 21 359 0
2018-12-14 15:34:39 GMT 46.024849 -0.235039 35,975 20 359 0
2018-12-14 15:34:32 GMT 46.015491 -0.240120 36,000 20 359 0
2018-12-14 15:34:28 GMT 46.008820 -0.243843 36,000 21 359 0
2018-12-14 15:34:23 GMT 46.001266 -0.247929 36,000 21 359 64
2018-12-14 15:34:20 GMT 45.997662 -0.249939 35,975 20 359 0
2018-12-14 15:34:14 GMT 45.986984 -0.255834 36,000 20 359 -64
2018-12-14 15:34:08 GMT 45.978287 -0.260523 36,000 20 359 0
2018-12-14 15:34:05 GMT 45.973640 -0.263123 36,000 20 358 0
2018-12-14 15:34:00 GMT 45.962036 -0.269567 36,000 20 359 0
2018-12-14 15:33:54 GMT 45.950089 -0.275931 36,000 20 359 0
2018-12-14 15:33:50 GMT 45.950089 -0.275931 36,000 20 359 0
2018-12-14 15:33:47 GMT 45.945602 -0.278410 36,000 20 359 0
2018-12-14 15:33:44 GMT 45.939423 -0.281759 36,000 20 358 0
2018-12-14 15:33:38 GMT 45.931824 -0.285912 36,000 20 358 64
2018-12-14 15:33:34 GMT 45.925140 -0.289530 36,000 20 358 0
2018-12-14 15:33:26 GMT 45.912964 -0.296229 36,000 20 358 0
2018-12-14 15:33:23 GMT 45.908001 -0.298897 36,000 20 358 -64
2018-12-14 15:33:13 GMT 45.892174 -0.307549 35,975 20 358 64
2018-12-14 15:33:05 GMT 45.881187 -0.313522 35,975 20 358 -64
2018-12-14 15:33:02 GMT 45.875473 -0.316661 35,975 20 358 -64
2018-12-14 15:32:54 GMT 45.863358 -0.323273 36,000 20 358 0
2018-12-14 15:32:51 GMT 45.858891 -0.325745 36,000 20 358 -64
2018-12-14 15:32:44 GMT 45.847717 -0.331856 35,975 21 358 0
2018-12-14 15:32:39 GMT 45.840454 -0.335887 36,000 20 358 -64
2018-12-14 15:32:33 GMT 45.831161 -0.340978 36,000 21 358 0
2018-12-14 15:32:30 GMT 45.824982 -0.344395 35,975 21 358 64
2018-12-14 15:32:23 GMT 45.815037 -0.349846 35,975 20 358 -64
2018-12-14 15:32:19 GMT 45.807915 -0.353760 36,000 20 359 -64
2018-12-14 15:32:11 GMT 45.797104 -0.359668 36,000 20 358 0
2018-12-14 15:32:07 GMT 45.790737 -0.363098 36,000 20 359 -64
2018-12-14 15:32:01 GMT 45.781265 -0.368310 36,000 20 359 0
2018-12-14 15:31:56 GMT 45.773666 -0.372396 36,000 20 359 -64
2018-12-14 15:31:50 GMT 45.764374 -0.377421 36,000 20 359 0
2018-12-14 15:31:46 GMT 45.757690 -0.381038 36,000 20 359 -64
2018-12-14 15:31:39 GMT 45.747910 -0.386307 36,000 20 359 0
2018-12-14 15:31:33 GMT 45.738598 -0.391388 35,975 20 359 -64
2018-12-14 15:31:29 GMT 45.732079 -0.394890 36,000 20 359 0
2018-12-14 15:31:22 GMT 45.720428 -0.401202 36,000 20 359 0
2018-12-14 15:31:18 GMT 45.714531 -0.404366 36,000 20 359 0
2018-12-14 15:31:12 GMT 45.705368 -0.409308 36,000 20 360 64
2018-12-14 15:31:07 GMT 45.698517 -0.413017 36,000 20 360 64
2018-12-14 15:31:04 GMT 45.693237 -0.415873 35,975 20 360 0
2018-12-14 15:30:58 GMT 45.676254 -0.425050 36,000 20 360 -64
2018-12-14 15:30:54 GMT 45.676254 -0.425050 36,000 20 360 -64
2018-12-14 15:30:45 GMT 45.664078 -0.431682 35,975 20 361 0
2018-12-14 15:30:41 GMT 45.657688 -0.435196 36,000 20 361 0
2018-12-14 15:30:35 GMT 45.647728 -0.440552 36,000 20 361 0
2018-12-14 15:30:32 GMT 45.643661 -0.442803 36,000 20 361 0
2018-12-14 15:30:24 GMT 45.626358 -0.452114 36,000 20 361 0
2018-12-14 15:30:21 GMT 45.626358 -0.452114 35,975 20 361 0
2018-12-14 15:30:14 GMT 45.614502 -0.458545 36,000 20 360 0
2018-12-14 15:30:11 GMT 45.610428 -0.460756 36,000 20 360 0
2018-12-14 15:30:00 GMT 45.591587 -0.470970 36,000 20 360 0
2018-12-14 15:29:52 GMT 45.574127 -0.480309 36,000 20 360 0
2018-12-14 15:29:41 GMT 45.563690 -0.485877 36,000 20 359 0
2018-12-14 15:29:31 GMT 45.547668 -0.494452 36,000 20 359 0
2018-12-14 15:29:18 GMT 45.527950 -0.505103 36,000 20 358 0
2018-12-14 15:29:07 GMT 45.511703 -0.513946 36,000 20 358 0
2018-12-14 15:28:57 GMT 45.494850 -0.523123 36,000 20 357 0
2018-12-14 15:28:48 GMT 45.481430 -0.530417 36,000 20 357 0
2018-12-14 15:28:44 GMT 45.475716 -0.533507 36,000 20 357 0
2018-12-14 15:28:40 GMT 45.468502 -0.537459 36,000 20 355 64
2018-12-14 15:28:35 GMT 45.461243 -0.541404 36,000 20 355 0
2018-12-14 15:28:26 GMT 45.437683 -0.554073 36,000 20 355 0
2018-12-14 15:28:21 GMT 45.437683 -0.554073 36,000 20 355 0
2018-12-14 15:28:13 GMT 45.428188 -0.559231 36,000 20 355 64
2018-12-14 15:28:02 GMT 45.411301 -0.568281 35,975 20 354 -64
2018-12-14 15:27:58 GMT 45.404114 -0.572205 36,000 20 353 0
2018-12-14 15:27:51 GMT 45.394436 -0.577318 36,000 20 352 -64
2018-12-14 15:27:46 GMT 45.385162 -0.582275 36,000 20 351 -128
2018-12-14 15:27:41 GMT 45.379074 -0.585545 36,000 20 351 0
2018-12-14 15:27:31 GMT 45.362823 -0.594177 35,975 20 349 0
2018-12-14 15:27:27 GMT 45.357941 -0.596745 35,975 20 349 -64
2018-12-14 15:27:23 GMT 45.351887 -0.599961 36,000 20 350 64
2018-12-14 15:27:20 GMT 45.344486 -0.603913 36,000 20 350 0
2018-12-14 15:27:12 GMT 45.333298 -0.609872 36,000 20 349 64
2018-12-14 15:27:06 GMT 45.325562 -0.613992 35,975 20 349 64
2018-12-14 15:27:01 GMT 45.317860 -0.618048 35,975 20 349 -192
2018-12-14 15:26:58 GMT 45.313297 -0.620460 36,000 20 349 -128
2018-12-14 15:26:51 GMT 45.300934 -0.627136 36,000 20 349 64
2018-12-14 15:26:47 GMT 45.295792 -0.629905 36,000 20 351 64
2018-12-14 15:26:40 GMT 45.286240 -0.635049 35,975 20 353 64
2018-12-14 15:26:36 GMT 45.280746 -0.637992 35,975 20 353 64
2018-12-14 15:26:30 GMT 45.270004 -0.643839 35,975 20 356 0
2018-12-14 15:26:27 GMT 45.264313 -0.646885 36,000 20 356 0
2018-12-14 15:26:18 GMT 45.253372 -0.652706 35,975 20 356 -128
2018-12-14 15:26:15 GMT 45.248566 -0.655256 35,975 20 357 -128
2018-12-14 15:26:09 GMT 45.236671 -0.661524 36,000 20 356 0
2018-12-14 15:26:06 GMT 45.233414 -0.663234 36,000 20 356 0
2018-12-14 15:25:58 GMT 45.221214 -0.669697 35,975 20 356 -64
2018-12-14 15:25:55 GMT 45.216419 -0.672243 35,975 20 356 -64
2018-12-14 15:25:47 GMT 45.202515 -0.679583 36,000 20 356 0
2018-12-14 15:25:44 GMT 45.199448 -0.681218 36,000 20 356 64
2018-12-14 15:25:37 GMT 45.188965 -0.686776 36,000 20 356 0
2018-12-14 15:25:34 GMT 45.184952 -0.688923 35,975 20 356 0
2018-12-14 15:25:25 GMT 45.169498 -0.697096 35,975 20 356 0
2018-12-14 15:25:22 GMT 45.166260 -0.698874 36,000 20 356 -64
2018-12-14 15:25:14 GMT 45.149292 -0.707948 36,000 20 356 128
2018-12-14 15:25:06 GMT 45.140488 -0.712607 35,975 20 356 0
2018-12-14 15:25:01 GMT 45.134354 -0.715877 35,975 20 356 -64
2018-12-14 15:24:52 GMT 45.107986 -0.729871 35,975 20 352 -64
2018-12-14 15:24:45 GMT 45.107986 -0.729871 36,000 20 355 64
2018-12-14 15:24:42 GMT 45.099251 -0.734543 35,975 20 355 0
2018-12-14 15:24:33 GMT 45.089539 -0.739681 36,000 20 354 -64
2018-12-14 15:24:29 GMT 45.084633 -0.742314 36,000 20 354 -64
2018-12-14 15:24:20 GMT 45.070992 -0.749482 36,000 20 354 64
2018-12-14 15:24:10 GMT 45.055481 -0.757730 35,975 20 354 64
2018-12-14 15:24:07 GMT 45.050926 -0.760133 35,975 20 354 0
2018-12-14 15:24:01 GMT 45.041885 -0.764858 36,000 20 354 -64
2018-12-14 15:23:57 GMT 45.035431 -0.768258 36,000 20 352 -64
2018-12-14 15:23:52 GMT 45.025928 -0.773196 36,000 20 353 -64
2018-12-14 15:23:49 GMT 45.022579 -0.775005 36,000 20 353 0
2018-12-14 15:23:40 GMT 45.009449 -0.781972 36,000 20 353 64
2018-12-14 15:23:36 GMT 45.003479 -0.785130 36,000 20 353 64
2018-12-14 15:23:31 GMT 44.994183 -0.790011 36,000 20 352 -192
2018-12-14 15:23:27 GMT 44.989758 -0.792355 36,000 20 352 256
2018-12-14 15:23:19 GMT 44.977707 -0.798732 35,975 20 352 128
2018-12-14 15:23:16 GMT 44.972347 -0.801533 35,975 20 352 -64
2018-12-14 15:23:10 GMT 44.962463 -0.806776 35,975 20 352 0
2018-12-14 15:23:05 GMT 44.955448 -0.810443 36,000 20 352 -64
2018-12-14 15:22:58 GMT 44.946121 -0.815342 36,000 20 352 -64
2018-12-14 15:22:54 GMT 44.939575 -0.818816 36,000 20 352 384
2018-12-14 15:22:49 GMT 44.930172 -0.823774 35,925 20 352 960
2018-12-14 15:22:43 GMT 44.923283 -0.827391 35,850 20 352 896
2018-12-14 15:22:38 GMT 44.914436 -0.832080 35,775 20 353 896
2018-12-14 15:22:32 GMT 44.906338 -0.836301 35,675 20 353 896
2018-12-14 15:22:28 GMT 44.898376 -0.840519 35,600 20 354 896
2018-12-14 15:22:22 GMT 44.890369 -0.844741 35,525 20 355 896
2018-12-14 15:22:17 GMT 44.873428 -0.853664 35,250 20 358 1088
2018-12-14 15:22:11 GMT 44.873428 -0.853664 35,300 20 356 832
2018-12-14 15:22:07 GMT 44.865372 -0.857871 35,275 20 357 832
2018-12-14 15:22:03 GMT 44.860764 -0.860283 35,250 20 358 1152
2018-12-14 15:22:00 GMT 44.855923 -0.862829 35,200 20 358 1152
2018-12-14 15:21:55 GMT 44.848797 -0.866580 35,125 20 358 1664
2018-12-14 15:21:49 GMT 44.839645 -0.871386 34,925 20 359 1856
2018-12-14 15:21:45 GMT 44.832779 -0.874983 34,000 25 369 0
2018-12-14 15:21:38 GMT 44.822449 -0.880447 34,575 20 363 1856
2018-12-14 15:21:34 GMT 44.816299 -0.883680 34,450 20 363 1856
2018-12-14 15:21:27 GMT 44.802757 -0.890763 34,250 20 365 1536
2018-12-14 15:21:24 GMT 44.800186 -0.892051 34,175 20 365 1280
2018-12-14 15:21:16 GMT 44.786884 -0.898869 34,025 22 366 320
2018-12-14 15:21:13 GMT 44.783066 -0.901013 34,000 23 367 128
2018-12-14 15:21:04 GMT 44.767090 -0.911211 34,000 25 370 0
2018-12-14 15:20:53 GMT 44.751038 -0.921981 34,000 25 370 0
2018-12-14 15:20:45 GMT 44.738701 -0.930220 34,000 25 370 0
2018-12-14 15:20:42 GMT 44.734818 -0.932857 34,000 25 370 0
2018-12-14 15:20:34 GMT 44.717567 -0.944422 33,975 25 370 0
2018-12-14 15:20:24 GMT 44.706905 -0.951590 34,000 25 369 0
2018-12-14 15:20:21 GMT 44.702591 -0.954437 33,975 25 369 0
2018-12-14 15:20:14 GMT 44.691193 -0.962088 33,975 25 369 0
2018-12-14 15:20:11 GMT 44.685791 -0.965685 34,000 25 369 0
2018-12-14 15:20:03 GMT 44.674210 -0.973402 34,000 25 369 0
2018-12-14 15:20:00 GMT 44.669571 -0.976510 33,975 25 369 0
2018-12-14 15:19:50 GMT 44.653419 -0.987296 34,000 25 369 -64
2018-12-14 15:19:42 GMT 44.641251 -0.995440 34,000 25 369 0
2018-12-14 15:19:39 GMT 44.637085 -0.998252 34,000 25 369 0
2018-12-14 15:19:32 GMT 44.626602 -1.005249 34,000 25 369 0
2018-12-14 15:19:29 GMT 44.621204 -1.008866 34,000 25 369 0
2018-12-14 15:19:22 GMT 44.609474 -1.016704 34,000 25 369 0
2018-12-14 15:19:18 GMT 44.605190 -1.019585 34,000 25 369 0
2018-12-14 15:19:11 GMT 44.594528 -1.026753 34,000 25 369 0
2018-12-14 15:19:08 GMT 44.588242 -1.030949 34,000 25 369 0
2018-12-14 15:19:01 GMT 44.577446 -1.038208 34,000 25 369 0
2018-12-14 15:18:56 GMT 44.572083 -1.041805 34,000 25 369 0
2018-12-14 15:18:50 GMT 44.561874 -1.048606 34,000 25 369 0
2018-12-14 15:18:46 GMT 44.555557 -1.052791 33,975 25 369 64
2018-12-14 15:18:39 GMT 44.544487 -1.060181 33,975 25 369 0
2018-12-14 15:18:35 GMT 44.539215 -1.063647 33,975 25 369 -64
2018-12-14 15:18:28 GMT 44.527496 -1.071363 33,975 25 369 0
2018-12-14 15:18:24 GMT 44.521637 -1.075221 34,000 25 369 0
2018-12-14 15:18:19 GMT 44.513763 -1.080453 34,000 25 369 -64
2018-12-14 15:18:12 GMT 44.504196 -1.086796 34,000 25 369 0
2018-12-14 15:18:08 GMT 44.497562 -1.091197 34,000 25 369 0
2018-12-14 15:18:02 GMT 44.488770 -1.096998 34,000 25 369 0
2018-12-14 15:17:59 GMT 44.483368 -1.100595 34,000 25 369 0
2018-12-14 15:17:56 GMT 44.478756 -1.103657 34,000 25 369 0
2018-12-14 15:17:51 GMT 44.471695 -1.108442 34,000 25 369 0
2018-12-14 15:17:46 GMT 44.463673 -1.113773 34,000 25 369 64
2018-12-14 15:17:39 GMT 44.451187 -1.122110 33,975 25 369 0
2018-12-14 15:17:36 GMT 44.447937 -1.124223 33,975 25 369 -64
2018-12-14 15:17:30 GMT 44.438671 -1.130386 34,000 25 369 -64
2018-12-14 15:17:27 GMT 44.432484 -1.134539 34,000 25 369 0
2018-12-14 15:17:22 GMT 44.420013 -1.142840 34,000 25 369 0
2018-12-14 15:17:15 GMT 44.415802 -1.145586 34,000 25 369 0
2018-12-14 15:17:11 GMT 44.409809 -1.149545 34,000 25 369 0
2018-12-14 15:17:08 GMT 44.403442 -1.153761 33,975 25 370 0
2018-12-14 15:17:05 GMT 44.399277 -1.156507 34,000 25 370 0
2018-12-14 15:17:01 GMT 44.393703 -1.160196 33,975 25 370 0
2018-12-14 15:16:55 GMT 44.384125 -1.166578 34,000 25 370 0
2018-12-14 15:16:50 GMT 44.377502 -1.170982 34,000 25 370 0
2018-12-14 15:16:44 GMT 44.367588 -1.177547 34,000 25 370 0
2018-12-14 15:16:40 GMT 44.361721 -1.181432 34,000 25 370 0
2018-12-14 15:16:35 GMT 44.351620 -1.188064 34,000 25 370 0
2018-12-14 15:16:29 GMT 44.343754 -1.193289 34,000 25 370 0
2018-12-14 15:16:26 GMT 44.338165 -1.196987 33,975 25 370 0
2018-12-14 15:16:19 GMT 44.328251 -1.203472 34,000 25 370 0
2018-12-14 15:16:15 GMT 44.322189 -1.207450 33,975 25 371 0
2018-12-14 15:16:09 GMT 44.312256 -1.213989 34,000 25 370 0
2018-12-14 15:16:05 GMT 44.306835 -1.217607 34,000 25 370 0
2018-12-14 15:15:57 GMT 44.294594 -1.225645 34,000 25 370 0
2018-12-14 15:15:52 GMT 44.287006 -1.230670 34,000 25 370 0
2018-12-14 15:15:47 GMT 44.277557 -1.236877 34,000 25 371 0
2018-12-14 15:15:42 GMT 44.271332 -1.240997 34,000 25 371 0
2018-12-14 15:15:36 GMT 44.261868 -1.247216 33,975 25 371 0
2018-12-14 15:15:31 GMT 44.254280 -1.252240 34,000 25 371 0
2018-12-14 15:15:27 GMT 44.246693 -1.257265 34,000 25 371 -64
2018-12-14 15:15:23 GMT 44.235809 -1.264409 34,000 25 371 0
2018-12-14 15:15:15 GMT 44.229584 -1.268463 34,000 25 371 0
2018-12-14 15:15:11 GMT 44.222946 -1.272845 34,000 25 371 0
2018-12-14 15:15:06 GMT 44.209728 -1.281515 34,000 25 371 0
2018-12-14 15:14:59 GMT 44.205414 -1.284354 34,000 25 371 0
2018-12-14 15:14:55 GMT 44.193604 -1.292107 34,000 25 370 0
2018-12-14 15:14:49 GMT 44.189106 -1.295079 34,000 25 370 0
2018-12-14 15:14:45 GMT 44.181198 -1.300283 34,000 25 370 0
2018-12-14 15:14:38 GMT 44.172409 -1.306096 34,000 25 370 0
2018-12-14 15:14:31 GMT 44.161549 -1.313259 34,000 25 370 0
2018-12-14 15:14:27 GMT 44.155197 -1.317401 34,000 25 370 0
2018-12-14 15:14:20 GMT 44.143112 -1.325322 34,000 25 370 0
2018-12-14 15:14:16 GMT 44.138901 -1.328068 34,000 25 370 0
2018-12-14 15:14:12 GMT 44.132721 -1.332156 34,000 25 370 0
2018-12-14 15:14:09 GMT 44.127274 -1.335669 34,000 25 370 0
2018-12-14 15:14:01 GMT 44.114761 -1.343863 34,000 25 370 0
2018-12-14 15:13:58 GMT 44.110851 -1.346414 34,000 25 370 0
2018-12-14 15:13:54 GMT 44.104843 -1.350360 34,000 25 370 0
2018-12-14 15:13:51 GMT 44.099541 -1.353803 34,000 25 370 0
2018-12-14 15:13:48 GMT 44.094746 -1.356942 34,000 25 370 0
2018-12-14 15:13:42 GMT 44.084084 -1.363940 34,000 25 369 0
2018-12-14 15:13:38 GMT 44.078934 -1.367287 34,000 25 369 0
2018-12-14 15:13:31 GMT 44.068256 -1.374207 34,000 25 369 0
2018-12-14 15:13:27 GMT 44.062820 -1.377762 34,000 25 370 -64
2018-12-14 15:13:21 GMT 44.051559 -1.385108 34,000 25 369 64
2018-12-14 15:13:17 GMT 44.046936 -1.388201 34,000 25 369 0
2018-12-14 15:13:09 GMT 44.030361 -1.398991 33,975 25 369 0
2018-12-14 15:13:00 GMT 44.019287 -1.406314 33,975 25 369 0
2018-12-14 15:12:56 GMT 44.013885 -1.409847 33,975 25 369 0
2018-12-14 15:12:49 GMT 44.003036 -1.416917 33,975 25 369 0
2018-12-14 15:12:46 GMT 43.998104 -1.420114 34,000 25 369 0
2018-12-14 15:12:39 GMT 43.981934 -1.430714 34,000 25 368 0
2018-12-14 15:12:28 GMT 43.970684 -1.438032 34,000 25 368 0
2018-12-14 15:12:25 GMT 43.966232 -1.440997 34,000 25 368 0
2018-12-14 15:12:17 GMT 43.954239 -1.448854 34,000 25 367 0
2018-12-14 15:12:14 GMT 43.949799 -1.451728 34,000 25 367 64
2018-12-14 15:12:07 GMT 43.938858 -1.458818 34,000 24 367 0
2018-12-14 15:12:04 GMT 43.934559 -1.461639 34,000 25 366 0
2018-12-14 15:11:53 GMT 43.917984 -1.472360 34,000 25 366 0
2018-12-14 15:11:47 GMT 43.906815 -1.479577 34,000 25 366 0
2018-12-14 15:11:44 GMT 43.903137 -1.481977 34,000 25 366 0
2018-12-14 15:11:34 GMT 43.887215 -1.492244 34,000 25 365 -64
2018-12-14 15:11:23 GMT 43.871155 -1.502642 34,000 25 365 0
2018-12-14 15:11:12 GMT 43.855282 -1.512974 34,000 25 365 0
2018-12-14 15:11:01 GMT 43.838009 -1.524157 34,000 25 364 0
2018-12-14 15:10:51 GMT 43.822273 -1.534358 33,975 25 364 0
2018-12-14 15:10:39 GMT 43.805050 -1.545476 34,000 25 364 0
2018-12-14 15:10:31 GMT 43.792526 -1.553585 34,000 25 364 0
2018-12-14 15:10:21 GMT 43.769203 -1.568691 33,975 25 364 0
2018-12-14 15:10:11 GMT 43.760361 -1.574380 34,000 25 364 0
2018-12-14 15:10:06 GMT 43.754261 -1.578369 34,000 25 364 0
2018-12-14 15:10:00 GMT 43.744347 -1.584778 34,000 25 364 0
2018-12-14 15:09:54 GMT 43.736294 -1.590075 34,000 25 364 0
2018-12-14 15:09:49 GMT 43.728333 -1.595189 33,975 25 364 0
2018-12-14 15:09:46 GMT 43.722839 -1.598766 34,000 25 364 0
2018-12-14 15:09:40 GMT 43.713089 -1.605090 34,000 25 364 0
2018-12-14 15:09:35 GMT 43.706223 -1.609497 34,000 25 364 0
2018-12-14 15:09:29 GMT 43.697376 -1.615186 34,000 25 364 0
2018-12-14 15:09:23 GMT 43.688370 -1.621058 34,000 25 364 0
2018-12-14 15:09:18 GMT 43.681183 -1.625657 33,975 25 364 0
2018-12-14 15:09:09 GMT 43.665768 -1.635590 34,000 25 364 0
2018-12-14 15:08:58 GMT 43.650375 -1.645458 34,000 25 364 0
2018-12-14 15:08:47 GMT 43.634251 -1.655862 34,000 25 364 0
2018-12-14 15:08:40 GMT 43.623730 -1.662663 34,000 25 364 0
2018-12-14 15:08:37 GMT 43.618980 -1.665737 34,000 25 364 0
2018-12-14 15:08:30 GMT 43.608032 -1.672796 33,975 25 364 0
2018-12-14 15:08:27 GMT 43.602829 -1.676069 33,975 25 364 0
2018-12-14 15:08:20 GMT 43.591843 -1.683132 34,000 25 364 0
2018-12-14 15:08:15 GMT 43.585136 -1.687448 33,975 25 364 -64
2018-12-14 15:08:05 GMT 43.570038 -1.697132 33,975 25 364 0
2018-12-14 15:07:55 GMT 43.554520 -1.707097 34,000 25 364 0
2018-12-14 15:07:48 GMT 43.541843 -1.715240 34,000 24 363 0
2018-12-14 15:07:45 GMT 43.538818 -1.717137 34,000 24 363 0
2018-12-14 15:07:35 GMT 43.523254 -1.727089 34,000 25 364 0
2018-12-14 15:07:24 GMT 43.506638 -1.737692 33,975 24 363 -64
2018-12-14 15:07:15 GMT 43.491577 -1.747337 34,000 24 362 0
2018-12-14 15:07:08 GMT 43.481369 -1.753852 34,000 24 362 0
2018-12-14 15:07:03 GMT 43.475136 -1.757812 34,000 24 362 0
2018-12-14 15:06:58 GMT 43.467041 -1.762986 34,000 24 362 0
2018-12-14 15:06:54 GMT 43.460358 -1.767266 34,000 24 362 0
2018-12-14 15:06:47 GMT 43.450150 -1.773717 34,000 24 362 0
2018-12-14 15:06:42 GMT 43.443787 -1.777805 34,000 24 362 0
2018-12-14 15:06:32 GMT 43.427948 -1.787897 34,000 25 361 0
2018-12-14 15:06:20 GMT 43.410095 -1.799331 34,000 24 361 0
2018-12-14 15:06:11 GMT 43.394039 -1.809540 34,000 24 360 0
2018-12-14 15:06:00 GMT 43.379517 -1.818812 33,975 25 361 0
2018-12-14 15:05:49 GMT 43.362946 -1.829485 33,975 25 361 0
2018-12-14 15:05:42 GMT 43.350842 -1.837202 33,975 25 361 0
2018-12-14 15:05:38 GMT 43.346466 -1.840014 33,975 25 361 0
2018-12-14 15:05:33 GMT 43.338318 -1.845245 33,975 24 360 0
2018-12-14 15:05:30 GMT 43.334518 -1.847619 34,000 24 360 -64
2018-12-14 15:05:27 GMT 43.329071 -1.851132 33,975 25 361 -64
2018-12-14 15:05:22 GMT 43.321381 -1.856051 34,000 25 361 0
2018-12-14 15:05:16 GMT 43.313370 -1.861161 34,000 24 360 0
2018-12-14 15:05:09 GMT 43.301285 -1.868826 33,975 24 361 0
2018-12-14 15:05:05 GMT 43.296890 -1.871636 33,975 24 360 -64
2018-12-14 15:05:00 GMT 43.288738 -1.876831 33,975 26 361 -64
2018-12-14 15:04:55 GMT 43.280777 -1.882303 33,975 28 362 -64
2018-12-14 15:04:47 GMT 43.267685 -1.892459 33,975 32 368 -64
2018-12-14 15:04:40 GMT 43.257271 -1.901550 34,000 34 372 -128
2018-12-14 15:04:34 GMT 43.250244 -1.908427 34,000 36 374 -128
2018-12-14 15:04:29 GMT 43.243881 -1.915134 34,000 41 381 -64
2018-12-14 15:04:22 GMT 43.235020 -1.925419 33,975 42 385 0
2018-12-14 15:04:18 GMT 43.228828 -1.933136 33,975 42 385 0
2018-12-14 15:04:12 GMT 43.221451 -1.942281 33,975 42 385 -64
2018-12-14 15:04:08 GMT 43.215374 -1.949812 33,975 42 385 0
2018-12-14 15:04:02 GMT 43.207626 -1.959463 34,000 42 385 0
2018-12-14 15:03:58 GMT 43.202591 -1.965722 33,975 42 385 -64
2018-12-14 15:03:47 GMT 43.187988 -1.983863 34,000 42 385 0
2018-12-14 15:03:38 GMT 43.175293 -1.999577 34,000 42 385 0
2018-12-14 15:03:26 GMT 43.160675 -2.017757 33,975 42 385 0
2018-12-14 15:03:19 GMT 43.150108 -2.030901 34,000 42 385 0
2018-12-14 15:03:16 GMT 43.147453 -2.034171 34,000 42 385 -64
2018-12-14 15:03:12 GMT 43.141663 -2.041349 34,000 42 385 0
2018-12-14 15:03:07 GMT 43.135574 -2.048886 34,000 42 385 0
2018-12-14 15:03:04 GMT 43.131859 -2.053462 34,000 42 385 0
2018-12-14 15:03:01 GMT 43.126740 -2.059809 33,975 42 385 0
2018-12-14 15:02:53 GMT 43.117195 -2.071642 34,000 42 385 0
2018-12-14 15:02:50 GMT 43.112595 -2.077374 33,975 42 386 0
2018-12-14 15:02:44 GMT 43.104813 -2.087010 34,000 42 385 0
2018-12-14 15:02:41 GMT 43.100437 -2.092438 34,000 42 385 0
2018-12-14 15:02:33 GMT 43.091492 -2.103562 34,000 42 385 0
2018-12-14 15:02:20 GMT 43.065353 -2.135819 34,000 42 385 0
2018-12-14 15:02:11 GMT 43.061920 -2.140035 34,000 42 385 0
2018-12-14 15:02:04 GMT 43.051975 -2.152209 34,000 42 385 0
2018-12-14 15:02:00 GMT 43.045807 -2.159835 34,000 42 385 0
2018-12-14 15:01:51 GMT 43.034939 -2.173200 34,000 42 384 0
2018-12-14 15:01:48 GMT 43.031662 -2.177273 34,000 42 385 0
2018-12-14 15:01:37 GMT 43.010788 -2.202950 34,000 42 385 0
2018-12-14 15:01:29 GMT 43.004444 -2.210802 34,000 42 385 0
2018-12-14 15:01:22 GMT 42.996689 -2.220388 34,000 42 385 0
2018-12-14 15:01:18 GMT 42.991516 -2.226712 34,000 42 385 0
2018-12-14 15:01:12 GMT 42.982800 -2.237418 34,000 42 385 0
2018-12-14 15:01:08 GMT 42.976978 -2.244546 34,000 42 385 0
2018-12-14 15:00:57 GMT 42.963387 -2.261287 34,000 42 385 0
2018-12-14 15:00:54 GMT 42.958237 -2.267591 34,000 42 385 0
2018-12-14 15:00:45 GMT 42.948578 -2.279471 34,000 42 385 0
2018-12-14 15:00:35 GMT 42.934570 -2.296666 34,000 42 385 0
2018-12-14 15:00:25 GMT 42.913651 -2.322331 34,000 42 385 0
2018-12-14 15:00:13 GMT 42.906509 -2.331082 34,000 42 385 0
2018-12-14 15:00:08 GMT 42.899654 -2.339499 34,000 42 385 0
2018-12-14 15:00:03 GMT 42.892208 -2.348589 34,000 42 385 0
2018-12-14 14:59:58 GMT 42.886002 -2.356184 34,000 42 385 0
2018-12-14 14:59:50 GMT 42.875961 -2.368469 34,000 41 385 0
2018-12-14 14:59:47 GMT 42.871445 -2.374005 34,000 41 385 0
2018-12-14 14:59:42 GMT 42.864834 -2.382071 34,000 41 385 0
2018-12-14 14:59:33 GMT 42.852081 -2.397638 33,975 41 385 0
2018-12-14 14:59:29 GMT 42.848236 -2.402301 33,975 41 385 0
2018-12-14 14:59:23 GMT 42.834995 -2.418496 34,000 41 385 0
2018-12-14 14:59:11 GMT 42.820286 -2.436414 34,000 41 385 0
2018-12-14 14:58:59 GMT 42.808502 -2.450825 33,975 41 384 -64
2018-12-14 14:58:49 GMT 42.793938 -2.468539 34,000 41 384 0
2018-12-14 14:58:41 GMT 42.782578 -2.482399 34,000 41 383 0
2018-12-14 14:58:29 GMT 42.754898 -2.516119 34,000 42 383 0
2018-12-14 14:58:19 GMT 42.754898 -2.516119 34,000 42 383 0
2018-12-14 14:58:12 GMT 42.746201 -2.526793 34,000 42 383 0
2018-12-14 14:58:08 GMT 42.740772 -2.533371 34,000 42 383 0
2018-12-14 14:58:02 GMT 42.732067 -2.544038 34,000 42 385 0
2018-12-14 14:57:58 GMT 42.727203 -2.550014 33,975 42 385 0
2018-12-14 14:57:52 GMT 42.719776 -2.559048 33,975 41 385 0
2018-12-14 14:57:41 GMT 42.704510 -2.577635 33,975 41 386 0
2018-12-14 14:57:31 GMT 42.691864 -2.593023 33,975 41 387 -64
2018-12-14 14:57:25 GMT 42.683887 -2.602738 33,975 41 387 -64
2018-12-14 14:57:22 GMT 42.677464 -2.610530 33,975 41 388 0
2018-12-14 14:57:15 GMT 42.670212 -2.619241 33,975 41 388 0
2018-12-14 14:57:06 GMT 42.657898 -2.634222 33,975 41 389 0
2018-12-14 14:56:56 GMT 42.643661 -2.651513 33,975 41 390 0
2018-12-14 14:56:45 GMT 42.629517 -2.668617 33,975 41 390 0
2018-12-14 14:56:35 GMT 42.615223 -2.685902 33,975 41 391 0
2018-12-14 14:56:24 GMT 42.600883 -2.703212 33,975 41 392 0
2018-12-14 14:56:14 GMT 42.586441 -2.720739 34,000 41 393 -64
2018-12-14 14:56:02 GMT 42.571976 -2.738278 34,000 41 393 0
2018-12-14 14:55:52 GMT 42.557590 -2.755652 34,000 41 393 0
2018-12-14 14:55:41 GMT 42.542267 -2.774048 34,000 41 392 0
2018-12-14 14:55:30 GMT 42.528122 -2.790964 34,000 41 392 0
2018-12-14 14:55:20 GMT 42.514069 -2.807693 34,000 41 393 0
2018-12-14 14:55:08 GMT 42.498825 -2.825858 34,000 41 393 0
2018-12-14 14:54:59 GMT 42.486320 -2.840924 34,000 41 393 -64
2018-12-14 14:54:50 GMT 42.471840 -2.857212 34,000 35 387 -64
2018-12-14 14:54:39 GMT 42.449020 -2.875547 34,000 23 374 -64
2018-12-14 14:54:24 GMT 42.431435 -2.884678 34,000 15 368 -128
2018-12-14 14:54:13 GMT 42.415009 -2.889779 34,000 9 362 -64
2018-12-14 14:54:03 GMT 42.397568 -2.893836 34,000 9 361 0
2018-12-14 14:53:52 GMT 42.372528 -2.899704 33,975 9 362 0
2018-12-14 14:53:42 GMT 42.364910 -2.901476 34,000 9 362 0
2018-12-14 14:53:37 GMT 42.353691 -2.904095 34,000 9 362 -64
2018-12-14 14:53:31 GMT 42.345638 -2.905948 34,000 9 362 0
2018-12-14 14:53:26 GMT 42.337723 -2.907800 33,975 9 362 0
2018-12-14 14:53:18 GMT 42.322357 -2.911377 33,975 9 362 0
2018-12-14 14:53:15 GMT 42.319885 -2.911939 33,975 9 362 0
2018-12-14 14:53:05 GMT 42.294617 -2.917892 33,975 9 362 0
2018-12-14 14:52:49 GMT 42.275249 -2.922427 33,975 9 363 0
2018-12-14 14:52:38 GMT 42.258259 -2.926387 33,975 9 362 0
2018-12-14 14:52:28 GMT 42.242523 -2.929979 33,975 9 362 0
2018-12-14 14:52:17 GMT 42.223671 -2.934372 34,000 9 362 0
2018-12-14 14:52:08 GMT 42.207642 -2.938094 34,000 9 362 0
2018-12-14 14:52:03 GMT 42.198715 -2.940216 34,000 9 362 0
2018-12-14 14:51:57 GMT 42.189651 -2.942338 34,000 9 362 0
2018-12-14 14:51:52 GMT 42.181866 -2.944144 34,000 9 362 0
2018-12-14 14:51:45 GMT 42.171021 -2.946646 34,000 9 362 0
2018-12-14 14:51:42 GMT 42.165062 -2.948041 34,000 9 362 0
2018-12-14 14:51:31 GMT 42.138840 -2.954199 34,000 9 361 0
2018-12-14 14:51:15 GMT 42.121582 -2.958256 34,000 9 361 0
2018-12-14 14:51:02 GMT 42.099655 -2.963307 34,000 9 361 0
2018-12-14 14:50:58 GMT 42.093884 -2.964648 34,000 9 361 0
2018-12-14 14:50:54 GMT 42.087479 -2.966121 34,000 9 361 0
2018-12-14 14:50:45 GMT 42.069855 -2.970179 33,975 9 361 0
2018-12-14 14:50:38 GMT 42.060272 -2.972440 33,975 9 362 0
2018-12-14 14:50:33 GMT 42.053055 -2.974111 33,975 9 362 0
2018-12-14 14:50:26 GMT 42.040146 -2.977108 33,975 9 362 0
2018-12-14 14:50:23 GMT 42.035522 -2.978169 33,975 9 362 0
2018-12-14 14:50:16 GMT 42.023823 -2.980872 33,975 9 362 0
2018-12-14 14:50:11 GMT 42.015701 -2.982788 33,975 9 362 0
2018-12-14 14:50:03 GMT 42.002689 -2.985854 33,975 9 362 0
2018-12-14 14:50:00 GMT 41.997520 -2.987004 33,975 9 362 0
2018-12-14 14:49:57 GMT 41.992584 -2.988219 33,975 9 362 0
2018-12-14 14:49:54 GMT 41.987778 -2.989280 33,975 9 362 0
2018-12-14 14:49:50 GMT 41.981186 -2.990841 34,000 9 362 0
2018-12-14 14:49:47 GMT 41.975082 -2.992241 34,000 9 362 -64
2018-12-14 14:49:43 GMT 41.969959 -2.993455 34,000 9 362 0
2018-12-14 14:49:40 GMT 41.965538 -2.994477 34,000 9 362 0
2018-12-14 14:49:34 GMT 41.954460 -2.997032 34,000 9 361 0
2018-12-14 14:49:29 GMT 41.946259 -2.998893 34,000 9 361 0
2018-12-14 14:49:21 GMT 41.934219 -3.001640 34,000 9 361 0
2018-12-14 14:49:18 GMT 41.928772 -3.002888 34,000 9 361 0
2018-12-14 14:49:12 GMT 41.919079 -3.005144 34,000 9 361 0
2018-12-14 14:49:09 GMT 41.913170 -3.006485 34,000 9 361 0
2018-12-14 14:49:05 GMT 41.906754 -3.007944 34,000 9 361 0
2018-12-14 14:49:01 GMT 41.900318 -3.009360 34,000 9 361 0
2018-12-14 14:48:58 GMT 41.895081 -3.010566 34,000 9 361 0
2018-12-14 14:48:55 GMT 41.889313 -3.011877 34,000 9 361 0
2018-12-14 14:48:50 GMT 41.882072 -3.013511 34,000 9 360 0
2018-12-14 14:48:43 GMT 41.871735 -3.015872 34,000 9 360 0
2018-12-14 14:48:40 GMT 41.866802 -3.016961 34,000 9 361 0
2018-12-14 14:48:37 GMT 41.859074 -3.018749 34,000 9 361 0
2018-12-14 14:48:34 GMT 41.854660 -3.019742 34,000 9 361 0
2018-12-14 14:48:29 GMT 41.848881 -3.021112 34,000 9 361 0
2018-12-14 14:48:26 GMT 41.842484 -3.022551 34,000 9 361 0
2018-12-14 14:48:23 GMT 41.837521 -3.023667 34,000 9 361 0
2018-12-14 14:48:18 GMT 41.829468 -3.025520 34,000 9 361 0
2018-12-14 14:48:13 GMT 41.820602 -3.027545 34,000 9 361 0
2018-12-14 14:48:07 GMT 41.812546 -3.029418 34,000 9 361 0
2018-12-14 14:48:01 GMT 41.802513 -3.031716 34,000 9 361 0
2018-12-14 14:47:58 GMT 41.796555 -3.033121 34,000 9 361 0
2018-12-14 14:47:52 GMT 41.785217 -3.035722 34,000 9 361 0
2018-12-14 14:47:48 GMT 41.781418 -3.036596 34,000 10 362 0
2018-12-14 14:47:44 GMT 41.773186 -3.038486 34,000 9 361 0
2018-12-14 14:47:41 GMT 41.761642 -3.041215 34,000 10 362 0
2018-12-14 14:47:36 GMT 41.751259 -3.043660 34,000 10 362 0
2018-12-14 14:47:31 GMT 41.751259 -3.043660 34,000 10 362 0
2018-12-14 14:47:22 GMT 41.738411 -3.046662 33,975 10 362 0
2018-12-14 14:47:16 GMT 41.728638 -3.048956 34,000 10 362 0
2018-12-14 14:47:12 GMT 41.722046 -3.050516 34,000 10 362 0
2018-12-14 14:47:06 GMT 41.711967 -3.052858 33,975 9 362 0
2018-12-14 14:47:01 GMT 41.703545 -3.054774 34,000 9 362 0
2018-12-14 14:46:56 GMT 41.694790 -3.056818 34,000 9 362 0
2018-12-14 14:46:52 GMT 41.688034 -3.058319 34,000 9 362 0
2018-12-14 14:46:46 GMT 41.677597 -3.060754 34,000 9 362 0
2018-12-14 14:46:39 GMT 41.665371 -3.063525 33,975 9 362 0
2018-12-14 14:46:35 GMT 41.660751 -3.064561 34,000 9 362 0
2018-12-14 14:46:31 GMT 41.653015 -3.066309 34,000 9 362 0
2018-12-14 14:46:28 GMT 41.647888 -3.067495 34,000 9 362 0
2018-12-14 14:46:25 GMT 41.643265 -3.068556 34,000 9 362 0
2018-12-14 14:46:18 GMT 41.631042 -3.071365 34,000 9 362 0
2018-12-14 14:46:14 GMT 41.626236 -3.072427 34,000 9 362 0
2018-12-14 14:46:08 GMT 41.615559 -3.074894 34,000 9 361 0
2018-12-14 14:46:03 GMT 41.608112 -3.076619 34,000 9 361 0
2018-12-14 14:45:59 GMT 41.600895 -3.078216 34,000 9 361 0
2018-12-14 14:45:51 GMT 41.587921 -3.081166 34,000 9 360 0
2018-12-14 14:45:48 GMT 41.583298 -3.082240 34,000 9 360 0
2018-12-14 14:45:41 GMT 41.570847 -3.085036 34,000 9 360 0
2018-12-14 14:45:30 GMT 41.553783 -3.088883 34,000 9 359 0
2018-12-14 14:45:23 GMT 41.540863 -3.091840 34,000 9 359 0
2018-12-14 14:45:20 GMT 41.536747 -3.092779 34,000 9 359 0
2018-12-14 14:45:10 GMT 41.519287 -3.096739 34,000 9 358 0
2018-12-14 14:45:02 GMT 41.507538 -3.099393 34,000 9 357 0
2018-12-14 14:44:59 GMT 41.501831 -3.100699 34,000 9 357 0
2018-12-14 14:44:52 GMT 41.490566 -3.103318 34,000 9 357 0
2018-12-14 14:44:49 GMT 41.485214 -3.104532 34,000 9 357 0
2018-12-14 14:44:41 GMT 41.473667 -3.107151 34,000 9 356 0
2018-12-14 14:44:37 GMT 41.467197 -3.108620 34,000 9 356 0
2018-12-14 14:44:31 GMT 41.457275 -3.110816 34,000 9 356 0
2018-12-14 14:44:25 GMT 41.446575 -3.113283 34,000 9 355 0
2018-12-14 14:44:20 GMT 41.438828 -3.114999 34,000 9 355 0
2018-12-14 14:44:10 GMT 41.422974 -3.118648 34,000 9 355 0
2018-12-14 14:44:00 GMT 41.406967 -3.122302 34,000 9 354 0
2018-12-14 14:43:53 GMT 41.395157 -3.124924 34,000 9 353 0
2018-12-14 14:43:49 GMT 41.389664 -3.126172 34,000 9 353 0
2018-12-14 14:43:43 GMT 41.379044 -3.128601 34,000 9 353 0
2018-12-14 14:43:39 GMT 41.373394 -3.129855 33,975 9 353 0
2018-12-14 14:43:30 GMT 41.358582 -3.133240 33,975 9 354 0
2018-12-14 14:43:19 GMT 41.340363 -3.137329 34,000 9 352 0
2018-12-14 14:43:12 GMT 41.328781 -3.139954 34,000 9 352 0
2018-12-14 14:43:08 GMT 41.323746 -3.141113 33,975 9 353 0
2018-12-14 14:42:58 GMT 41.306717 -3.144958 34,000 9 352 0
2018-12-14 14:42:51 GMT 41.294952 -3.147645 34,000 9 352 0
2018-12-14 14:42:48 GMT 41.290604 -3.148621 34,000 9 353 0
2018-12-14 14:42:40 GMT 41.277592 -3.151578 34,000 9 352 0
2018-12-14 14:42:37 GMT 41.273438 -3.152527 34,000 9 352 0
2018-12-14 14:42:27 GMT 41.256546 -3.156372 34,000 9 351 0
2018-12-14 14:42:19 GMT 41.243866 -3.159241 33,975 9 353 64
2018-12-14 14:42:16 GMT 41.239517 -3.160217 33,975 9 353 0
2018-12-14 14:42:09 GMT 41.227173 -3.163064 33,975 9 353 0
2018-12-14 14:42:06 GMT 41.222984 -3.164062 34,000 9 353 0
2018-12-14 14:41:58 GMT 41.209625 -3.167121 33,975 9 354 0
2018-12-14 14:41:55 GMT 41.205433 -3.168058 33,975 9 354 0
2018-12-14 14:41:50 GMT 41.195892 -3.170227 33,975 9 354 0
2018-12-14 14:41:47 GMT 41.192688 -3.170959 33,975 9 354 0
2018-12-14 14:41:44 GMT 41.187836 -3.172053 33,975 9 354 64
2018-12-14 14:41:39 GMT 41.180248 -3.173800 33,975 9 355 64
2018-12-14 14:41:36 GMT 41.174896 -3.175049 33,975 9 355 0
2018-12-14 14:41:33 GMT 41.170845 -3.175923 33,975 9 354 0
2018-12-14 14:41:28 GMT 41.161442 -3.178045 33,975 9 355 0
2018-12-14 14:41:23 GMT 41.154144 -3.179626 33,975 9 355 0
2018-12-14 14:41:18 GMT 41.145241 -3.181478 33,975 8 355 0
2018-12-14 14:41:14 GMT 41.138580 -3.182861 33,975 8 355 0
2018-12-14 14:41:08 GMT 41.128876 -3.184875 33,975 8 355 -64
2018-12-14 14:41:03 GMT 41.121082 -3.186472 34,000 8 355 -64
2018-12-14 14:40:58 GMT 41.111492 -3.188470 34,000 8 355 -64
2018-12-14 14:40:53 GMT 41.104843 -3.189819 34,000 8 355 -64
2018-12-14 14:40:46 GMT 41.094128 -3.192028 34,000 8 355 -64
2018-12-14 14:40:43 GMT 41.088455 -3.193237 34,000 8 355 -64
2018-12-14 14:40:37 GMT 41.079372 -3.195086 34,000 9 355 0
2018-12-14 14:40:32 GMT 41.071457 -3.196709 34,000 8 354 0
2018-12-14 14:40:21 GMT 41.053768 -3.200392 34,000 9 355 0
2018-12-14 14:40:16 GMT 41.043915 -3.202515 34,000 9 355 0
2018-12-14 14:40:11 GMT 41.037094 -3.203918 34,000 9 355 0
2018-12-14 14:40:05 GMT 41.027023 -3.206055 34,000 9 355 0
2018-12-14 14:40:01 GMT 41.020203 -3.207508 34,000 9 355 0
2018-12-14 14:39:54 GMT 41.009495 -3.209693 34,000 9 355 0
2018-12-14 14:39:50 GMT 41.002029 -3.211304 33,975 9 356 0
2018-12-14 14:39:44 GMT 40.992924 -3.213189 34,000 8 356 0
2018-12-14 14:39:39 GMT 40.985138 -3.214783 34,000 8 356 0
2018-12-14 14:39:33 GMT 40.975838 -3.216747 34,000 8 356 0
2018-12-14 14:39:28 GMT 40.964127 -3.219177 33,975 8 356 0
2018-12-14 14:39:24 GMT 40.958588 -3.220276 33,975 8 356 64
2018-12-14 14:39:20 GMT 40.948650 -3.222303 33,975 8 357 0
2018-12-14 14:39:12 GMT 40.940643 -3.223988 33,975 9 357 0
2018-12-14 14:39:08 GMT 40.934315 -3.225299 33,975 9 357 0
2018-12-14 14:39:02 GMT 40.924351 -3.227359 33,975 9 357 0
2018-12-14 14:38:58 GMT 40.918301 -3.228607 33,975 9 357 0
2018-12-14 14:38:52 GMT 40.908646 -3.230652 33,975 8 358 -64
2018-12-14 14:38:49 GMT 40.901779 -3.232056 33,975 8 358 -64
2018-12-14 14:38:41 GMT 40.889484 -3.234600 33,975 8 358 0
2018-12-14 14:38:36 GMT 40.881958 -3.236206 33,975 8 358 0
2018-12-14 14:38:31 GMT 40.872299 -3.238159 33,975 8 358 -64
2018-12-14 14:38:28 GMT 40.867905 -3.239075 34,000 8 358 -64
2018-12-14 14:38:19 GMT 40.854614 -3.241778 34,000 9 357 -64
2018-12-14 14:38:16 GMT 40.849262 -3.242902 34,000 9 357 0
2018-12-14 14:38:09 GMT 40.832085 -3.246460 34,000 9 357 0
2018-12-14 14:38:05 GMT 40.832085 -3.246460 34,000 9 356 0
2018-12-14 14:37:58 GMT 40.819424 -3.249144 34,000 9 356 0
2018-12-14 14:37:55 GMT 40.814850 -3.250061 34,000 9 356 64
2018-12-14 14:37:47 GMT 40.802628 -3.252625 34,000 9 356 0
2018-12-14 14:37:44 GMT 40.797775 -3.253639 34,000 9 356 0
2018-12-14 14:37:37 GMT 40.786835 -3.255948 34,000 9 356 0
2018-12-14 14:37:34 GMT 40.780838 -3.257202 34,000 9 356 64
2018-12-14 14:37:27 GMT 40.770264 -3.259381 33,975 9 356 0
2018-12-14 14:37:23 GMT 40.764072 -3.260692 33,975 9 356 0
2018-12-14 14:37:19 GMT 40.754295 -3.262752 33,975 9 357 0
2018-12-14 14:37:13 GMT 40.746288 -3.264375 33,975 9 357 0
2018-12-14 14:37:08 GMT 40.738449 -3.265991 33,975 8 358 0
2018-12-14 14:37:04 GMT 40.732727 -3.267151 33,975 8 358 0
2018-12-14 14:37:01 GMT 40.725861 -3.268555 33,975 8 358 0
2018-12-14 14:36:58 GMT 40.720276 -3.269714 33,975 8 358 0
2018-12-14 14:36:54 GMT 40.715515 -3.270691 33,975 8 359 0
2018-12-14 14:36:51 GMT 40.710583 -3.271679 33,975 8 359 0
2018-12-14 14:36:47 GMT 40.704712 -3.272888 33,975 8 359 0
2018-12-14 14:36:42 GMT 40.695511 -3.274780 33,975 8 359 0
2018-12-14 14:36:37 GMT 40.686981 -3.276548 34,000 8 359 0
2018-12-14 14:36:31 GMT 40.678276 -3.278295 33,975 8 359 0
2018-12-14 14:36:24 GMT 40.667290 -3.280543 33,975 8 359 -64
2018-12-14 14:36:21 GMT 40.661224 -3.281799 34,000 8 358 -64
2018-12-14 14:36:14 GMT 40.649738 -3.284101 34,000 8 358 0
2018-12-14 14:36:10 GMT 40.635498 -3.287048 34,000 8 358 0
2018-12-14 14:36:06 GMT 40.635498 -3.287048 34,000 8 358 -64
2018-12-14 14:36:02 GMT 40.630608 -3.288033 34,000 8 357 -64
2018-12-14 14:35:59 GMT 40.625198 -3.289124 34,000 8 357 -64
2018-12-14 14:35:55 GMT 40.618504 -3.290530 34,000 9 357 64
2018-12-14 14:35:52 GMT 40.609039 -3.292480 34,000 9 357 64
2018-12-14 14:35:45 GMT 40.602036 -3.293945 34,000 9 357 0
2018-12-14 14:35:41 GMT 40.596809 -3.295025 34,000 9 357 0
2018-12-14 14:35:38 GMT 40.590942 -3.296211 34,000 9 357 64
2018-12-14 14:35:34 GMT 40.584274 -3.297607 33,975 9 357 64
2018-12-14 14:35:31 GMT 40.579865 -3.298520 33,975 9 357 64
2018-12-14 14:35:28 GMT 40.574158 -3.299683 33,975 9 357 64
2018-12-14 14:35:21 GMT 40.563217 -3.302002 33,975 9 357 0
2018-12-14 14:35:17 GMT 40.557175 -3.303223 33,975 8 357 64
2018-12-14 14:35:13 GMT 40.550491 -3.304638 33,975 9 357 64
2018-12-14 14:35:10 GMT 40.546394 -3.305449 33,975 9 357 0
2018-12-14 14:35:07 GMT 40.539688 -3.306824 33,975 9 357 0
2018-12-14 14:35:03 GMT 40.533508 -3.308167 33,975 9 357 0
2018-12-14 14:35:00 GMT 40.529404 -3.309007 33,975 9 357 0
2018-12-14 14:34:56 GMT 40.522373 -3.310443 33,975 9 357 0
2018-12-14 14:34:52 GMT 40.516041 -3.311754 34,000 8 356 0
2018-12-14 14:34:49 GMT 40.512085 -3.312561 34,000 8 356 0
2018-12-14 14:34:46 GMT 40.505428 -3.313938 34,000 8 357 -64
2018-12-14 14:34:41 GMT 40.498398 -3.315369 34,000 8 356 -64
2018-12-14 14:34:38 GMT 40.494164 -3.316248 34,000 8 356 -64
2018-12-14 14:34:35 GMT 40.488327 -3.317444 34,000 8 355 -64
2018-12-14 14:34:32 GMT 40.481964 -3.318745 34,000 8 355 -64
2018-12-14 14:34:28 GMT 40.471252 -3.320923 34,000 8 355 -64
2018-12-14 14:34:24 GMT 40.471252 -3.320923 34,000 8 355 -64
2018-12-14 14:34:21 GMT 40.465073 -3.322144 34,000 8 354 0
2018-12-14 14:34:16 GMT 40.455688 -3.324097 34,000 8 354 0
2018-12-14 14:34:11 GMT 40.448273 -3.325623 34,000 8 354 0
2018-12-14 14:34:08 GMT 40.444199 -3.326416 34,000 8 354 0
2018-12-14 14:34:04 GMT 40.437927 -3.327734 34,000 8 353 0
2018-12-14 14:33:57 GMT 40.427078 -3.329895 34,000 8 353 0
2018-12-14 14:33:53 GMT 40.420471 -3.331292 34,000 8 353 0
2018-12-14 14:33:47 GMT 40.403526 -3.334725 34,000 8 352 0
2018-12-14 14:33:43 GMT 40.403526 -3.334725 34,000 8 352 64
2018-12-14 14:33:39 GMT 40.397755 -3.335911 34,000 8 351 64
2018-12-14 14:33:36 GMT 40.393112 -3.336853 34,000 8 351 64
2018-12-14 14:33:32 GMT 40.386860 -3.338096 33,975 8 351 64
2018-12-14 14:33:29 GMT 40.381367 -3.339220 33,975 8 351 0
2018-12-14 14:33:24 GMT 40.369858 -3.341614 33,975 8 350 0
2018-12-14 14:33:18 GMT 40.364422 -3.342715 33,975 8 350 0
2018-12-14 14:33:15 GMT 40.358185 -3.343994 33,975 8 350 0
2018-12-14 14:33:11 GMT 40.352551 -3.345150 33,975 8 349 0
2018-12-14 14:33:08 GMT 40.347794 -3.346130 33,975 8 349 0
2018-12-14 14:33:05 GMT 40.335979 -3.348520 34,000 8 349 0
2018-12-14 14:33:01 GMT 40.335979 -3.348520 34,000 8 348 0
2018-12-14 14:32:57 GMT 40.331177 -3.349487 34,000 8 348 0
2018-12-14 14:32:53 GMT 40.324200 -3.350955 34,000 8 348 0
2018-12-14 14:32:49 GMT 40.318615 -3.352079 34,000 8 347 0
2018-12-14 14:32:46 GMT 40.314194 -3.352966 34,000 8 347 0
2018-12-14 14:32:42 GMT 40.307346 -3.354388 34,000 8 347 0
2018-12-14 14:32:37 GMT 40.297573 -3.356323 34,000 8 346 0
2018-12-14 14:32:32 GMT 40.291397 -3.357605 33,975 8 346 -64
2018-12-14 14:32:26 GMT 40.281418 -3.359632 34,000 8 346 0
2018-12-14 14:32:21 GMT 40.274460 -3.361084 34,000 8 346 0
2018-12-14 14:32:18 GMT 40.269081 -3.362191 34,000 8 346 0
2018-12-14 14:32:15 GMT 40.263245 -3.363403 34,000 8 345 0
2018-12-14 14:32:12 GMT 40.259121 -3.364251 34,000 8 345 0
2018-12-14 14:32:08 GMT 40.252029 -3.365662 34,000 8 345 0
2018-12-14 14:32:05 GMT 40.248230 -3.366455 34,000 8 345 0
2018-12-14 14:32:01 GMT 40.242081 -3.367747 34,000 8 345 0
2018-12-14 14:31:55 GMT 40.231979 -3.369751 34,000 8 344 64
2018-12-14 14:31:49 GMT 40.223328 -3.371460 34,000 8 345 0
2018-12-14 14:31:44 GMT 40.215866 -3.372986 33,975 8 345 0
2018-12-14 14:31:41 GMT 40.210522 -3.374051 33,975 8 345 0
2018-12-14 14:31:34 GMT 40.200233 -3.376111 33,975 8 346 0
2018-12-14 14:31:31 GMT 40.194397 -3.377258 33,975 8 346 0
2018-12-14 14:31:23 GMT 40.181717 -3.379822 33,975 8 346 0
2018-12-14 14:31:20 GMT 40.176956 -3.380793 33,975 8 347 0
2018-12-14 14:31:13 GMT 40.165409 -3.383165 33,975 8 347 0
2018-12-14 14:31:10 GMT 40.161594 -3.383976 33,975 8 347 0
2018-12-14 14:31:04 GMT 40.145252 -3.387285 33,975 8 347 0
2018-12-14 14:31:00 GMT 40.145252 -3.387285 33,975 8 347 0
2018-12-14 14:30:52 GMT 40.132416 -3.389893 33,975 8 347 0
2018-12-14 14:30:49 GMT 40.126053 -3.391174 33,975 8 348 0
2018-12-14 14:30:42 GMT 40.115738 -3.393277 33,975 8 347 -64
2018-12-14 14:30:38 GMT 40.111458 -3.394151 33,975 8 347 0
2018-12-14 14:30:29 GMT 40.096375 -3.397210 34,000 8 347 0
2018-12-14 14:30:22 GMT 40.085434 -3.399395 33,975 8 347 -64
2018-12-14 14:30:19 GMT 40.079708 -3.400518 33,975 8 347 -64
2018-12-14 14:30:12 GMT 40.069046 -3.402703 33,975 8 348 0
2018-12-14 14:30:08 GMT 40.063339 -3.403809 33,975 8 348 0
2018-12-14 14:29:58 GMT 40.047089 -3.407043 33,975 8 349 0
2018-12-14 14:29:50 GMT 40.033218 -3.409851 33,975 8 350 64
2018-12-14 14:29:40 GMT 40.013672 -3.413757 33,975 8 351 -64
2018-12-14 14:29:29 GMT 39.999939 -3.416565 33,975 8 353 0
2018-12-14 14:29:26 GMT 39.996239 -3.417310 33,975 8 354 0
2018-12-14 14:29:16 GMT 39.980038 -3.420618 33,975 8 355 -64
2018-12-14 14:29:06 GMT 39.963135 -3.424072 34,000 8 355 128
2018-12-14 14:28:56 GMT 39.946243 -3.427551 33,975 8 355 -64
2018-12-14 14:28:45 GMT 39.929203 -3.430980 34,000 8 355 0
2018-12-14 14:28:36 GMT 39.914474 -3.433944 34,000 8 354 -64
2018-12-14 14:28:33 GMT 39.910725 -3.434692 34,000 8 354 -64
2018-12-14 14:28:24 GMT 39.895889 -3.437706 34,000 8 353 64
2018-12-14 14:28:18 GMT 39.885212 -3.439880 34,000 8 352 -64
2018-12-14 14:28:14 GMT 39.878952 -3.441169 34,000 8 352 -64
2018-12-14 14:28:10 GMT 39.872498 -3.442482 34,000 8 352 0
2018-12-14 14:28:06 GMT 39.865723 -3.443856 34,000 8 352 0
2018-12-14 14:28:03 GMT 39.862030 -3.444580 34,000 8 352 0
2018-12-14 14:27:53 GMT 39.845596 -3.447815 34,000 8 352 0
2018-12-14 14:27:47 GMT 39.835960 -3.449768 33,975 8 352 0
2018-12-14 14:27:43 GMT 39.828373 -3.451233 33,975 8 352 0
2018-12-14 14:27:36 GMT 39.816513 -3.453648 34,000 8 352 -64
2018-12-14 14:27:33 GMT 39.812485 -3.454484 34,000 8 352 -64
2018-12-14 14:27:26 GMT 39.802185 -3.456573 34,000 8 351 0
2018-12-14 14:27:22 GMT 39.795601 -3.457886 34,000 9 351 0
2018-12-14 14:27:12 GMT 39.779026 -3.461243 34,000 8 351 0
2018-12-14 14:27:02 GMT 39.761398 -3.464754 34,000 8 351 0
2018-12-14 14:26:51 GMT 39.745182 -3.467957 34,000 8 351 0
2018-12-14 14:26:42 GMT 39.730774 -3.470844 34,000 8 351 0
2018-12-14 14:26:39 GMT 39.727402 -3.471497 34,000 8 350 0
2018-12-14 14:26:34 GMT 39.718735 -3.473232 34,000 8 350 0
2018-12-14 14:26:29 GMT 39.711388 -3.474670 34,000 8 350 64
2018-12-14 14:26:25 GMT 39.703033 -3.476337 33,975 8 350 0
2018-12-14 14:26:22 GMT 39.698540 -3.477234 33,975 8 350 -64
2018-12-14 14:26:18 GMT 39.693741 -3.478188 33,975 8 350 0
2018-12-14 14:26:11 GMT 39.681595 -3.480652 33,975 8 351 0
2018-12-14 14:26:08 GMT 39.677402 -3.481506 33,975 8 351 0
2018-12-14 14:26:01 GMT 39.665359 -3.483920 33,975 8 351 -64
2018-12-14 14:25:58 GMT 39.660416 -3.484875 34,000 8 350 0
2018-12-14 14:25:50 GMT 39.647423 -3.487549 34,000 8 350 0
2018-12-14 14:25:47 GMT 39.643559 -3.488342 34,000 8 351 0
2018-12-14 14:25:41 GMT 39.632538 -3.490548 34,000 8 351 0
2018-12-14 14:25:38 GMT 39.629173 -3.491211 34,000 8 351 0
2018-12-14 14:25:35 GMT 39.624985 -3.492065 33,975 8 351 0
2018-12-14 14:25:31 GMT 39.617119 -3.493652 34,000 8 351 0
2018-12-14 14:25:28 GMT 39.612976 -3.494446 34,000 8 351 0
2018-12-14 14:25:24 GMT 39.606876 -3.495667 33,975 8 351 0
2018-12-14 14:25:18 GMT 39.596283 -3.497772 33,975 8 350 0
2018-12-14 14:25:13 GMT 39.589554 -3.499086 33,975 8 350 -64
2018-12-14 14:25:08 GMT 39.579456 -3.501099 34,000 8 350 0
2018-12-14 14:25:04 GMT 39.574848 -3.502014 34,000 8 350 0
2018-12-14 14:24:59 GMT 39.566654 -3.503662 34,000 8 350 0
2018-12-14 14:24:56 GMT 39.561859 -3.504639 34,000 8 350 -64
2018-12-14 14:24:53 GMT 39.556915 -3.505654 34,000 8 350 0
2018-12-14 14:24:49 GMT 39.549728 -3.507087 34,000 8 349 0
2018-12-14 14:24:46 GMT 39.545563 -3.507923 34,000 8 349 0
2018-12-14 14:24:43 GMT 39.541100 -3.508789 34,000 8 349 -64
2018-12-14 14:24:38 GMT 39.533432 -3.510311 34,000 8 349 0
2018-12-14 14:24:35 GMT 39.528168 -3.511386 34,000 8 349 64
2018-12-14 14:24:31 GMT 39.520523 -3.512939 33,975 8 349 0
2018-12-14 14:24:28 GMT 39.516705 -3.513672 33,975 8 349 0
2018-12-14 14:24:23 GMT 39.508392 -3.515326 33,975 8 349 0
2018-12-14 14:24:17 GMT 39.499805 -3.517090 33,975 8 349 0
2018-12-14 14:24:12 GMT 39.491333 -3.518738 33,975 8 349 -64
2018-12-14 14:24:08 GMT 39.484165 -3.520203 33,975 8 349 0
2018-12-14 14:24:05 GMT 39.478409 -3.521297 33,975 8 349 0
2018-12-14 14:24:02 GMT 39.475368 -3.521912 33,975 8 349 0
2018-12-14 14:23:57 GMT 39.467545 -3.523499 34,000 8 349 -64
2018-12-14 14:23:54 GMT 39.462147 -3.524536 34,000 8 349 -64
2018-12-14 14:23:51 GMT 39.458450 -3.525298 34,000 8 349 0
2018-12-14 14:23:44 GMT 39.445679 -3.527865 34,000 8 349 0
2018-12-14 14:23:41 GMT 39.441708 -3.528625 34,000 8 349 0
2018-12-14 14:23:36 GMT 39.433731 -3.530254 34,000 8 349 0
2018-12-14 14:23:33 GMT 39.429234 -3.531189 34,000 8 350 0
2018-12-14 14:23:30 GMT 39.424942 -3.532045 33,975 8 350 0
2018-12-14 14:23:23 GMT 39.412289 -3.534546 34,000 8 350 0
2018-12-14 14:23:20 GMT 39.408146 -3.535339 34,000 8 349 0
2018-12-14 14:23:15 GMT 39.400139 -3.536926 34,000 8 349 0
2018-12-14 14:23:12 GMT 39.395016 -3.537903 33,975 8 349 0
2018-12-14 14:23:08 GMT 39.388596 -3.539150 33,975 8 349 0
2018-12-14 14:23:05 GMT 39.383797 -3.540039 33,975 8 349 0
2018-12-14 14:23:01 GMT 39.378021 -3.541180 33,975 8 349 0
2018-12-14 14:22:58 GMT 39.373882 -3.541931 33,975 8 349 0
2018-12-14 14:22:55 GMT 39.366806 -3.543330 33,975 8 350 0
2018-12-14 14:22:51 GMT 39.361874 -3.544250 33,975 8 349 0
2018-12-14 14:22:47 GMT 39.355450 -3.545471 34,000 8 351 0
2018-12-14 14:22:44 GMT 39.350143 -3.546554 33,975 8 351 0
2018-12-14 14:22:40 GMT 39.344368 -3.547668 33,975 8 351 0
2018-12-14 14:22:36 GMT 39.337666 -3.549011 33,975 8 351 0
2018-12-14 14:22:33 GMT 39.333481 -3.549838 33,975 8 351 0
2018-12-14 14:22:30 GMT 39.327713 -3.550972 34,000 8 351 0
2018-12-14 14:22:27 GMT 39.317093 -3.553122 34,000 8 352 0
2018-12-14 14:22:24 GMT 39.317093 -3.553122 34,000 8 352 0
2018-12-14 14:22:20 GMT 39.311455 -3.554199 34,000 8 352 0
2018-12-14 14:22:16 GMT 39.305683 -3.555359 34,000 8 353 0
2018-12-14 14:22:13 GMT 39.300190 -3.556458 34,000 8 353 -64
2018-12-14 14:22:09 GMT 39.294708 -3.557600 34,000 8 353 0
2018-12-14 14:22:06 GMT 39.289391 -3.558655 34,000 8 353 64
2018-12-14 14:22:03 GMT 39.284409 -3.559630 33,975 8 353 0
2018-12-14 14:21:58 GMT 39.276169 -3.561218 33,975 8 353 0
2018-12-14 14:21:55 GMT 39.266602 -3.563093 33,975 8 353 0
2018-12-14 14:21:52 GMT 39.266602 -3.563093 34,000 8 353 -64
2018-12-14 14:21:48 GMT 39.260468 -3.564347 34,000 8 353 0
2018-12-14 14:21:45 GMT 39.249802 -3.566437 34,000 8 354 0
2018-12-14 14:21:41 GMT 39.244003 -3.567566 34,000 8 353 -64
2018-12-14 14:21:38 GMT 39.244003 -3.567566 34,000 8 354 0
2018-12-14 14:21:35 GMT 39.234100 -3.569542 34,000 8 353 0
2018-12-14 14:21:28 GMT 39.227337 -3.570862 34,000 8 353 -64
2018-12-14 14:21:22 GMT 39.216980 -3.572945 34,000 8 353 -64
2018-12-14 14:21:18 GMT 39.211044 -3.574097 34,000 8 353 -64
2018-12-14 14:21:14 GMT 39.205032 -3.575274 34,000 8 353 0
2018-12-14 14:21:11 GMT 39.199905 -3.576289 34,000 8 353 0
2018-12-14 14:21:07 GMT 39.193913 -3.577515 34,000 8 352 0
2018-12-14 14:21:00 GMT 39.176174 -3.581055 34,000 8 352 0
2018-12-14 14:20:56 GMT 39.176174 -3.581055 34,000 8 352 0
2018-12-14 14:20:51 GMT 39.168961 -3.582520 34,000 8 352 0
2018-12-14 14:20:45 GMT 39.158951 -3.584473 33,975 8 352 0
2018-12-14 14:20:41 GMT 39.152992 -3.585693 34,000 8 352 -64
2018-12-14 14:20:35 GMT 39.142193 -3.587830 34,000 8 352 0
2018-12-14 14:20:30 GMT 39.134975 -3.589294 34,000 8 352 0
2018-12-14 14:20:25 GMT 39.125946 -3.591064 34,000 8 352 0
2018-12-14 14:20:21 GMT 39.119522 -3.592410 34,000 8 352 0
2018-12-14 14:20:17 GMT 39.113068 -3.593664 34,000 8 352 0
2018-12-14 14:20:14 GMT 39.108723 -3.594482 34,000 8 352 0
2018-12-14 14:20:10 GMT 39.102951 -3.595634 34,000 8 352 0
2018-12-14 14:20:04 GMT 39.092335 -3.597656 34,000 8 351 0
2018-12-14 14:19:59 GMT 39.085602 -3.598978 34,000 8 350 0
2018-12-14 14:19:54 GMT 39.074844 -3.601068 34,000 8 350 0
2018-12-14 14:19:50 GMT 39.069351 -3.602083 34,000 8 350 0
2018-12-14 14:19:46 GMT 39.064087 -3.603098 34,000 8 349 0
2018-12-14 14:19:43 GMT 39.058136 -3.604292 34,000 8 351 0
2018-12-14 14:19:39 GMT 39.047413 -3.606323 34,000 8 349 0
2018-12-14 14:19:31 GMT 39.040058 -3.607788 34,000 8 349 0
2018-12-14 14:19:28 GMT 39.034424 -3.608887 34,000 8 349 0
2018-12-14 14:19:21 GMT 39.024555 -3.610779 34,000 8 348 0
2018-12-14 14:19:17 GMT 39.017803 -3.612061 34,000 8 348 0
2018-12-14 14:19:07 GMT 39.001556 -3.615278 34,000 8 349 0
2018-12-14 14:18:58 GMT 38.986542 -3.618204 34,000 8 348 0
2018-12-14 14:18:52 GMT 38.969158 -3.621582 34,000 8 348 0
2018-12-14 14:18:48 GMT 38.969158 -3.621582 34,000 8 348 0
2018-12-14 14:18:37 GMT 38.951794 -3.625000 34,000 8 348 0
2018-12-14 14:18:26 GMT 38.935871 -3.628174 34,000 22 355 0
2018-12-14 14:18:16 GMT 38.903519 -3.634644 34,000 8 347 0
2018-12-14 14:18:05 GMT 38.886250 -3.638000 34,000 8 346 0
2018-12-14 14:17:55 GMT 38.886250 -3.638000 34,000 8 346 0
2018-12-14 14:17:42 GMT 38.865372 -3.642147 33,975 8 346 0
2018-12-14 14:17:34 GMT 38.854500 -3.644287 33,975 8 346 0
2018-12-14 14:17:23 GMT 38.830765 -3.648894 33,975 8 345 0
2018-12-14 14:17:15 GMT 38.822891 -3.650452 34,000 22 355 0
2018-12-14 14:17:04 GMT 38.806595 -3.653551 33,975 10 344 0
2018-12-14 14:16:54 GMT 38.790298 -3.658089 34,000 15 348 0
2018-12-14 14:16:42 GMT 38.772766 -3.664955 34,000 20 351 64
2018-12-14 14:16:33 GMT 38.758163 -3.672479 33,975 22 355 0
2018-12-14 14:16:30 GMT 38.753620 -3.674927 34,000 22 356 0
2018-12-14 14:16:22 GMT 38.726154 -3.689636 34,000 22 356 0
2018-12-14 14:16:13 GMT 38.719639 -3.693176 34,000 22 356 0
2018-12-14 14:16:02 GMT 38.711304 -3.697632 34,000 22 356 0
2018-12-14 14:15:51 GMT 38.694733 -3.706482 34,000 22 356 0
2018-12-14 14:15:48 GMT 38.680161 -3.714275 34,000 22 356 0
2018-12-14 14:15:41 GMT 38.680161 -3.714275 34,000 22 355 0
2018-12-14 14:15:31 GMT 38.663910 -3.722992 33,975 22 355 0
2018-12-14 14:15:21 GMT 38.648876 -3.731079 33,975 22 355 0
2018-12-14 14:15:08 GMT 38.630173 -3.741024 34,000 22 356 0
2018-12-14 14:14:59 GMT 38.615570 -3.748846 33,975 22 355 0
2018-12-14 14:14:50 GMT 38.601425 -3.756369 34,000 22 356 0
2018-12-14 14:14:40 GMT 38.585800 -3.764771 34,000 22 356 0
2018-12-14 14:14:28 GMT 38.569088 -3.773804 34,000 22 356 0
2018-12-14 14:14:24 GMT 38.561646 -3.777804 34,000 22 356 0
2018-12-14 14:14:17 GMT 38.552513 -3.782654 34,000 22 356 0
2018-12-14 14:14:13 GMT 38.546448 -3.785924 34,000 22 356 0
2018-12-14 14:14:09 GMT 38.538666 -3.790044 34,000 22 356 0
2018-12-14 14:14:03 GMT 38.529831 -3.794761 34,000 22 356 0
2018-12-14 14:13:57 GMT 38.521324 -3.799255 34,000 22 357 0
2018-12-14 14:13:47 GMT 38.505753 -3.807539 33,975 22 357 0
2018-12-14 14:13:37 GMT 38.490189 -3.815838 33,975 22 357 0
2018-12-14 14:13:25 GMT 38.473236 -3.824829 34,000 22 357 0
2018-12-14 14:13:20 GMT 38.464394 -3.829529 34,000 22 357 0
2018-12-14 14:13:15 GMT 38.456570 -3.833679 34,000 22 358 0
2018-12-14 14:13:12 GMT 38.450474 -3.836975 34,000 22 358 0
2018-12-14 14:13:06 GMT 38.442978 -3.840942 34,000 22 358 0
2018-12-14 14:12:59 GMT 38.433655 -3.845872 34,000 22 359 0
2018-12-14 14:12:53 GMT 38.423985 -3.851013 34,000 22 359 0
2018-12-14 14:12:45 GMT 38.411739 -3.857515 34,000 22 359 0
2018-12-14 14:12:37 GMT 38.399731 -3.863904 33,975 22 359 0
2018-12-14 14:12:32 GMT 38.389442 -3.869337 33,975 22 359 0
2018-12-14 14:12:27 GMT 38.383942 -3.872272 33,975 22 359 0
2018-12-14 14:12:23 GMT 38.377762 -3.875544 34,000 22 360 0
2018-12-14 14:12:16 GMT 38.367329 -3.881100 34,000 22 360 0
2018-12-14 14:12:12 GMT 38.360535 -3.884682 34,000 22 360 0
2018-12-14 14:12:04 GMT 38.347916 -3.891381 34,000 22 360 0
2018-12-14 14:11:58 GMT 38.338234 -3.896504 34,000 22 360 0
2018-12-14 14:11:53 GMT 38.331894 -3.899854 34,000 22 360 0
2018-12-14 14:11:44 GMT 38.316513 -3.907977 34,000 22 360 0
2018-12-14 14:11:25 GMT 38.288773 -3.922704 34,000 22 360 0
2018-12-14 14:11:21 GMT 38.282139 -3.926179 34,000 22 360 0
2018-12-14 14:11:14 GMT 38.269852 -3.932688 33,975 22 360 0
2018-12-14 14:11:03 GMT 38.253975 -3.941106 34,000 22 360 0
2018-12-14 14:11:00 GMT 38.250137 -3.943157 34,000 22 360 0
2018-12-14 14:10:41 GMT 38.219925 -3.959169 34,000 22 360 0
2018-12-14 14:10:32 GMT 38.206329 -3.966298 34,000 22 360 0
2018-12-14 14:10:22 GMT 38.191082 -3.974364 34,000 22 360 0
2018-12-14 14:09:43 GMT 38.131821 -4.005591 34,000 22 360 0
2018-12-14 14:09:36 GMT 38.119488 -4.012100 34,000 22 359 0
2018-12-14 14:09:30 GMT 38.104568 -4.019944 33,975 22 360 64
2018-12-14 14:09:14 GMT 38.085361 -4.030072 33,975 22 360 0
2018-12-14 14:09:10 GMT 38.074749 -4.035684 33,975 22 360 0
2018-12-14 14:08:59 GMT 38.038113 -4.054910 34,000 22 359 0
2018-12-14 14:08:47 GMT 38.038113 -4.054910 34,000 22 359 0
2018-12-14 14:08:33 GMT 38.016933 -4.066076 34,000 22 359 0
2018-12-14 14:08:28 GMT 38.013977 -4.067571 34,000 22 359 0
2018-12-14 14:08:17 GMT 37.993286 -4.078499 34,000 22 359 -64
2018-12-14 14:08:07 GMT 37.976852 -4.087089 33,950 22 358 832
2018-12-14 14:07:51 GMT 37.952774 -4.099770 33,750 22 360 832
2018-12-14 14:07:36 GMT 37.929089 -4.112171 33,525 22 363 832
2018-12-14 14:07:25 GMT 37.912445 -4.120866 33,375 22 363 768
2018-12-14 14:07:08 GMT 37.885895 -4.134775 33,100 22 362 1344
2018-12-14 14:06:52 GMT 37.867859 -4.144183 32,850 22 364 1472
2018-12-14 14:06:43 GMT 37.846664 -4.155286 32,500 22 364 1536
2018-12-14 14:06:28 GMT 37.824345 -4.166983 32,125 22 366 1536
2018-12-14 14:06:18 GMT 37.814758 -4.172000 32,050 22 367 1536
2018-12-14 14:06:07 GMT 37.796879 -4.181313 31,775 22 368 1600
2018-12-14 14:06:03 GMT 37.790268 -4.184739 31,550 22 367 1600
2018-12-14 14:05:53 GMT 37.757637 -4.201614 30,975 22 370 2240
2018-12-14 14:05:42 GMT 37.757637 -4.201614 30,975 22 370 2240
2018-12-14 14:05:33 GMT 37.743855 -4.208719 30,675 22 370 2240
2018-12-14 14:05:29 GMT 37.737991 -4.211737 30,550 22 371 2304
2018-12-14 14:05:23 GMT 37.727005 -4.217406 30,275 22 374 2304
2018-12-14 14:05:12 GMT 37.710152 -4.226154 29,850 22 377 2560
2018-12-14 14:05:02 GMT 37.693314 -4.234937 29,400 22 381 2944
2018-12-14 14:04:52 GMT 37.677429 -4.243235 28,925 22 387 2880
2018-12-14 14:04:39 GMT 37.654896 -4.254993 28,300 22 397 2624
2018-12-14 14:04:30 GMT 37.639812 -4.262874 27,900 22 399 2048
2018-12-14 14:04:18 GMT 37.620667 -4.272805 27,550 22 400 1536
2018-12-14 14:04:11 GMT 37.607849 -4.279467 27,350 22 400 1536
2018-12-14 14:04:01 GMT 37.589859 -4.288759 27,100 22 399 1536
2018-12-14 14:03:51 GMT 37.573334 -4.297266 26,825 22 398 1536
2018-12-14 14:03:40 GMT 37.555756 -4.306348 26,575 22 396 1536
2018-12-14 14:03:30 GMT 37.537262 -4.315932 26,325 22 395 1280
2018-12-14 14:03:19 GMT 37.519566 -4.325150 26,075 22 393 1536
2018-12-14 14:03:09 GMT 37.503414 -4.333509 25,825 22 391 1472
2018-12-14 14:03:05 GMT 37.495548 -4.337629 25,700 22 391 1600
2018-12-14 14:03:00 GMT 37.486004 -4.342525 25,550 22 390 1664
2018-12-14 14:02:53 GMT 37.476517 -4.347430 25,400 22 389 1792
2018-12-14 14:02:47 GMT 37.465714 -4.353040 25,225 22 388 1792
2018-12-14 14:02:36 GMT 37.448090 -4.362098 24,900 22 387 1984
2018-12-14 14:02:25 GMT 37.430187 -4.371364 24,550 22 387 1984
2018-12-14 14:02:13 GMT 37.396912 -4.388512 22,200 22 383 2112
2018-12-14 14:02:05 GMT 37.383869 -4.395188 22,200 22 383 2112
2018-12-14 14:01:58 GMT 37.383869 -4.395188 23,600 22 386 1984
2018-12-14 14:01:54 GMT 37.378746 -4.397875 23,500 22 385 1984
2018-12-14 14:01:45 GMT 37.362919 -4.405995 23,175 22 383 2304
2018-12-14 14:01:34 GMT 37.345837 -4.414832 22,800 22 383 2176
2018-12-14 14:01:27 GMT 37.333313 -4.421281 22,550 22 382 2112
2018-12-14 14:01:24 GMT 37.328888 -4.423516 22,450 22 382 1984
2018-12-14 14:01:17 GMT 37.317112 -4.429580 22,225 22 381 1920
2018-12-14 14:01:14 GMT 37.312363 -4.432028 22,125 22 380 1984
2018-12-14 14:01:10 GMT 37.304214 -4.436197 21,975 22 379 1856
2018-12-14 14:01:06 GMT 37.299980 -4.438417 21,900 22 378 1920
2018-12-14 14:01:03 GMT 37.294952 -4.440984 21,800 22 378 1920
2018-12-14 14:00:56 GMT 37.282837 -4.447184 21,550 22 375 1792
2018-12-14 14:00:53 GMT 37.278008 -4.449702 21,475 22 374 1472
2018-12-14 14:00:46 GMT 37.266769 -4.455424 21,200 22 365 2304
2018-12-14 14:00:39 GMT 37.254044 -4.461969 21,025 22 369 2048
2018-12-14 14:00:35 GMT 37.249466 -4.464306 20,925 22 368 1984
2018-12-14 14:00:32 GMT 37.244862 -4.466659 20,850 22 368 2048
2018-12-14 14:00:26 GMT 37.233856 -4.472312 20,600 22 366 2304
2018-12-14 14:00:22 GMT 37.229324 -4.474650 20,500 22 366 2368
2018-12-14 14:00:14 GMT 37.217102 -4.480902 20,200 22 364 2176
2018-12-14 14:00:11 GMT 37.213020 -4.482959 20,100 22 364 2304
2018-12-14 14:00:05 GMT 37.201660 -4.488811 19,825 22 362 2560
2018-12-14 14:00:01 GMT 37.196365 -4.491480 19,675 22 362 2496
2018-12-14 13:59:57 GMT 37.189682 -4.494928 19,500 22 361 2368
2018-12-14 13:59:54 GMT 37.185196 -4.497207 19,400 22 361 2368
2018-12-14 13:59:50 GMT 37.179428 -4.500129 19,250 22 361 2368
2018-12-14 13:59:46 GMT 37.173569 -4.503167 19,100 22 361 2432
2018-12-14 13:59:40 GMT 37.164143 -4.507977 18,875 22 359 2432
2018-12-14 13:59:30 GMT 37.149216 -4.515615 18,475 22 357 2304
2018-12-14 13:59:23 GMT 37.138321 -4.521166 18,225 22 355 2240
2018-12-14 13:59:19 GMT 37.132393 -4.524158 18,075 22 354 2368
2018-12-14 13:59:15 GMT 37.126144 -4.527361 17,725 22 353 2624
2018-12-14 13:59:09 GMT 37.117496 -4.531801 17,675 22 352 2688
2018-12-14 13:59:04 GMT 37.106918 -4.537178 17,375 22 351 2624
2018-12-14 13:58:59 GMT 37.102249 -4.539574 17,250 22 351 2560
2018-12-14 13:58:54 GMT 37.094284 -4.543606 17,025 22 349 2560
2018-12-14 13:58:49 GMT 37.086960 -4.547346 16,825 22 348 2688
2018-12-14 13:58:45 GMT 37.079788 -4.551027 16,625 22 348 2816
2018-12-14 13:58:39 GMT 37.071442 -4.555294 16,375 22 347 2752
2018-12-14 13:58:34 GMT 37.063541 -4.559326 16,125 22 346 2752
2018-12-14 13:58:28 GMT 37.055954 -4.563148 15,900 22 345 2880
2018-12-14 13:58:21 GMT 37.042454 -4.570014 15,650 22 345 3136
2018-12-14 13:58:18 GMT 37.041149 -4.570730 15,400 22 345 2944
2018-12-14 13:58:14 GMT 37.033562 -4.574552 15,175 22 345 2368
2018-12-14 13:58:08 GMT 37.026020 -4.578373 14,975 22 343 2816
2018-12-14 13:58:04 GMT 37.018661 -4.582117 14,725 22 343 3136
2018-12-14 13:58:01 GMT 37.015873 -4.583568 14,625 22 342 3328
2018-12-14 13:57:58 GMT 37.011032 -4.586016 14,450 22 343 3136
2018-12-14 13:57:52 GMT 37.001038 -4.591116 14,150 22 341 1984
2018-12-14 13:57:47 GMT 36.995621 -4.593897 14,025 22 339 1984
2018-12-14 13:57:42 GMT 36.985931 -4.598889 13,800 22 335 2624
2018-12-14 13:57:37 GMT 36.980305 -4.601719 13,625 22 334 2624
2018-12-14 13:57:31 GMT 36.972019 -4.606018 13,375 22 331 2368
2018-12-14 13:57:27 GMT 36.965927 -4.609115 13,225 22 330 1344
2018-12-14 13:57:21 GMT 36.957169 -4.613601 13,100 22 322 832
2018-12-14 13:57:16 GMT 36.950420 -4.617124 13,025 22 318 832
2018-12-14 13:57:10 GMT 36.943253 -4.620885 12,950 22 310 960
2018-12-14 13:57:06 GMT 36.937199 -4.624050 12,850 23 305 896
2018-12-14 13:57:01 GMT 36.929169 -4.628341 12,775 24 291 1024
2018-12-14 13:56:56 GMT 36.924026 -4.631155 12,725 24 291 1024
2018-12-14 13:56:51 GMT 36.918392 -4.634380 12,625 23 286 1152
2018-12-14 13:56:45 GMT 36.911407 -4.638022 12,525 16 276 704
2018-12-14 13:56:40 GMT 36.904724 -4.640321 12,450 7 264 832
2018-12-14 13:56:35 GMT 36.898819 -4.641256 12,350 0 255 1536
2018-12-14 13:56:29 GMT 36.891632 -4.641022 12,175 352 248 2112
2018-12-14 13:56:24 GMT 36.887146 -4.639970 12,025 345 243 2816
2018-12-14 13:56:19 GMT 36.880692 -4.637575 11,725 341 240 3648
2018-12-14 13:56:14 GMT 36.876404 -4.635693 11,475 342 240 3776
2018-12-14 13:56:09 GMT 36.870628 -4.633245 11,150 342 240 4032
2018-12-14 13:56:04 GMT 36.865646 -4.631155 10,825 342 242 3840
2018-12-14 13:55:59 GMT 36.859360 -4.628458 10,475 342 244 3520
2018-12-14 13:55:54 GMT 36.854195 -4.626319 10,175 342 244 3328
2018-12-14 13:55:48 GMT 36.847870 -4.623699 9,875 341 244 3072
2018-12-14 13:55:43 GMT 36.843338 -4.621754 9,650 341 245 3008
2018-12-14 13:55:39 GMT 36.837158 -4.619007 9,350 341 243 3008
2018-12-14 13:55:33 GMT 36.832176 -4.616771 9,125 340 241 2816
2018-12-14 13:55:26 GMT 36.824032 -4.613089 8,900 341 239 2752
2018-12-14 13:55:23 GMT 36.821518 -4.611979 8,650 341 236 3008
2018-12-14 13:55:16 GMT 36.813995 -4.608765 8,275 341 234 3392
2018-12-14 13:55:12 GMT 36.811020 -4.607449 8,100 341 232 3520
2018-12-14 13:55:05 GMT 36.802322 -4.603672 7,550 341 231 3648
2018-12-14 13:55:02 GMT 36.800262 -4.602757 7,475 341 231 3712
2018-12-14 13:54:57 GMT 36.794449 -4.600124 7,125 341 230 3584
2018-12-14 13:54:52 GMT 36.790192 -4.598236 6,875 341 230 3456
2018-12-14 13:54:41 GMT 36.779434 -4.593601 6,275 342 227 3840
2018-12-14 13:54:30 GMT 36.768585 -4.589246 5,525 343 229 4224
2018-12-14 13:54:27 GMT 36.764305 -4.587610 5,225 343 231 4096
2018-12-14 13:54:21 GMT 36.758698 -4.585419 4,850 342 233 3968
2018-12-14 13:54:17 GMT 36.753250 -4.583187 4,475 342 234 3648
2018-12-14 13:54:11 GMT 36.748535 -4.581184 4,200 341 234 3328
2018-12-14 13:53:58 GMT 36.735764 -4.575291 3,625 335 223 1536
2018-12-14 13:53:49 GMT 36.727570 -4.569683 3,400 325 206 896
2018-12-14 13:53:40 GMT 36.721298 -4.563389 3,250 315 188 832
2018-12-14 13:53:25 GMT 36.713188 -4.552197 2,900 311 171 1856
2018-12-14 13:53:17 GMT 36.708755 -4.545937 2,575 312 165 2368
2018-12-14 13:53:07 GMT 36.703857 -4.539299 2,225 313 157 2368
2018-12-14 13:52:59 GMT 36.699783 -4.533806 1,925 312 155 2560
2018-12-14 13:52:50 GMT 36.695408 -4.527770 1,525 312 155 2752
2018-12-14 13:52:44 GMT 36.692287 -4.523445 1,200 312 158 3008
2018-12-14 13:52:37 GMT 36.689400 -4.519355 925 312 158 2624
2018-12-14 13:52:33 GMT 36.687241 -4.516239 725 312 158 2624
2018-12-14 13:52:28 GMT 36.684723 -4.512806 475 313 157 2368
2018-12-14 13:52:18 GMT 36.679813 -4.506031 50 312 155 2688
2018-12-14 13:51:34 GMT 36.665859 -4.486396 0 309 10
2018-12-14 13:51:20 GMT 36.665730 -4.486220 0 309 0
2018-12-14 13:50:50 GMT 36.665726 -4.486213 0 309 0
2018-12-14 13:50:24 GMT 36.665730 -4.486220 0 309 0
2018-12-14 13:50:14 GMT 36.665726 -4.486213 0 309 0
2018-12-14 13:49:59 GMT 36.665565 -4.485928 0 247 8
2018-12-14 13:49:09 GMT 36.668106 -4.486599 0 132 24
2018-12-14 13:47:26 GMT 36.675877 -4.497484 0 132 21
2018-12-14 13:47:18 GMT 36.676285 -4.498054 0 132 17
2018-12-14 13:47:09 GMT 36.676735 -4.498658 0 163 13
2018-12-14 13:46:58 GMT 36.677319 -4.498529 0 191 14
2018-12-14 13:46:47 GMT 36.677948 -4.498515 0 210 13
2018-12-14 13:46:38 GMT 36.678452 -4.498025 0 222 21
2018-12-14 13:46:15 GMT 36.679939 -4.496369 0 222 16
2018-12-14 13:46:06 GMT 36.680370 -4.495921 0 222 10
2018-12-14 13:45:56 GMT 36.680637 -4.495611 0 222 6
2018-12-14 13:45:24 GMT 36.680790 -4.495439 0 225 0
2018-12-14 13:44:29 GMT 36.680786 -4.495440 0 225 0
2018-12-14 13:43:50 GMT 36.680779 -4.495454 0 225 0
2018-12-14 13:43:35 GMT 36.680786 -4.495454 0 225 0
2018-12-14 13:43:23 GMT 36.680752 -4.495482 0 225 4
2018-12-14 13:43:19 GMT 36.680706 -4.495525 0 222 4
2018-12-14 13:43:10 GMT 36.680603 -4.495640 0 222 4
2018-12-14 13:43:00 GMT 36.680496 -4.495760 0 222 4
2018-12-14 13:42:47 GMT 36.680359 -4.495921 0 222 4
2018-12-14 13:42:35 GMT 36.680229 -4.496082 0 225 5
2018-12-14 13:42:21 GMT 36.680042 -4.496257 0 216 5
2018-12-14 13:42:17 GMT 36.679653 -4.495969 0 219 5
2018-12-14 13:41:19 GMT 36.679665 -4.496527 0 188 4
2018-12-14 13:41:14 GMT 36.679607 -4.496512 0 177 4
2018-12-14 13:41:04 GMT 36.679470 -4.496412 0 154 4
2018-12-14 13:40:53 GMT 36.679344 -4.496286 0 140 4
2018-12-14 13:40:45 GMT 36.679264 -4.496169 0 135 5
2018-12-14 13:40:36 GMT 36.679161 -4.496026 0 132 4
2018-12-14 13:40:23 GMT 36.679020 -4.495833 0 132 5
2018-12-14 13:39:55 GMT 36.678864 -4.495625 0 132 0
2018-12-14 13:39:44 GMT 36.678883 -4.495629 0 132 0
2018-12-14 13:39:34 GMT 36.678856 -4.495629 0 132 0
2018-12-14 13:38:49 GMT 36.678864 -4.495640 0 132 0
2018-12-14 13:38:39 GMT 36.678864 -4.495625 0 132 0
2018-12-14 13:38:29 GMT 36.678856 -4.495629 0 132 0
2018-12-14 13:38:19 GMT 36.678864 -4.495625 0 132 0
2018-12-14 13:38:10 GMT 36.678852 -4.495625 0 132 0
2018-12-14 13:37:59 GMT 36.678856 -4.495629 0 132 0

Making use of Plane Finder data

You are free to use the raw flight data, aircraft information and images provided in this report for your own purposes provided the data is correctly attributed to Plane Finder. We ask that you please credit Plane Finder and link to planefinder.net in close proximity to the content.

Optionally one of the following logos (no smaller then 150x24px) can be used and must link to planefinder.net

Embedding the Plane Finder map

You are welcome to embed the Plane Finder playback map on your website to offer visitors a more interactive experience. We suggest using the following HTML code:

<iframe src="//planefinder.net/data/report/D85052-EI-FJB-7700-squawk-2018-12-14/map" width="800" height="600" seamless="seamless"></iframe>

Where our data comes from

Plane Finder has a global network of data feeds and antenna radars that receive data broadcast directly from aircraft. The primary technologies used are ADS-B and MLAT. We also show feeds from the FAA and a FLARM glider feed.

Click here to find out more about the Plane Finder network.

How we collect our data